<?xml version="1.0" encoding="UTF-8" standalone="no" ?>
<gpx xmlns="http://www.topografix.com/GPX/1/1" xmlns:xsi="http://www.w3.org/2001/XMLSchema-instance" xsi:schemaLocation="http://www.topografix.com/GPX/1/1 http://www.topografix.com/GPX/1/1/gpx.xsd" version="1.1" creator="VisuGPX - https://www.visugpx.com">
  <metadata>
    <name>Via Podiensis GR65 Aumont Aubrac-Nasbinals</name>
    <desc><![CDATA[Via Podiensis GR65
Aumont Aubrac-Nasbinals]]></desc>
  </metadata>
  <trk>
    <name><![CDATA[14-MAI-12 AUMONT AUBRAC-NASBINALS]]></name>
    <trkseg>
      <trkpt lat="44.71845" lon="3.28458">
        <ele>1063.84</ele>
        <time>2012-05-13T17:05:49Z</time>
      </trkpt>
      <trkpt lat="44.71846" lon="3.28446">
        <ele>1062.39</ele>
        <time>2012-05-13T17:06:11Z</time>
      </trkpt>
      <trkpt lat="44.71845" lon="3.28443">
        <ele>1060.95</ele>
        <time>2012-05-13T17:06:36Z</time>
      </trkpt>
      <trkpt lat="44.71844" lon="3.28438">
        <ele>1059.03</ele>
        <time>2012-05-13T17:07:04Z</time>
      </trkpt>
      <trkpt lat="44.71845" lon="3.28442">
        <ele>1060.95</ele>
        <time>2012-05-13T17:07:20Z</time>
      </trkpt>
      <trkpt lat="44.71838" lon="3.28425">
        <ele>1051.82</ele>
        <time>2012-05-13T19:01:40Z</time>
      </trkpt>
      <trkpt lat="44.71838" lon="3.28425">
        <ele>1051.82</ele>
        <time>2012-05-13T19:01:41Z</time>
      </trkpt>
      <trkpt lat="44.71832" lon="3.28352">
        <ele>1045.57</ele>
        <time>2012-05-14T06:09:40Z</time>
      </trkpt>
      <trkpt lat="44.71842" lon="3.2835">
        <ele>1046.05</ele>
        <time>2012-05-14T06:09:52Z</time>
      </trkpt>
      <trkpt lat="44.71843" lon="3.28351">
        <ele>1045.09</ele>
        <time>2012-05-14T06:10:07Z</time>
      </trkpt>
      <trkpt lat="44.71841" lon="3.2835">
        <ele>1040.28</ele>
        <time>2012-05-14T06:10:31Z</time>
      </trkpt>
      <trkpt lat="44.7184" lon="3.28348">
        <ele>1040.28</ele>
        <time>2012-05-14T06:10:33Z</time>
      </trkpt>
      <trkpt lat="44.71835" lon="3.28338">
        <ele>1035.96</ele>
        <time>2012-05-14T06:10:49Z</time>
      </trkpt>
      <trkpt lat="44.7183" lon="3.28331">
        <ele>1033.55</ele>
        <time>2012-05-14T06:11:04Z</time>
      </trkpt>
      <trkpt lat="44.71827" lon="3.28331">
        <ele>1034.04</ele>
        <time>2012-05-14T06:11:07Z</time>
      </trkpt>
      <trkpt lat="44.71819" lon="3.28337">
        <ele>1034.52</ele>
        <time>2012-05-14T06:11:15Z</time>
      </trkpt>
      <trkpt lat="44.71816" lon="3.28335">
        <ele>1034.52</ele>
        <time>2012-05-14T06:11:19Z</time>
      </trkpt>
      <trkpt lat="44.71812" lon="3.28336">
        <ele>1034.04</ele>
        <time>2012-05-14T06:11:22Z</time>
      </trkpt>
      <trkpt lat="44.71794" lon="3.28357">
        <ele>1035</ele>
        <time>2012-05-14T06:11:41Z</time>
      </trkpt>
      <trkpt lat="44.71779" lon="3.28377">
        <ele>1035.96</ele>
        <time>2012-05-14T06:11:58Z</time>
      </trkpt>
      <trkpt lat="44.71771" lon="3.28388">
        <ele>1035</ele>
        <time>2012-05-14T06:12:12Z</time>
      </trkpt>
      <trkpt lat="44.71768" lon="3.28385">
        <ele>1034.52</ele>
        <time>2012-05-14T06:12:17Z</time>
      </trkpt>
      <trkpt lat="44.71761" lon="3.28377">
        <ele>1032.59</ele>
        <time>2012-05-14T06:12:31Z</time>
      </trkpt>
      <trkpt lat="44.71759" lon="3.28376">
        <ele>1032.11</ele>
        <time>2012-05-14T06:12:33Z</time>
      </trkpt>
      <trkpt lat="44.71739" lon="3.28372">
        <ele>1032.11</ele>
        <time>2012-05-14T06:12:50Z</time>
      </trkpt>
      <trkpt lat="44.71721" lon="3.28365">
        <ele>1032.59</ele>
        <time>2012-05-14T06:13:05Z</time>
      </trkpt>
      <trkpt lat="44.71702" lon="3.28357">
        <ele>1033.07</ele>
        <time>2012-05-14T06:13:21Z</time>
      </trkpt>
      <trkpt lat="44.71701" lon="3.28355">
        <ele>1033.07</ele>
        <time>2012-05-14T06:13:23Z</time>
      </trkpt>
      <trkpt lat="44.71699" lon="3.2835">
        <ele>1033.07</ele>
        <time>2012-05-14T06:13:27Z</time>
      </trkpt>
      <trkpt lat="44.7169" lon="3.28327">
        <ele>1033.55</ele>
        <time>2012-05-14T06:13:44Z</time>
      </trkpt>
      <trkpt lat="44.71682" lon="3.28308">
        <ele>1035</ele>
        <time>2012-05-14T06:13:58Z</time>
      </trkpt>
      <trkpt lat="44.71675" lon="3.28285">
        <ele>1035.48</ele>
        <time>2012-05-14T06:14:14Z</time>
      </trkpt>
      <trkpt lat="44.71667" lon="3.28263">
        <ele>1038.36</ele>
        <time>2012-05-14T06:14:32Z</time>
      </trkpt>
      <trkpt lat="44.71659" lon="3.28243">
        <ele>1039.8</ele>
        <time>2012-05-14T06:14:48Z</time>
      </trkpt>
      <trkpt lat="44.71651" lon="3.28224">
        <ele>1041.25</ele>
        <time>2012-05-14T06:15:04Z</time>
      </trkpt>
      <trkpt lat="44.71639" lon="3.28212">
        <ele>1041.73</ele>
        <time>2012-05-14T06:15:19Z</time>
      </trkpt>
      <trkpt lat="44.71625" lon="3.28201">
        <ele>1043.17</ele>
        <time>2012-05-14T06:15:36Z</time>
      </trkpt>
      <trkpt lat="44.71613" lon="3.28189">
        <ele>1046.05</ele>
        <time>2012-05-14T06:15:52Z</time>
      </trkpt>
      <trkpt lat="44.716" lon="3.28176">
        <ele>1047.97</ele>
        <time>2012-05-14T06:16:09Z</time>
      </trkpt>
      <trkpt lat="44.71585" lon="3.28163">
        <ele>1050.86</ele>
        <time>2012-05-14T06:16:28Z</time>
      </trkpt>
      <trkpt lat="44.71575" lon="3.28152">
        <ele>1054.22</ele>
        <time>2012-05-14T06:16:45Z</time>
      </trkpt>
      <trkpt lat="44.71567" lon="3.28145">
        <ele>1057.59</ele>
        <time>2012-05-14T06:17:00Z</time>
      </trkpt>
      <trkpt lat="44.71555" lon="3.28134">
        <ele>1059.51</ele>
        <time>2012-05-14T06:17:21Z</time>
      </trkpt>
      <trkpt lat="44.71546" lon="3.28125">
        <ele>1061.91</ele>
        <time>2012-05-14T06:17:36Z</time>
      </trkpt>
      <trkpt lat="44.71534" lon="3.28114">
        <ele>1063.84</ele>
        <time>2012-05-14T06:17:54Z</time>
      </trkpt>
      <trkpt lat="44.71525" lon="3.28101">
        <ele>1065.76</ele>
        <time>2012-05-14T06:18:11Z</time>
      </trkpt>
      <trkpt lat="44.71512" lon="3.28087">
        <ele>1066.24</ele>
        <time>2012-05-14T06:18:29Z</time>
      </trkpt>
      <trkpt lat="44.71497" lon="3.28074">
        <ele>1068.16</ele>
        <time>2012-05-14T06:18:46Z</time>
      </trkpt>
      <trkpt lat="44.71485" lon="3.28062">
        <ele>1068.16</ele>
        <time>2012-05-14T06:18:59Z</time>
      </trkpt>
      <trkpt lat="44.7147" lon="3.28048">
        <ele>1067.2</ele>
        <time>2012-05-14T06:19:15Z</time>
      </trkpt>
      <trkpt lat="44.71456" lon="3.28028">
        <ele>1066.72</ele>
        <time>2012-05-14T06:19:32Z</time>
      </trkpt>
      <trkpt lat="44.71441" lon="3.28007">
        <ele>1066.72</ele>
        <time>2012-05-14T06:19:49Z</time>
      </trkpt>
      <trkpt lat="44.71434" lon="3.27991">
        <ele>1066.72</ele>
        <time>2012-05-14T06:20:02Z</time>
      </trkpt>
      <trkpt lat="44.71425" lon="3.2797">
        <ele>1067.2</ele>
        <time>2012-05-14T06:20:18Z</time>
      </trkpt>
      <trkpt lat="44.71422" lon="3.27944">
        <ele>1067.68</ele>
        <time>2012-05-14T06:20:34Z</time>
      </trkpt>
      <trkpt lat="44.71422" lon="3.27913">
        <ele>1066.24</ele>
        <time>2012-05-14T06:20:52Z</time>
      </trkpt>
      <trkpt lat="44.71422" lon="3.2788">
        <ele>1066.24</ele>
        <time>2012-05-14T06:21:11Z</time>
      </trkpt>
      <trkpt lat="44.71423" lon="3.27855">
        <ele>1066.72</ele>
        <time>2012-05-14T06:21:27Z</time>
      </trkpt>
      <trkpt lat="44.71421" lon="3.27829">
        <ele>1066.24</ele>
        <time>2012-05-14T06:21:42Z</time>
      </trkpt>
      <trkpt lat="44.7142" lon="3.27796">
        <ele>1066.24</ele>
        <time>2012-05-14T06:22:01Z</time>
      </trkpt>
      <trkpt lat="44.71417" lon="3.27771">
        <ele>1068.16</ele>
        <time>2012-05-14T06:22:16Z</time>
      </trkpt>
      <trkpt lat="44.71414" lon="3.27742">
        <ele>1069.6</ele>
        <time>2012-05-14T06:22:34Z</time>
      </trkpt>
      <trkpt lat="44.71413" lon="3.27717">
        <ele>1069.6</ele>
        <time>2012-05-14T06:22:50Z</time>
      </trkpt>
      <trkpt lat="44.71409" lon="3.27693">
        <ele>1069.6</ele>
        <time>2012-05-14T06:23:06Z</time>
      </trkpt>
      <trkpt lat="44.71407" lon="3.27669">
        <ele>1070.57</ele>
        <time>2012-05-14T06:23:21Z</time>
      </trkpt>
      <trkpt lat="44.71402" lon="3.27645">
        <ele>1071.05</ele>
        <time>2012-05-14T06:23:36Z</time>
      </trkpt>
      <trkpt lat="44.71394" lon="3.27616">
        <ele>1070.57</ele>
        <time>2012-05-14T06:23:53Z</time>
      </trkpt>
      <trkpt lat="44.71384" lon="3.27593">
        <ele>1067.68</ele>
        <time>2012-05-14T06:24:10Z</time>
      </trkpt>
      <trkpt lat="44.71375" lon="3.27572">
        <ele>1067.2</ele>
        <time>2012-05-14T06:24:27Z</time>
      </trkpt>
      <trkpt lat="44.71367" lon="3.27546">
        <ele>1067.2</ele>
        <time>2012-05-14T06:24:44Z</time>
      </trkpt>
      <trkpt lat="44.71361" lon="3.27539">
        <ele>1066.24</ele>
        <time>2012-05-14T06:24:53Z</time>
      </trkpt>
      <trkpt lat="44.71345" lon="3.27518">
        <ele>1065.76</ele>
        <time>2012-05-14T06:25:10Z</time>
      </trkpt>
      <trkpt lat="44.71329" lon="3.27497">
        <ele>1065.76</ele>
        <time>2012-05-14T06:25:28Z</time>
      </trkpt>
      <trkpt lat="44.71324" lon="3.2749">
        <ele>1066.24</ele>
        <time>2012-05-14T06:25:34Z</time>
      </trkpt>
      <trkpt lat="44.7132" lon="3.27485">
        <ele>1066.24</ele>
        <time>2012-05-14T06:25:38Z</time>
      </trkpt>
      <trkpt lat="44.71306" lon="3.27463">
        <ele>1065.28</ele>
        <time>2012-05-14T06:25:55Z</time>
      </trkpt>
      <trkpt lat="44.71291" lon="3.2744">
        <ele>1063.84</ele>
        <time>2012-05-14T06:26:13Z</time>
      </trkpt>
      <trkpt lat="44.71276" lon="3.27418">
        <ele>1062.87</ele>
        <time>2012-05-14T06:26:31Z</time>
      </trkpt>
      <trkpt lat="44.71262" lon="3.27394">
        <ele>1059.03</ele>
        <time>2012-05-14T06:26:49Z</time>
      </trkpt>
      <trkpt lat="44.71248" lon="3.27374">
        <ele>1057.59</ele>
        <time>2012-05-14T06:27:06Z</time>
      </trkpt>
      <trkpt lat="44.7124" lon="3.27365">
        <ele>1060.47</ele>
        <time>2012-05-14T06:27:15Z</time>
      </trkpt>
      <trkpt lat="44.71221" lon="3.27343">
        <ele>1063.36</ele>
        <time>2012-05-14T06:27:34Z</time>
      </trkpt>
      <trkpt lat="44.71205" lon="3.27325">
        <ele>1062.39</ele>
        <time>2012-05-14T06:27:51Z</time>
      </trkpt>
      <trkpt lat="44.71193" lon="3.27312">
        <ele>1061.91</ele>
        <time>2012-05-14T06:28:06Z</time>
      </trkpt>
      <trkpt lat="44.71191" lon="3.2731">
        <ele>1062.39</ele>
        <time>2012-05-14T06:28:08Z</time>
      </trkpt>
      <trkpt lat="44.7117" lon="3.27295">
        <ele>1063.36</ele>
        <time>2012-05-14T06:28:24Z</time>
      </trkpt>
      <trkpt lat="44.71166" lon="3.27294">
        <ele>1062.39</ele>
        <time>2012-05-14T06:28:28Z</time>
      </trkpt>
      <trkpt lat="44.71164" lon="3.27297">
        <ele>1061.43</ele>
        <time>2012-05-14T06:28:31Z</time>
      </trkpt>
      <trkpt lat="44.71142" lon="3.27307">
        <ele>1059.51</ele>
        <time>2012-05-14T06:28:49Z</time>
      </trkpt>
      <trkpt lat="44.71127" lon="3.27318">
        <ele>1058.07</ele>
        <time>2012-05-14T06:29:05Z</time>
      </trkpt>
      <trkpt lat="44.71112" lon="3.27326">
        <ele>1055.67</ele>
        <time>2012-05-14T06:29:21Z</time>
      </trkpt>
      <trkpt lat="44.71112" lon="3.27324">
        <ele>1054.7</ele>
        <time>2012-05-14T06:29:37Z</time>
      </trkpt>
      <trkpt lat="44.7112" lon="3.27333">
        <ele>1053.74</ele>
        <time>2012-05-14T06:29:56Z</time>
      </trkpt>
      <trkpt lat="44.7112" lon="3.27336">
        <ele>1053.74</ele>
        <time>2012-05-14T06:30:13Z</time>
      </trkpt>
      <trkpt lat="44.71096" lon="3.27285">
        <ele>1051.34</ele>
        <time>2012-05-14T06:30:33Z</time>
      </trkpt>
      <trkpt lat="44.71103" lon="3.27272">
        <ele>1057.11</ele>
        <time>2012-05-14T06:30:44Z</time>
      </trkpt>
      <trkpt lat="44.71116" lon="3.27265">
        <ele>1058.55</ele>
        <time>2012-05-14T06:30:59Z</time>
      </trkpt>
      <trkpt lat="44.7113" lon="3.27255">
        <ele>1059.51</ele>
        <time>2012-05-14T06:31:14Z</time>
      </trkpt>
      <trkpt lat="44.71131" lon="3.27254">
        <ele>1059.99</ele>
        <time>2012-05-14T06:31:15Z</time>
      </trkpt>
      <trkpt lat="44.7112" lon="3.27238">
        <ele>1061.91</ele>
        <time>2012-05-14T06:31:29Z</time>
      </trkpt>
      <trkpt lat="44.71105" lon="3.27217">
        <ele>1059.99</ele>
        <time>2012-05-14T06:31:48Z</time>
      </trkpt>
      <trkpt lat="44.71091" lon="3.27198">
        <ele>1059.03</ele>
        <time>2012-05-14T06:32:04Z</time>
      </trkpt>
      <trkpt lat="44.71089" lon="3.27193">
        <ele>1059.03</ele>
        <time>2012-05-14T06:32:08Z</time>
      </trkpt>
      <trkpt lat="44.71074" lon="3.27173">
        <ele>1060.47</ele>
        <time>2012-05-14T06:32:25Z</time>
      </trkpt>
      <trkpt lat="44.71061" lon="3.27158">
        <ele>1061.43</ele>
        <time>2012-05-14T06:32:40Z</time>
      </trkpt>
      <trkpt lat="44.71047" lon="3.27139">
        <ele>1061.43</ele>
        <time>2012-05-14T06:32:56Z</time>
      </trkpt>
      <trkpt lat="44.71034" lon="3.2712">
        <ele>1062.39</ele>
        <time>2012-05-14T06:33:12Z</time>
      </trkpt>
      <trkpt lat="44.71019" lon="3.271">
        <ele>1062.87</ele>
        <time>2012-05-14T06:33:29Z</time>
      </trkpt>
      <trkpt lat="44.71007" lon="3.2708">
        <ele>1061.91</ele>
        <time>2012-05-14T06:33:45Z</time>
      </trkpt>
      <trkpt lat="44.70992" lon="3.27057">
        <ele>1060.47</ele>
        <time>2012-05-14T06:34:04Z</time>
      </trkpt>
      <trkpt lat="44.70977" lon="3.27042">
        <ele>1061.91</ele>
        <time>2012-05-14T06:34:20Z</time>
      </trkpt>
      <trkpt lat="44.70959" lon="3.27031">
        <ele>1059.99</ele>
        <time>2012-05-14T06:34:36Z</time>
      </trkpt>
      <trkpt lat="44.70938" lon="3.27018">
        <ele>1056.63</ele>
        <time>2012-05-14T06:34:53Z</time>
      </trkpt>
      <trkpt lat="44.7092" lon="3.27006">
        <ele>1058.07</ele>
        <time>2012-05-14T06:35:09Z</time>
      </trkpt>
      <trkpt lat="44.70905" lon="3.26994">
        <ele>1057.59</ele>
        <time>2012-05-14T06:35:24Z</time>
      </trkpt>
      <trkpt lat="44.70888" lon="3.26982">
        <ele>1057.59</ele>
        <time>2012-05-14T06:35:40Z</time>
      </trkpt>
      <trkpt lat="44.70871" lon="3.26971">
        <ele>1058.07</ele>
        <time>2012-05-14T06:35:56Z</time>
      </trkpt>
      <trkpt lat="44.70853" lon="3.2696">
        <ele>1058.07</ele>
        <time>2012-05-14T06:36:12Z</time>
      </trkpt>
      <trkpt lat="44.70833" lon="3.26953">
        <ele>1058.55</ele>
        <time>2012-05-14T06:36:28Z</time>
      </trkpt>
      <trkpt lat="44.70812" lon="3.26947">
        <ele>1056.63</ele>
        <time>2012-05-14T06:36:47Z</time>
      </trkpt>
      <trkpt lat="44.70792" lon="3.26941">
        <ele>1055.18</ele>
        <time>2012-05-14T06:37:03Z</time>
      </trkpt>
      <trkpt lat="44.70774" lon="3.26937">
        <ele>1054.22</ele>
        <time>2012-05-14T06:37:18Z</time>
      </trkpt>
      <trkpt lat="44.70753" lon="3.26931">
        <ele>1051.34</ele>
        <time>2012-05-14T06:37:35Z</time>
      </trkpt>
      <trkpt lat="44.70733" lon="3.26926">
        <ele>1051.34</ele>
        <time>2012-05-14T06:37:51Z</time>
      </trkpt>
      <trkpt lat="44.70713" lon="3.26922">
        <ele>1050.38</ele>
        <time>2012-05-14T06:38:08Z</time>
      </trkpt>
      <trkpt lat="44.70708" lon="3.26922">
        <ele>1049.9</ele>
        <time>2012-05-14T06:38:13Z</time>
      </trkpt>
      <trkpt lat="44.70686" lon="3.26916">
        <ele>1048.94</ele>
        <time>2012-05-14T06:38:31Z</time>
      </trkpt>
      <trkpt lat="44.70668" lon="3.26911">
        <ele>1047.97</ele>
        <time>2012-05-14T06:38:46Z</time>
      </trkpt>
      <trkpt lat="44.70646" lon="3.269">
        <ele>1047.49</ele>
        <time>2012-05-14T06:39:05Z</time>
      </trkpt>
      <trkpt lat="44.70636" lon="3.26895">
        <ele>1047.01</ele>
        <time>2012-05-14T06:39:15Z</time>
      </trkpt>
      <trkpt lat="44.70618" lon="3.26885">
        <ele>1046.53</ele>
        <time>2012-05-14T06:39:31Z</time>
      </trkpt>
      <trkpt lat="44.70598" lon="3.26872">
        <ele>1047.01</ele>
        <time>2012-05-14T06:39:47Z</time>
      </trkpt>
      <trkpt lat="44.70579" lon="3.26861">
        <ele>1047.01</ele>
        <time>2012-05-14T06:40:04Z</time>
      </trkpt>
      <trkpt lat="44.70556" lon="3.26844">
        <ele>1047.01</ele>
        <time>2012-05-14T06:40:25Z</time>
      </trkpt>
      <trkpt lat="44.70537" lon="3.26835">
        <ele>1046.05</ele>
        <time>2012-05-14T06:40:42Z</time>
      </trkpt>
      <trkpt lat="44.70515" lon="3.2683">
        <ele>1046.05</ele>
        <time>2012-05-14T06:40:59Z</time>
      </trkpt>
      <trkpt lat="44.70491" lon="3.26829">
        <ele>1044.61</ele>
        <time>2012-05-14T06:41:17Z</time>
      </trkpt>
      <trkpt lat="44.7047" lon="3.26828">
        <ele>1043.65</ele>
        <time>2012-05-14T06:41:33Z</time>
      </trkpt>
      <trkpt lat="44.70457" lon="3.26827">
        <ele>1043.17</ele>
        <time>2012-05-14T06:41:43Z</time>
      </trkpt>
      <trkpt lat="44.70452" lon="3.26831">
        <ele>1042.69</ele>
        <time>2012-05-14T06:41:48Z</time>
      </trkpt>
      <trkpt lat="44.70444" lon="3.26834">
        <ele>1044.13</ele>
        <time>2012-05-14T06:41:55Z</time>
      </trkpt>
      <trkpt lat="44.70428" lon="3.2684">
        <ele>1048.45</ele>
        <time>2012-05-14T06:42:09Z</time>
      </trkpt>
      <trkpt lat="44.70408" lon="3.26844">
        <ele>1049.42</ele>
        <time>2012-05-14T06:42:27Z</time>
      </trkpt>
      <trkpt lat="44.7039" lon="3.26843">
        <ele>1048.94</ele>
        <time>2012-05-14T06:42:42Z</time>
      </trkpt>
      <trkpt lat="44.70368" lon="3.26842">
        <ele>1047.49</ele>
        <time>2012-05-14T06:42:59Z</time>
      </trkpt>
      <trkpt lat="44.70347" lon="3.26838">
        <ele>1046.05</ele>
        <time>2012-05-14T06:43:16Z</time>
      </trkpt>
      <trkpt lat="44.70327" lon="3.26834">
        <ele>1043.65</ele>
        <time>2012-05-14T06:43:31Z</time>
      </trkpt>
      <trkpt lat="44.70307" lon="3.2683">
        <ele>1042.69</ele>
        <time>2012-05-14T06:43:46Z</time>
      </trkpt>
      <trkpt lat="44.70285" lon="3.26829">
        <ele>1040.28</ele>
        <time>2012-05-14T06:44:04Z</time>
      </trkpt>
      <trkpt lat="44.70275" lon="3.26829">
        <ele>1040.76</ele>
        <time>2012-05-14T06:44:12Z</time>
      </trkpt>
      <trkpt lat="44.70268" lon="3.26828">
        <ele>1041.25</ele>
        <time>2012-05-14T06:44:18Z</time>
      </trkpt>
      <trkpt lat="44.70246" lon="3.26825">
        <ele>1041.73</ele>
        <time>2012-05-14T06:44:37Z</time>
      </trkpt>
      <trkpt lat="44.70228" lon="3.2682">
        <ele>1041.25</ele>
        <time>2012-05-14T06:44:51Z</time>
      </trkpt>
      <trkpt lat="44.70205" lon="3.26814">
        <ele>1040.76</ele>
        <time>2012-05-14T06:45:10Z</time>
      </trkpt>
      <trkpt lat="44.70183" lon="3.26809">
        <ele>1041.25</ele>
        <time>2012-05-14T06:45:29Z</time>
      </trkpt>
      <trkpt lat="44.70158" lon="3.26803">
        <ele>1041.73</ele>
        <time>2012-05-14T06:45:49Z</time>
      </trkpt>
      <trkpt lat="44.70136" lon="3.26798">
        <ele>1040.76</ele>
        <time>2012-05-14T06:46:07Z</time>
      </trkpt>
      <trkpt lat="44.70122" lon="3.26778">
        <ele>1040.76</ele>
        <time>2012-05-14T06:46:24Z</time>
      </trkpt>
      <trkpt lat="44.70116" lon="3.26751">
        <ele>1041.73</ele>
        <time>2012-05-14T06:46:40Z</time>
      </trkpt>
      <trkpt lat="44.70106" lon="3.26727">
        <ele>1041.73</ele>
        <time>2012-05-14T06:46:56Z</time>
      </trkpt>
      <trkpt lat="44.70091" lon="3.26703">
        <ele>1041.73</ele>
        <time>2012-05-14T06:47:14Z</time>
      </trkpt>
      <trkpt lat="44.70077" lon="3.2668">
        <ele>1039.32</ele>
        <time>2012-05-14T06:47:31Z</time>
      </trkpt>
      <trkpt lat="44.70062" lon="3.26657">
        <ele>1037.88</ele>
        <time>2012-05-14T06:47:49Z</time>
      </trkpt>
      <trkpt lat="44.7005" lon="3.26633">
        <ele>1036.92</ele>
        <time>2012-05-14T06:48:06Z</time>
      </trkpt>
      <trkpt lat="44.70041" lon="3.26611">
        <ele>1035.48</ele>
        <time>2012-05-14T06:48:21Z</time>
      </trkpt>
      <trkpt lat="44.70033" lon="3.26591">
        <ele>1034.04</ele>
        <time>2012-05-14T06:48:35Z</time>
      </trkpt>
      <trkpt lat="44.70028" lon="3.26579">
        <ele>1033.07</ele>
        <time>2012-05-14T06:48:46Z</time>
      </trkpt>
      <trkpt lat="44.70017" lon="3.26553">
        <ele>1031.15</ele>
        <time>2012-05-14T06:49:03Z</time>
      </trkpt>
      <trkpt lat="44.70006" lon="3.26525">
        <ele>1030.19</ele>
        <time>2012-05-14T06:49:21Z</time>
      </trkpt>
      <trkpt lat="44.69995" lon="3.265">
        <ele>1029.71</ele>
        <time>2012-05-14T06:49:38Z</time>
      </trkpt>
      <trkpt lat="44.69984" lon="3.26474">
        <ele>1028.27</ele>
        <time>2012-05-14T06:49:55Z</time>
      </trkpt>
      <trkpt lat="44.69973" lon="3.26447">
        <ele>1026.34</ele>
        <time>2012-05-14T06:50:13Z</time>
      </trkpt>
      <trkpt lat="44.69965" lon="3.26424">
        <ele>1024.9</ele>
        <time>2012-05-14T06:50:28Z</time>
      </trkpt>
      <trkpt lat="44.69957" lon="3.26396">
        <ele>1023.94</ele>
        <time>2012-05-14T06:50:45Z</time>
      </trkpt>
      <trkpt lat="44.69948" lon="3.26376">
        <ele>1023.46</ele>
        <time>2012-05-14T06:50:59Z</time>
      </trkpt>
      <trkpt lat="44.69937" lon="3.2635">
        <ele>1021.54</ele>
        <time>2012-05-14T06:51:16Z</time>
      </trkpt>
      <trkpt lat="44.69927" lon="3.26329">
        <ele>1020.1</ele>
        <time>2012-05-14T06:51:32Z</time>
      </trkpt>
      <trkpt lat="44.69908" lon="3.26304">
        <ele>1019.13</ele>
        <time>2012-05-14T06:51:52Z</time>
      </trkpt>
      <trkpt lat="44.69886" lon="3.26283">
        <ele>1018.65</ele>
        <time>2012-05-14T06:52:13Z</time>
      </trkpt>
      <trkpt lat="44.69866" lon="3.26266">
        <ele>1017.69</ele>
        <time>2012-05-14T06:52:32Z</time>
      </trkpt>
      <trkpt lat="44.69863" lon="3.2626">
        <ele>1017.21</ele>
        <time>2012-05-14T06:52:37Z</time>
      </trkpt>
      <trkpt lat="44.6987" lon="3.26251">
        <ele>1016.73</ele>
        <time>2012-05-14T06:52:46Z</time>
      </trkpt>
      <trkpt lat="44.69894" lon="3.26245">
        <ele>1015.77</ele>
        <time>2012-05-14T06:53:05Z</time>
      </trkpt>
      <trkpt lat="44.69918" lon="3.26233">
        <ele>1016.25</ele>
        <time>2012-05-14T06:53:25Z</time>
      </trkpt>
      <trkpt lat="44.6994" lon="3.26219">
        <ele>1015.77</ele>
        <time>2012-05-14T06:53:44Z</time>
      </trkpt>
      <trkpt lat="44.69963" lon="3.26206">
        <ele>1015.77</ele>
        <time>2012-05-14T06:54:04Z</time>
      </trkpt>
      <trkpt lat="44.69979" lon="3.26185">
        <ele>1015.77</ele>
        <time>2012-05-14T06:54:22Z</time>
      </trkpt>
      <trkpt lat="44.69988" lon="3.26169">
        <ele>1016.73</ele>
        <time>2012-05-14T06:54:39Z</time>
      </trkpt>
      <trkpt lat="44.69988" lon="3.26171">
        <ele>1016.73</ele>
        <time>2012-05-14T06:54:55Z</time>
      </trkpt>
      <trkpt lat="44.69988" lon="3.26171">
        <ele>1016.73</ele>
        <time>2012-05-14T06:55:28Z</time>
      </trkpt>
      <trkpt lat="44.69988" lon="3.26171">
        <ele>1016.73</ele>
        <time>2012-05-14T06:56:05Z</time>
      </trkpt>
      <trkpt lat="44.69988" lon="3.26171">
        <ele>1016.73</ele>
        <time>2012-05-14T06:56:44Z</time>
      </trkpt>
      <trkpt lat="44.69988" lon="3.2617">
        <ele>1016.73</ele>
        <time>2012-05-14T06:57:30Z</time>
      </trkpt>
      <trkpt lat="44.69988" lon="3.2617">
        <ele>1016.73</ele>
        <time>2012-05-14T06:57:56Z</time>
      </trkpt>
      <trkpt lat="44.69988" lon="3.26171">
        <ele>1016.73</ele>
        <time>2012-05-14T06:58:21Z</time>
      </trkpt>
      <trkpt lat="44.69988" lon="3.26171">
        <ele>1016.73</ele>
        <time>2012-05-14T06:58:40Z</time>
      </trkpt>
      <trkpt lat="44.69988" lon="3.26171">
        <ele>1017.21</ele>
        <time>2012-05-14T06:59:00Z</time>
      </trkpt>
      <trkpt lat="44.69989" lon="3.2617">
        <ele>1017.21</ele>
        <time>2012-05-14T06:59:22Z</time>
      </trkpt>
      <trkpt lat="44.6999" lon="3.26162">
        <ele>1017.21</ele>
        <time>2012-05-14T06:59:27Z</time>
      </trkpt>
      <trkpt lat="44.69996" lon="3.26133">
        <ele>1016.73</ele>
        <time>2012-05-14T06:59:45Z</time>
      </trkpt>
      <trkpt lat="44.69995" lon="3.26106">
        <ele>1017.69</ele>
        <time>2012-05-14T07:00:01Z</time>
      </trkpt>
      <trkpt lat="44.69992" lon="3.26078">
        <ele>1017.21</ele>
        <time>2012-05-14T07:00:17Z</time>
      </trkpt>
      <trkpt lat="44.69993" lon="3.26048">
        <ele>1018.17</ele>
        <time>2012-05-14T07:00:35Z</time>
      </trkpt>
      <trkpt lat="44.7" lon="3.26018">
        <ele>1019.13</ele>
        <time>2012-05-14T07:00:53Z</time>
      </trkpt>
      <trkpt lat="44.7001" lon="3.25993">
        <ele>1019.62</ele>
        <time>2012-05-14T07:01:10Z</time>
      </trkpt>
      <trkpt lat="44.7002" lon="3.25965">
        <ele>1019.62</ele>
        <time>2012-05-14T07:01:27Z</time>
      </trkpt>
      <trkpt lat="44.70027" lon="3.25941">
        <ele>1021.54</ele>
        <time>2012-05-14T07:01:42Z</time>
      </trkpt>
      <trkpt lat="44.70034" lon="3.25911">
        <ele>1021.06</ele>
        <time>2012-05-14T07:02:00Z</time>
      </trkpt>
      <trkpt lat="44.70038" lon="3.25881">
        <ele>1022.02</ele>
        <time>2012-05-14T07:02:17Z</time>
      </trkpt>
      <trkpt lat="44.70042" lon="3.25852">
        <ele>1024.9</ele>
        <time>2012-05-14T07:02:35Z</time>
      </trkpt>
      <trkpt lat="44.70045" lon="3.25826">
        <ele>1027.79</ele>
        <time>2012-05-14T07:02:51Z</time>
      </trkpt>
      <trkpt lat="44.70051" lon="3.25795">
        <ele>1028.27</ele>
        <time>2012-05-14T07:03:11Z</time>
      </trkpt>
      <trkpt lat="44.7006" lon="3.25762">
        <ele>1027.31</ele>
        <time>2012-05-14T07:03:32Z</time>
      </trkpt>
      <trkpt lat="44.7007" lon="3.25732">
        <ele>1027.79</ele>
        <time>2012-05-14T07:03:51Z</time>
      </trkpt>
      <trkpt lat="44.70083" lon="3.257">
        <ele>1027.31</ele>
        <time>2012-05-14T07:04:12Z</time>
      </trkpt>
      <trkpt lat="44.70094" lon="3.25672">
        <ele>1026.83</ele>
        <time>2012-05-14T07:04:32Z</time>
      </trkpt>
      <trkpt lat="44.70098" lon="3.25661">
        <ele>1026.83</ele>
        <time>2012-05-14T07:04:46Z</time>
      </trkpt>
      <trkpt lat="44.70112" lon="3.25635">
        <ele>1027.31</ele>
        <time>2012-05-14T07:05:04Z</time>
      </trkpt>
      <trkpt lat="44.70125" lon="3.2561">
        <ele>1027.79</ele>
        <time>2012-05-14T07:05:22Z</time>
      </trkpt>
      <trkpt lat="44.70139" lon="3.25586">
        <ele>1028.75</ele>
        <time>2012-05-14T07:05:40Z</time>
      </trkpt>
      <trkpt lat="44.70154" lon="3.25564">
        <ele>1030.19</ele>
        <time>2012-05-14T07:05:57Z</time>
      </trkpt>
      <trkpt lat="44.7017" lon="3.25543">
        <ele>1029.71</ele>
        <time>2012-05-14T07:06:15Z</time>
      </trkpt>
      <trkpt lat="44.70184" lon="3.25526">
        <ele>1030.67</ele>
        <time>2012-05-14T07:06:31Z</time>
      </trkpt>
      <trkpt lat="44.70197" lon="3.25509">
        <ele>1032.11</ele>
        <time>2012-05-14T07:06:47Z</time>
      </trkpt>
      <trkpt lat="44.7021" lon="3.25494">
        <ele>1032.59</ele>
        <time>2012-05-14T07:07:02Z</time>
      </trkpt>
      <trkpt lat="44.70226" lon="3.25483">
        <ele>1033.07</ele>
        <time>2012-05-14T07:07:18Z</time>
      </trkpt>
      <trkpt lat="44.70244" lon="3.2547">
        <ele>1035</ele>
        <time>2012-05-14T07:07:35Z</time>
      </trkpt>
      <trkpt lat="44.70257" lon="3.25455">
        <ele>1035.48</ele>
        <time>2012-05-14T07:07:51Z</time>
      </trkpt>
      <trkpt lat="44.70265" lon="3.25439">
        <ele>1037.88</ele>
        <time>2012-05-14T07:08:05Z</time>
      </trkpt>
      <trkpt lat="44.70268" lon="3.25421">
        <ele>1040.28</ele>
        <time>2012-05-14T07:08:20Z</time>
      </trkpt>
      <trkpt lat="44.70267" lon="3.254">
        <ele>1041.73</ele>
        <time>2012-05-14T07:08:34Z</time>
      </trkpt>
      <trkpt lat="44.70266" lon="3.25377">
        <ele>1042.69</ele>
        <time>2012-05-14T07:08:49Z</time>
      </trkpt>
      <trkpt lat="44.70266" lon="3.25373">
        <ele>1043.17</ele>
        <time>2012-05-14T07:09:04Z</time>
      </trkpt>
      <trkpt lat="44.70272" lon="3.2537">
        <ele>1042.69</ele>
        <time>2012-05-14T07:09:16Z</time>
      </trkpt>
      <trkpt lat="44.70277" lon="3.2537">
        <ele>1043.65</ele>
        <time>2012-05-14T07:09:31Z</time>
      </trkpt>
      <trkpt lat="44.70287" lon="3.25368">
        <ele>1043.65</ele>
        <time>2012-05-14T07:09:48Z</time>
      </trkpt>
      <trkpt lat="44.70297" lon="3.25368">
        <ele>1043.65</ele>
        <time>2012-05-14T07:09:59Z</time>
      </trkpt>
      <trkpt lat="44.70305" lon="3.25368">
        <ele>1044.13</ele>
        <time>2012-05-14T07:10:07Z</time>
      </trkpt>
      <trkpt lat="44.70313" lon="3.25364">
        <ele>1045.09</ele>
        <time>2012-05-14T07:10:23Z</time>
      </trkpt>
      <trkpt lat="44.70315" lon="3.25361">
        <ele>1045.09</ele>
        <time>2012-05-14T07:10:50Z</time>
      </trkpt>
      <trkpt lat="44.70319" lon="3.25357">
        <ele>1045.09</ele>
        <time>2012-05-14T07:10:56Z</time>
      </trkpt>
      <trkpt lat="44.70319" lon="3.25341">
        <ele>1046.53</ele>
        <time>2012-05-14T07:11:07Z</time>
      </trkpt>
      <trkpt lat="44.70317" lon="3.25335">
        <ele>1047.01</ele>
        <time>2012-05-14T07:11:12Z</time>
      </trkpt>
      <trkpt lat="44.70313" lon="3.25324">
        <ele>1047.01</ele>
        <time>2012-05-14T07:11:26Z</time>
      </trkpt>
      <trkpt lat="44.70313" lon="3.25322">
        <ele>1046.53</ele>
        <time>2012-05-14T07:11:39Z</time>
      </trkpt>
      <trkpt lat="44.70315" lon="3.25311">
        <ele>1047.01</ele>
        <time>2012-05-14T07:11:53Z</time>
      </trkpt>
      <trkpt lat="44.70315" lon="3.25311">
        <ele>1047.01</ele>
        <time>2012-05-14T07:12:09Z</time>
      </trkpt>
      <trkpt lat="44.70307" lon="3.25312">
        <ele>1047.49</ele>
        <time>2012-05-14T07:12:19Z</time>
      </trkpt>
      <trkpt lat="44.70305" lon="3.25312">
        <ele>1047.49</ele>
        <time>2012-05-14T07:12:21Z</time>
      </trkpt>
      <trkpt lat="44.70292" lon="3.25309">
        <ele>1045.57</ele>
        <time>2012-05-14T07:12:34Z</time>
      </trkpt>
      <trkpt lat="44.70288" lon="3.25322">
        <ele>1046.53</ele>
        <time>2012-05-14T07:12:54Z</time>
      </trkpt>
      <trkpt lat="44.70288" lon="3.25322">
        <ele>1046.53</ele>
        <time>2012-05-14T07:13:23Z</time>
      </trkpt>
      <trkpt lat="44.70293" lon="3.25324">
        <ele>1046.53</ele>
        <time>2012-05-14T07:13:35Z</time>
      </trkpt>
      <trkpt lat="44.70291" lon="3.25328">
        <ele>1045.09</ele>
        <time>2012-05-14T07:13:51Z</time>
      </trkpt>
      <trkpt lat="44.70295" lon="3.25328">
        <ele>1045.09</ele>
        <time>2012-05-14T07:14:05Z</time>
      </trkpt>
      <trkpt lat="44.70298" lon="3.25336">
        <ele>1044.13</ele>
        <time>2012-05-14T07:14:19Z</time>
      </trkpt>
      <trkpt lat="44.70298" lon="3.25336">
        <ele>1044.13</ele>
        <time>2012-05-14T07:14:47Z</time>
      </trkpt>
      <trkpt lat="44.70298" lon="3.25348">
        <ele>1044.13</ele>
        <time>2012-05-14T07:15:00Z</time>
      </trkpt>
      <trkpt lat="44.70294" lon="3.25357">
        <ele>1044.13</ele>
        <time>2012-05-14T07:15:12Z</time>
      </trkpt>
      <trkpt lat="44.70294" lon="3.25359">
        <ele>1043.17</ele>
        <time>2012-05-14T07:15:25Z</time>
      </trkpt>
      <trkpt lat="44.70294" lon="3.25356">
        <ele>1043.65</ele>
        <time>2012-05-14T07:15:59Z</time>
      </trkpt>
      <trkpt lat="44.70296" lon="3.25354">
        <ele>1043.65</ele>
        <time>2012-05-14T07:16:01Z</time>
      </trkpt>
      <trkpt lat="44.70298" lon="3.25353">
        <ele>1043.65</ele>
        <time>2012-05-14T07:16:03Z</time>
      </trkpt>
      <trkpt lat="44.703" lon="3.25338">
        <ele>1044.61</ele>
        <time>2012-05-14T07:16:19Z</time>
      </trkpt>
      <trkpt lat="44.70299" lon="3.25337">
        <ele>1044.13</ele>
        <time>2012-05-14T07:16:34Z</time>
      </trkpt>
      <trkpt lat="44.70304" lon="3.25342">
        <ele>1045.09</ele>
        <time>2012-05-14T07:16:51Z</time>
      </trkpt>
      <trkpt lat="44.70305" lon="3.25344">
        <ele>1045.09</ele>
        <time>2012-05-14T07:16:56Z</time>
      </trkpt>
      <trkpt lat="44.70292" lon="3.25327">
        <ele>1046.05</ele>
        <time>2012-05-14T07:17:49Z</time>
      </trkpt>
      <trkpt lat="44.70296" lon="3.25323">
        <ele>1043.17</ele>
        <time>2012-05-14T07:18:02Z</time>
      </trkpt>
      <trkpt lat="44.70294" lon="3.25319">
        <ele>1044.61</ele>
        <time>2012-05-14T07:18:06Z</time>
      </trkpt>
      <trkpt lat="44.7029" lon="3.2531">
        <ele>1044.61</ele>
        <time>2012-05-14T07:18:22Z</time>
      </trkpt>
      <trkpt lat="44.70294" lon="3.25301">
        <ele>1044.61</ele>
        <time>2012-05-14T07:18:35Z</time>
      </trkpt>
      <trkpt lat="44.70286" lon="3.25301">
        <ele>1046.05</ele>
        <time>2012-05-14T07:18:48Z</time>
      </trkpt>
      <trkpt lat="44.70286" lon="3.253">
        <ele>1046.05</ele>
        <time>2012-05-14T07:18:49Z</time>
      </trkpt>
      <trkpt lat="44.70292" lon="3.25278">
        <ele>1045.09</ele>
        <time>2012-05-14T07:19:06Z</time>
      </trkpt>
      <trkpt lat="44.70307" lon="3.25271">
        <ele>1045.09</ele>
        <time>2012-05-14T07:19:22Z</time>
      </trkpt>
      <trkpt lat="44.70311" lon="3.25271">
        <ele>1046.05</ele>
        <time>2012-05-14T07:19:27Z</time>
      </trkpt>
      <trkpt lat="44.70325" lon="3.25276">
        <ele>1048.45</ele>
        <time>2012-05-14T07:19:44Z</time>
      </trkpt>
      <trkpt lat="44.7033" lon="3.25277">
        <ele>1047.97</ele>
        <time>2012-05-14T07:19:59Z</time>
      </trkpt>
      <trkpt lat="44.70338" lon="3.25283">
        <ele>1047.97</ele>
        <time>2012-05-14T07:20:21Z</time>
      </trkpt>
      <trkpt lat="44.70356" lon="3.25288">
        <ele>1048.45</ele>
        <time>2012-05-14T07:20:36Z</time>
      </trkpt>
      <trkpt lat="44.70375" lon="3.25288">
        <ele>1046.53</ele>
        <time>2012-05-14T07:20:53Z</time>
      </trkpt>
      <trkpt lat="44.70377" lon="3.25287">
        <ele>1046.53</ele>
        <time>2012-05-14T07:20:56Z</time>
      </trkpt>
      <trkpt lat="44.70396" lon="3.25271">
        <ele>1046.53</ele>
        <time>2012-05-14T07:21:14Z</time>
      </trkpt>
      <trkpt lat="44.70414" lon="3.25262">
        <ele>1046.53</ele>
        <time>2012-05-14T07:21:30Z</time>
      </trkpt>
      <trkpt lat="44.70431" lon="3.2525">
        <ele>1044.61</ele>
        <time>2012-05-14T07:21:46Z</time>
      </trkpt>
      <trkpt lat="44.70433" lon="3.2525">
        <ele>1044.13</ele>
        <time>2012-05-14T07:22:03Z</time>
      </trkpt>
      <trkpt lat="44.70439" lon="3.25244">
        <ele>1044.61</ele>
        <time>2012-05-14T07:22:24Z</time>
      </trkpt>
      <trkpt lat="44.70456" lon="3.25224">
        <ele>1043.65</ele>
        <time>2012-05-14T07:22:41Z</time>
      </trkpt>
      <trkpt lat="44.70465" lon="3.25217">
        <ele>1044.61</ele>
        <time>2012-05-14T07:22:50Z</time>
      </trkpt>
      <trkpt lat="44.70479" lon="3.25209">
        <ele>1043.65</ele>
        <time>2012-05-14T07:23:04Z</time>
      </trkpt>
      <trkpt lat="44.70488" lon="3.25206">
        <ele>1043.65</ele>
        <time>2012-05-14T07:23:19Z</time>
      </trkpt>
      <trkpt lat="44.70507" lon="3.25196">
        <ele>1044.61</ele>
        <time>2012-05-14T07:23:35Z</time>
      </trkpt>
      <trkpt lat="44.70526" lon="3.25178">
        <ele>1046.05</ele>
        <time>2012-05-14T07:23:54Z</time>
      </trkpt>
      <trkpt lat="44.70543" lon="3.25158">
        <ele>1047.49</ele>
        <time>2012-05-14T07:24:12Z</time>
      </trkpt>
      <trkpt lat="44.70557" lon="3.25137">
        <ele>1047.01</ele>
        <time>2012-05-14T07:24:29Z</time>
      </trkpt>
      <trkpt lat="44.70573" lon="3.25116">
        <ele>1047.49</ele>
        <time>2012-05-14T07:24:47Z</time>
      </trkpt>
      <trkpt lat="44.70585" lon="3.25098">
        <ele>1048.94</ele>
        <time>2012-05-14T07:25:03Z</time>
      </trkpt>
      <trkpt lat="44.70602" lon="3.25079">
        <ele>1051.82</ele>
        <time>2012-05-14T07:25:21Z</time>
      </trkpt>
      <trkpt lat="44.70618" lon="3.25062">
        <ele>1053.26</ele>
        <time>2012-05-14T07:25:37Z</time>
      </trkpt>
      <trkpt lat="44.70633" lon="3.25044">
        <ele>1052.78</ele>
        <time>2012-05-14T07:25:53Z</time>
      </trkpt>
      <trkpt lat="44.70651" lon="3.25025">
        <ele>1054.22</ele>
        <time>2012-05-14T07:26:12Z</time>
      </trkpt>
      <trkpt lat="44.70656" lon="3.25018">
        <ele>1054.7</ele>
        <time>2012-05-14T07:26:18Z</time>
      </trkpt>
      <trkpt lat="44.70677" lon="3.24995">
        <ele>1056.63</ele>
        <time>2012-05-14T07:26:41Z</time>
      </trkpt>
      <trkpt lat="44.70692" lon="3.24973">
        <ele>1058.55</ele>
        <time>2012-05-14T07:26:59Z</time>
      </trkpt>
      <trkpt lat="44.70709" lon="3.24949">
        <ele>1060.47</ele>
        <time>2012-05-14T07:27:18Z</time>
      </trkpt>
      <trkpt lat="44.70726" lon="3.24921">
        <ele>1061.43</ele>
        <time>2012-05-14T07:27:39Z</time>
      </trkpt>
      <trkpt lat="44.70741" lon="3.24896">
        <ele>1061.43</ele>
        <time>2012-05-14T07:27:57Z</time>
      </trkpt>
      <trkpt lat="44.70755" lon="3.2487">
        <ele>1063.36</ele>
        <time>2012-05-14T07:28:16Z</time>
      </trkpt>
      <trkpt lat="44.70768" lon="3.24847">
        <ele>1063.84</ele>
        <time>2012-05-14T07:28:35Z</time>
      </trkpt>
      <trkpt lat="44.70774" lon="3.24833">
        <ele>1064.32</ele>
        <time>2012-05-14T07:28:46Z</time>
      </trkpt>
      <trkpt lat="44.7078" lon="3.24824">
        <ele>1064.8</ele>
        <time>2012-05-14T07:28:53Z</time>
      </trkpt>
      <trkpt lat="44.70794" lon="3.24798">
        <ele>1066.24</ele>
        <time>2012-05-14T07:29:13Z</time>
      </trkpt>
      <trkpt lat="44.70808" lon="3.24773">
        <ele>1067.68</ele>
        <time>2012-05-14T07:29:32Z</time>
      </trkpt>
      <trkpt lat="44.70816" lon="3.24761">
        <ele>1068.16</ele>
        <time>2012-05-14T07:29:47Z</time>
      </trkpt>
      <trkpt lat="44.70818" lon="3.24757">
        <ele>1068.16</ele>
        <time>2012-05-14T07:29:58Z</time>
      </trkpt>
      <trkpt lat="44.70828" lon="3.24739">
        <ele>1067.68</ele>
        <time>2012-05-14T07:30:12Z</time>
      </trkpt>
      <trkpt lat="44.70847" lon="3.24712">
        <ele>1066.24</ele>
        <time>2012-05-14T07:30:33Z</time>
      </trkpt>
      <trkpt lat="44.70867" lon="3.24688">
        <ele>1065.76</ele>
        <time>2012-05-14T07:30:53Z</time>
      </trkpt>
      <trkpt lat="44.70886" lon="3.24666">
        <ele>1064.8</ele>
        <time>2012-05-14T07:31:12Z</time>
      </trkpt>
      <trkpt lat="44.70894" lon="3.24655">
        <ele>1064.32</ele>
        <time>2012-05-14T07:31:27Z</time>
      </trkpt>
      <trkpt lat="44.70894" lon="3.24655">
        <ele>1064.32</ele>
        <time>2012-05-14T07:31:45Z</time>
      </trkpt>
      <trkpt lat="44.70893" lon="3.24655">
        <ele>1064.32</ele>
        <time>2012-05-14T07:32:13Z</time>
      </trkpt>
      <trkpt lat="44.70893" lon="3.24654">
        <ele>1064.32</ele>
        <time>2012-05-14T07:32:47Z</time>
      </trkpt>
      <trkpt lat="44.70893" lon="3.24654">
        <ele>1064.32</ele>
        <time>2012-05-14T07:33:18Z</time>
      </trkpt>
      <trkpt lat="44.70892" lon="3.24654">
        <ele>1064.32</ele>
        <time>2012-05-14T07:33:46Z</time>
      </trkpt>
      <trkpt lat="44.70892" lon="3.24654">
        <ele>1064.8</ele>
        <time>2012-05-14T07:34:13Z</time>
      </trkpt>
      <trkpt lat="44.70892" lon="3.24654">
        <ele>1064.8</ele>
        <time>2012-05-14T07:34:38Z</time>
      </trkpt>
      <trkpt lat="44.70891" lon="3.24654">
        <ele>1064.8</ele>
        <time>2012-05-14T07:35:07Z</time>
      </trkpt>
      <trkpt lat="44.70892" lon="3.24654">
        <ele>1064.8</ele>
        <time>2012-05-14T07:35:39Z</time>
      </trkpt>
      <trkpt lat="44.70892" lon="3.24654">
        <ele>1064.32</ele>
        <time>2012-05-14T07:36:04Z</time>
      </trkpt>
      <trkpt lat="44.70893" lon="3.24655">
        <ele>1064.32</ele>
        <time>2012-05-14T07:36:32Z</time>
      </trkpt>
      <trkpt lat="44.70893" lon="3.24654">
        <ele>1064.32</ele>
        <time>2012-05-14T07:36:48Z</time>
      </trkpt>
      <trkpt lat="44.70893" lon="3.24654">
        <ele>1064.32</ele>
        <time>2012-05-14T07:37:12Z</time>
      </trkpt>
      <trkpt lat="44.70893" lon="3.24654">
        <ele>1064.32</ele>
        <time>2012-05-14T07:37:28Z</time>
      </trkpt>
      <trkpt lat="44.70901" lon="3.24649">
        <ele>1065.28</ele>
        <time>2012-05-14T07:37:43Z</time>
      </trkpt>
      <trkpt lat="44.70921" lon="3.24634">
        <ele>1065.28</ele>
        <time>2012-05-14T07:38:02Z</time>
      </trkpt>
      <trkpt lat="44.70942" lon="3.24617">
        <ele>1064.32</ele>
        <time>2012-05-14T07:38:21Z</time>
      </trkpt>
      <trkpt lat="44.70959" lon="3.24601">
        <ele>1063.84</ele>
        <time>2012-05-14T07:38:38Z</time>
      </trkpt>
      <trkpt lat="44.70978" lon="3.24579">
        <ele>1063.36</ele>
        <time>2012-05-14T07:38:57Z</time>
      </trkpt>
      <trkpt lat="44.70994" lon="3.24557">
        <ele>1062.87</ele>
        <time>2012-05-14T07:39:16Z</time>
      </trkpt>
      <trkpt lat="44.71009" lon="3.24532">
        <ele>1063.36</ele>
        <time>2012-05-14T07:39:34Z</time>
      </trkpt>
      <trkpt lat="44.71023" lon="3.2451">
        <ele>1063.36</ele>
        <time>2012-05-14T07:39:51Z</time>
      </trkpt>
      <trkpt lat="44.71038" lon="3.24492">
        <ele>1063.36</ele>
        <time>2012-05-14T07:40:08Z</time>
      </trkpt>
      <trkpt lat="44.71052" lon="3.24484">
        <ele>1064.32</ele>
        <time>2012-05-14T07:40:22Z</time>
      </trkpt>
      <trkpt lat="44.71053" lon="3.24485">
        <ele>1064.32</ele>
        <time>2012-05-14T07:40:24Z</time>
      </trkpt>
      <trkpt lat="44.71054" lon="3.24489">
        <ele>1064.32</ele>
        <time>2012-05-14T07:40:43Z</time>
      </trkpt>
      <trkpt lat="44.71054" lon="3.2449">
        <ele>1064.32</ele>
        <time>2012-05-14T07:40:59Z</time>
      </trkpt>
      <trkpt lat="44.71054" lon="3.24487">
        <ele>1064.32</ele>
        <time>2012-05-14T07:41:02Z</time>
      </trkpt>
      <trkpt lat="44.71055" lon="3.24477">
        <ele>1064.8</ele>
        <time>2012-05-14T07:41:18Z</time>
      </trkpt>
      <trkpt lat="44.71057" lon="3.24481">
        <ele>1064.8</ele>
        <time>2012-05-14T07:41:47Z</time>
      </trkpt>
      <trkpt lat="44.71063" lon="3.24457">
        <ele>1065.76</ele>
        <time>2012-05-14T07:42:04Z</time>
      </trkpt>
      <trkpt lat="44.71068" lon="3.24439">
        <ele>1066.72</ele>
        <time>2012-05-14T07:42:18Z</time>
      </trkpt>
      <trkpt lat="44.71071" lon="3.2443">
        <ele>1066.72</ele>
        <time>2012-05-14T07:42:31Z</time>
      </trkpt>
      <trkpt lat="44.71074" lon="3.24418">
        <ele>1067.2</ele>
        <time>2012-05-14T07:42:50Z</time>
      </trkpt>
      <trkpt lat="44.7108" lon="3.244">
        <ele>1068.16</ele>
        <time>2012-05-14T07:43:05Z</time>
      </trkpt>
      <trkpt lat="44.71084" lon="3.24379">
        <ele>1068.16</ele>
        <time>2012-05-14T07:43:21Z</time>
      </trkpt>
      <trkpt lat="44.71085" lon="3.24378">
        <ele>1068.16</ele>
        <time>2012-05-14T07:43:47Z</time>
      </trkpt>
      <trkpt lat="44.71088" lon="3.24366">
        <ele>1068.16</ele>
        <time>2012-05-14T07:44:08Z</time>
      </trkpt>
      <trkpt lat="44.71093" lon="3.24342">
        <ele>1068.16</ele>
        <time>2012-05-14T07:44:25Z</time>
      </trkpt>
      <trkpt lat="44.71101" lon="3.24318">
        <ele>1069.6</ele>
        <time>2012-05-14T07:44:41Z</time>
      </trkpt>
      <trkpt lat="44.71109" lon="3.2429">
        <ele>1070.57</ele>
        <time>2012-05-14T07:44:59Z</time>
      </trkpt>
      <trkpt lat="44.71117" lon="3.24265">
        <ele>1071.05</ele>
        <time>2012-05-14T07:45:15Z</time>
      </trkpt>
      <trkpt lat="44.71127" lon="3.24241">
        <ele>1072.01</ele>
        <time>2012-05-14T07:45:32Z</time>
      </trkpt>
      <trkpt lat="44.71135" lon="3.24226">
        <ele>1072.01</ele>
        <time>2012-05-14T07:45:44Z</time>
      </trkpt>
      <trkpt lat="44.71137" lon="3.2422">
        <ele>1072.49</ele>
        <time>2012-05-14T07:46:03Z</time>
      </trkpt>
      <trkpt lat="44.71143" lon="3.24209">
        <ele>1072.49</ele>
        <time>2012-05-14T07:46:20Z</time>
      </trkpt>
      <trkpt lat="44.71155" lon="3.24182">
        <ele>1073.45</ele>
        <time>2012-05-14T07:46:38Z</time>
      </trkpt>
      <trkpt lat="44.71164" lon="3.24152">
        <ele>1074.41</ele>
        <time>2012-05-14T07:46:57Z</time>
      </trkpt>
      <trkpt lat="44.7117" lon="3.24131">
        <ele>1076.81</ele>
        <time>2012-05-14T07:47:11Z</time>
      </trkpt>
      <trkpt lat="44.71176" lon="3.24105">
        <ele>1077.78</ele>
        <time>2012-05-14T07:47:28Z</time>
      </trkpt>
      <trkpt lat="44.71185" lon="3.24077">
        <ele>1079.22</ele>
        <time>2012-05-14T07:47:47Z</time>
      </trkpt>
      <trkpt lat="44.71191" lon="3.24053">
        <ele>1079.7</ele>
        <time>2012-05-14T07:48:03Z</time>
      </trkpt>
      <trkpt lat="44.71197" lon="3.24028">
        <ele>1081.14</ele>
        <time>2012-05-14T07:48:20Z</time>
      </trkpt>
      <trkpt lat="44.71203" lon="3.24004">
        <ele>1081.62</ele>
        <time>2012-05-14T07:48:36Z</time>
      </trkpt>
      <trkpt lat="44.71209" lon="3.23981">
        <ele>1083.06</ele>
        <time>2012-05-14T07:48:51Z</time>
      </trkpt>
      <trkpt lat="44.71216" lon="3.23958">
        <ele>1083.06</ele>
        <time>2012-05-14T07:49:07Z</time>
      </trkpt>
      <trkpt lat="44.71222" lon="3.23935">
        <ele>1084.5</ele>
        <time>2012-05-14T07:49:22Z</time>
      </trkpt>
      <trkpt lat="44.71227" lon="3.2391">
        <ele>1085.47</ele>
        <time>2012-05-14T07:49:38Z</time>
      </trkpt>
      <trkpt lat="44.71233" lon="3.23883">
        <ele>1086.91</ele>
        <time>2012-05-14T07:49:56Z</time>
      </trkpt>
      <trkpt lat="44.7124" lon="3.23856">
        <ele>1087.39</ele>
        <time>2012-05-14T07:50:14Z</time>
      </trkpt>
      <trkpt lat="44.71247" lon="3.2383">
        <ele>1087.87</ele>
        <time>2012-05-14T07:50:30Z</time>
      </trkpt>
      <trkpt lat="44.71255" lon="3.23804">
        <ele>1088.35</ele>
        <time>2012-05-14T07:50:47Z</time>
      </trkpt>
      <trkpt lat="44.71266" lon="3.23783">
        <ele>1088.35</ele>
        <time>2012-05-14T07:51:02Z</time>
      </trkpt>
      <trkpt lat="44.71282" lon="3.23763">
        <ele>1087.39</ele>
        <time>2012-05-14T07:51:20Z</time>
      </trkpt>
      <trkpt lat="44.71298" lon="3.23746">
        <ele>1087.39</ele>
        <time>2012-05-14T07:51:37Z</time>
      </trkpt>
      <trkpt lat="44.71312" lon="3.23726">
        <ele>1088.35</ele>
        <time>2012-05-14T07:51:54Z</time>
      </trkpt>
      <trkpt lat="44.71316" lon="3.23696">
        <ele>1088.83</ele>
        <time>2012-05-14T07:52:11Z</time>
      </trkpt>
      <trkpt lat="44.7131" lon="3.23668">
        <ele>1090.27</ele>
        <time>2012-05-14T07:52:28Z</time>
      </trkpt>
      <trkpt lat="44.713" lon="3.23643">
        <ele>1091.71</ele>
        <time>2012-05-14T07:52:45Z</time>
      </trkpt>
      <trkpt lat="44.71289" lon="3.23617">
        <ele>1092.2</ele>
        <time>2012-05-14T07:53:02Z</time>
      </trkpt>
      <trkpt lat="44.71277" lon="3.23599">
        <ele>1094.12</ele>
        <time>2012-05-14T07:53:16Z</time>
      </trkpt>
      <trkpt lat="44.71272" lon="3.23586">
        <ele>1095.08</ele>
        <time>2012-05-14T07:53:27Z</time>
      </trkpt>
      <trkpt lat="44.71267" lon="3.23572">
        <ele>1096.04</ele>
        <time>2012-05-14T07:53:36Z</time>
      </trkpt>
      <trkpt lat="44.71261" lon="3.23563">
        <ele>1096.04</ele>
        <time>2012-05-14T07:53:40Z</time>
      </trkpt>
      <trkpt lat="44.71254" lon="3.23547">
        <ele>1095.56</ele>
        <time>2012-05-14T07:53:52Z</time>
      </trkpt>
      <trkpt lat="44.71248" lon="3.23524">
        <ele>1092.68</ele>
        <time>2012-05-14T07:54:07Z</time>
      </trkpt>
      <trkpt lat="44.71243" lon="3.23498">
        <ele>1092.68</ele>
        <time>2012-05-14T07:54:23Z</time>
      </trkpt>
      <trkpt lat="44.71239" lon="3.23465">
        <ele>1093.64</ele>
        <time>2012-05-14T07:54:42Z</time>
      </trkpt>
      <trkpt lat="44.71238" lon="3.23438">
        <ele>1094.12</ele>
        <time>2012-05-14T07:54:58Z</time>
      </trkpt>
      <trkpt lat="44.71238" lon="3.23409">
        <ele>1094.6</ele>
        <time>2012-05-14T07:55:14Z</time>
      </trkpt>
      <trkpt lat="44.71237" lon="3.23377">
        <ele>1094.12</ele>
        <time>2012-05-14T07:55:32Z</time>
      </trkpt>
      <trkpt lat="44.7124" lon="3.23343">
        <ele>1093.64</ele>
        <time>2012-05-14T07:55:51Z</time>
      </trkpt>
      <trkpt lat="44.71242" lon="3.2331">
        <ele>1092.2</ele>
        <time>2012-05-14T07:56:09Z</time>
      </trkpt>
      <trkpt lat="44.71245" lon="3.2328">
        <ele>1091.71</ele>
        <time>2012-05-14T07:56:26Z</time>
      </trkpt>
      <trkpt lat="44.71251" lon="3.23249">
        <ele>1091.71</ele>
        <time>2012-05-14T07:56:44Z</time>
      </trkpt>
      <trkpt lat="44.71253" lon="3.23238">
        <ele>1091.23</ele>
        <time>2012-05-14T07:56:50Z</time>
      </trkpt>
      <trkpt lat="44.71253" lon="3.23236">
        <ele>1090.75</ele>
        <time>2012-05-14T07:56:51Z</time>
      </trkpt>
      <trkpt lat="44.71253" lon="3.23234">
        <ele>1090.75</ele>
        <time>2012-05-14T07:56:52Z</time>
      </trkpt>
      <trkpt lat="44.71254" lon="3.2321">
        <ele>1090.75</ele>
        <time>2012-05-14T07:57:07Z</time>
      </trkpt>
      <trkpt lat="44.71251" lon="3.23181">
        <ele>1091.23</ele>
        <time>2012-05-14T07:57:24Z</time>
      </trkpt>
      <trkpt lat="44.71248" lon="3.23166">
        <ele>1093.16</ele>
        <time>2012-05-14T07:57:39Z</time>
      </trkpt>
      <trkpt lat="44.71249" lon="3.23165">
        <ele>1092.68</ele>
        <time>2012-05-14T07:58:01Z</time>
      </trkpt>
      <trkpt lat="44.71249" lon="3.23165">
        <ele>1092.68</ele>
        <time>2012-05-14T07:58:19Z</time>
      </trkpt>
      <trkpt lat="44.71247" lon="3.23163">
        <ele>1092.68</ele>
        <time>2012-05-14T07:58:28Z</time>
      </trkpt>
      <trkpt lat="44.71246" lon="3.23162">
        <ele>1092.68</ele>
        <time>2012-05-14T07:58:29Z</time>
      </trkpt>
      <trkpt lat="44.71245" lon="3.23161">
        <ele>1092.68</ele>
        <time>2012-05-14T07:58:30Z</time>
      </trkpt>
      <trkpt lat="44.71238" lon="3.23143">
        <ele>1091.71</ele>
        <time>2012-05-14T07:58:43Z</time>
      </trkpt>
      <trkpt lat="44.71229" lon="3.23116">
        <ele>1091.71</ele>
        <time>2012-05-14T07:59:00Z</time>
      </trkpt>
      <trkpt lat="44.71228" lon="3.23101">
        <ele>1091.71</ele>
        <time>2012-05-14T07:59:09Z</time>
      </trkpt>
      <trkpt lat="44.71227" lon="3.23094">
        <ele>1091.23</ele>
        <time>2012-05-14T07:59:17Z</time>
      </trkpt>
      <trkpt lat="44.71227" lon="3.23092">
        <ele>1090.75</ele>
        <time>2012-05-14T07:59:18Z</time>
      </trkpt>
      <trkpt lat="44.71219" lon="3.2307">
        <ele>1087.87</ele>
        <time>2012-05-14T07:59:31Z</time>
      </trkpt>
      <trkpt lat="44.71208" lon="3.23044">
        <ele>1083.54</ele>
        <time>2012-05-14T07:59:47Z</time>
      </trkpt>
      <trkpt lat="44.71197" lon="3.23021">
        <ele>1085.95</ele>
        <time>2012-05-14T08:00:03Z</time>
      </trkpt>
      <trkpt lat="44.71187" lon="3.23006">
        <ele>1086.91</ele>
        <time>2012-05-14T08:00:14Z</time>
      </trkpt>
      <trkpt lat="44.71186" lon="3.23004">
        <ele>1086.43</ele>
        <time>2012-05-14T08:00:15Z</time>
      </trkpt>
      <trkpt lat="44.71172" lon="3.2299">
        <ele>1082.1</ele>
        <time>2012-05-14T08:00:30Z</time>
      </trkpt>
      <trkpt lat="44.71166" lon="3.22984">
        <ele>1081.14</ele>
        <time>2012-05-14T08:00:36Z</time>
      </trkpt>
      <trkpt lat="44.71165" lon="3.22983">
        <ele>1081.14</ele>
        <time>2012-05-14T08:00:37Z</time>
      </trkpt>
      <trkpt lat="44.71163" lon="3.22982">
        <ele>1081.62</ele>
        <time>2012-05-14T08:00:38Z</time>
      </trkpt>
      <trkpt lat="44.71162" lon="3.22981">
        <ele>1081.62</ele>
        <time>2012-05-14T08:00:39Z</time>
      </trkpt>
      <trkpt lat="44.71161" lon="3.2298">
        <ele>1081.62</ele>
        <time>2012-05-14T08:00:40Z</time>
      </trkpt>
      <trkpt lat="44.71161" lon="3.22979">
        <ele>1082.1</ele>
        <time>2012-05-14T08:00:41Z</time>
      </trkpt>
      <trkpt lat="44.71156" lon="3.22953">
        <ele>1084.5</ele>
        <time>2012-05-14T08:01:00Z</time>
      </trkpt>
      <trkpt lat="44.71161" lon="3.22935">
        <ele>1081.62</ele>
        <time>2012-05-14T08:01:15Z</time>
      </trkpt>
      <trkpt lat="44.71164" lon="3.2291">
        <ele>1082.1</ele>
        <time>2012-05-14T08:01:31Z</time>
      </trkpt>
      <trkpt lat="44.71165" lon="3.22895">
        <ele>1082.1</ele>
        <time>2012-05-14T08:01:43Z</time>
      </trkpt>
      <trkpt lat="44.71164" lon="3.22892">
        <ele>1082.58</ele>
        <time>2012-05-14T08:01:45Z</time>
      </trkpt>
      <trkpt lat="44.71165" lon="3.22874">
        <ele>1083.06</ele>
        <time>2012-05-14T08:02:00Z</time>
      </trkpt>
      <trkpt lat="44.71165" lon="3.22853">
        <ele>1084.5</ele>
        <time>2012-05-14T08:02:15Z</time>
      </trkpt>
      <trkpt lat="44.71164" lon="3.22848">
        <ele>1084.99</ele>
        <time>2012-05-14T08:02:19Z</time>
      </trkpt>
      <trkpt lat="44.71164" lon="3.22832">
        <ele>1087.39</ele>
        <time>2012-05-14T08:02:34Z</time>
      </trkpt>
      <trkpt lat="44.71163" lon="3.22826">
        <ele>1088.35</ele>
        <time>2012-05-14T08:02:40Z</time>
      </trkpt>
      <trkpt lat="44.7116" lon="3.22811">
        <ele>1090.75</ele>
        <time>2012-05-14T08:02:54Z</time>
      </trkpt>
      <trkpt lat="44.71154" lon="3.22793">
        <ele>1092.2</ele>
        <time>2012-05-14T08:03:09Z</time>
      </trkpt>
      <trkpt lat="44.71147" lon="3.22772">
        <ele>1093.16</ele>
        <time>2012-05-14T08:03:25Z</time>
      </trkpt>
      <trkpt lat="44.7114" lon="3.22747">
        <ele>1093.64</ele>
        <time>2012-05-14T08:03:43Z</time>
      </trkpt>
      <trkpt lat="44.71136" lon="3.22731">
        <ele>1093.64</ele>
        <time>2012-05-14T08:03:55Z</time>
      </trkpt>
      <trkpt lat="44.71131" lon="3.22706">
        <ele>1096.52</ele>
        <time>2012-05-14T08:04:13Z</time>
      </trkpt>
      <trkpt lat="44.71125" lon="3.22683">
        <ele>1098.44</ele>
        <time>2012-05-14T08:04:31Z</time>
      </trkpt>
      <trkpt lat="44.7112" lon="3.22663">
        <ele>1098.44</ele>
        <time>2012-05-14T08:04:45Z</time>
      </trkpt>
      <trkpt lat="44.71115" lon="3.22637">
        <ele>1099.89</ele>
        <time>2012-05-14T08:05:04Z</time>
      </trkpt>
      <trkpt lat="44.71111" lon="3.22612">
        <ele>1100.85</ele>
        <time>2012-05-14T08:05:20Z</time>
      </trkpt>
      <trkpt lat="44.71104" lon="3.22592">
        <ele>1102.29</ele>
        <time>2012-05-14T08:05:35Z</time>
      </trkpt>
      <trkpt lat="44.71098" lon="3.22571">
        <ele>1102.77</ele>
        <time>2012-05-14T08:05:49Z</time>
      </trkpt>
      <trkpt lat="44.7109" lon="3.22544">
        <ele>1103.25</ele>
        <time>2012-05-14T08:06:07Z</time>
      </trkpt>
      <trkpt lat="44.7109" lon="3.22541">
        <ele>1103.25</ele>
        <time>2012-05-14T08:06:09Z</time>
      </trkpt>
      <trkpt lat="44.71089" lon="3.2254">
        <ele>1103.25</ele>
        <time>2012-05-14T08:06:10Z</time>
      </trkpt>
      <trkpt lat="44.71089" lon="3.22538">
        <ele>1103.25</ele>
        <time>2012-05-14T08:06:11Z</time>
      </trkpt>
      <trkpt lat="44.71088" lon="3.22537">
        <ele>1103.25</ele>
        <time>2012-05-14T08:06:12Z</time>
      </trkpt>
      <trkpt lat="44.71088" lon="3.22535">
        <ele>1103.25</ele>
        <time>2012-05-14T08:06:13Z</time>
      </trkpt>
      <trkpt lat="44.71087" lon="3.22534">
        <ele>1103.25</ele>
        <time>2012-05-14T08:06:14Z</time>
      </trkpt>
      <trkpt lat="44.71087" lon="3.22532">
        <ele>1103.73</ele>
        <time>2012-05-14T08:06:15Z</time>
      </trkpt>
      <trkpt lat="44.71087" lon="3.2253">
        <ele>1103.73</ele>
        <time>2012-05-14T08:06:16Z</time>
      </trkpt>
      <trkpt lat="44.71087" lon="3.22528">
        <ele>1103.25</ele>
        <time>2012-05-14T08:06:17Z</time>
      </trkpt>
      <trkpt lat="44.71083" lon="3.22503">
        <ele>1103.73</ele>
        <time>2012-05-14T08:06:33Z</time>
      </trkpt>
      <trkpt lat="44.71081" lon="3.22475">
        <ele>1102.77</ele>
        <time>2012-05-14T08:06:52Z</time>
      </trkpt>
      <trkpt lat="44.71078" lon="3.22452">
        <ele>1103.25</ele>
        <time>2012-05-14T08:07:08Z</time>
      </trkpt>
      <trkpt lat="44.7108" lon="3.22431">
        <ele>1103.73</ele>
        <time>2012-05-14T08:07:22Z</time>
      </trkpt>
      <trkpt lat="44.71082" lon="3.22425">
        <ele>1104.69</ele>
        <time>2012-05-14T08:07:35Z</time>
      </trkpt>
      <trkpt lat="44.71089" lon="3.22413">
        <ele>1102.29</ele>
        <time>2012-05-14T08:07:45Z</time>
      </trkpt>
      <trkpt lat="44.7109" lon="3.22412">
        <ele>1102.29</ele>
        <time>2012-05-14T08:07:46Z</time>
      </trkpt>
      <trkpt lat="44.71104" lon="3.22398">
        <ele>1102.77</ele>
        <time>2012-05-14T08:08:03Z</time>
      </trkpt>
      <trkpt lat="44.71123" lon="3.22393">
        <ele>1103.73</ele>
        <time>2012-05-14T08:08:22Z</time>
      </trkpt>
      <trkpt lat="44.71139" lon="3.22387">
        <ele>1106.13</ele>
        <time>2012-05-14T08:08:39Z</time>
      </trkpt>
      <trkpt lat="44.71155" lon="3.2238">
        <ele>1107.1</ele>
        <time>2012-05-14T08:08:54Z</time>
      </trkpt>
      <trkpt lat="44.71171" lon="3.2238">
        <ele>1111.42</ele>
        <time>2012-05-14T08:09:11Z</time>
      </trkpt>
      <trkpt lat="44.71185" lon="3.22383">
        <ele>1118.15</ele>
        <time>2012-05-14T08:09:26Z</time>
      </trkpt>
      <trkpt lat="44.71205" lon="3.22383">
        <ele>1117.19</ele>
        <time>2012-05-14T08:09:42Z</time>
      </trkpt>
      <trkpt lat="44.71225" lon="3.22378">
        <ele>1115.27</ele>
        <time>2012-05-14T08:09:58Z</time>
      </trkpt>
      <trkpt lat="44.71241" lon="3.2237">
        <ele>1114.31</ele>
        <time>2012-05-14T08:10:13Z</time>
      </trkpt>
      <trkpt lat="44.71261" lon="3.22362">
        <ele>1112.86</ele>
        <time>2012-05-14T08:10:30Z</time>
      </trkpt>
      <trkpt lat="44.71283" lon="3.22353">
        <ele>1111.42</ele>
        <time>2012-05-14T08:10:48Z</time>
      </trkpt>
      <trkpt lat="44.71301" lon="3.22343">
        <ele>1110.94</ele>
        <time>2012-05-14T08:11:04Z</time>
      </trkpt>
      <trkpt lat="44.71316" lon="3.22327">
        <ele>1110.94</ele>
        <time>2012-05-14T08:11:20Z</time>
      </trkpt>
      <trkpt lat="44.71324" lon="3.22314">
        <ele>1110.94</ele>
        <time>2012-05-14T08:11:31Z</time>
      </trkpt>
      <trkpt lat="44.71324" lon="3.22313">
        <ele>1110.94</ele>
        <time>2012-05-14T08:11:32Z</time>
      </trkpt>
      <trkpt lat="44.71324" lon="3.22311">
        <ele>1110.94</ele>
        <time>2012-05-14T08:11:33Z</time>
      </trkpt>
      <trkpt lat="44.71324" lon="3.2231">
        <ele>1110.94</ele>
        <time>2012-05-14T08:11:34Z</time>
      </trkpt>
      <trkpt lat="44.71324" lon="3.22308">
        <ele>1110.94</ele>
        <time>2012-05-14T08:11:35Z</time>
      </trkpt>
      <trkpt lat="44.71323" lon="3.22302">
        <ele>1110.94</ele>
        <time>2012-05-14T08:11:39Z</time>
      </trkpt>
      <trkpt lat="44.71323" lon="3.22301">
        <ele>1111.42</ele>
        <time>2012-05-14T08:11:40Z</time>
      </trkpt>
      <trkpt lat="44.71323" lon="3.22299">
        <ele>1111.42</ele>
        <time>2012-05-14T08:11:41Z</time>
      </trkpt>
      <trkpt lat="44.71322" lon="3.22296">
        <ele>1111.42</ele>
        <time>2012-05-14T08:11:43Z</time>
      </trkpt>
      <trkpt lat="44.71321" lon="3.22295">
        <ele>1111.42</ele>
        <time>2012-05-14T08:11:44Z</time>
      </trkpt>
      <trkpt lat="44.71321" lon="3.22294">
        <ele>1111.42</ele>
        <time>2012-05-14T08:11:45Z</time>
      </trkpt>
      <trkpt lat="44.7132" lon="3.22292">
        <ele>1111.9</ele>
        <time>2012-05-14T08:11:46Z</time>
      </trkpt>
      <trkpt lat="44.7132" lon="3.22291">
        <ele>1111.9</ele>
        <time>2012-05-14T08:11:47Z</time>
      </trkpt>
      <trkpt lat="44.71314" lon="3.22273">
        <ele>1115.75</ele>
        <time>2012-05-14T08:12:02Z</time>
      </trkpt>
      <trkpt lat="44.71313" lon="3.2226">
        <ele>1116.23</ele>
        <time>2012-05-14T08:12:11Z</time>
      </trkpt>
      <trkpt lat="44.71311" lon="3.22242">
        <ele>1119.11</ele>
        <time>2012-05-14T08:12:24Z</time>
      </trkpt>
      <trkpt lat="44.71305" lon="3.22223">
        <ele>1120.55</ele>
        <time>2012-05-14T08:12:39Z</time>
      </trkpt>
      <trkpt lat="44.71301" lon="3.22201">
        <ele>1122.48</ele>
        <time>2012-05-14T08:12:54Z</time>
      </trkpt>
      <trkpt lat="44.71299" lon="3.22178">
        <ele>1122.96</ele>
        <time>2012-05-14T08:13:09Z</time>
      </trkpt>
      <trkpt lat="44.71293" lon="3.22156">
        <ele>1123.44</ele>
        <time>2012-05-14T08:13:24Z</time>
      </trkpt>
      <trkpt lat="44.71285" lon="3.22134">
        <ele>1123.44</ele>
        <time>2012-05-14T08:13:40Z</time>
      </trkpt>
      <trkpt lat="44.71282" lon="3.22125">
        <ele>1122.96</ele>
        <time>2012-05-14T08:13:47Z</time>
      </trkpt>
      <trkpt lat="44.71277" lon="3.22105">
        <ele>1122.48</ele>
        <time>2012-05-14T08:14:02Z</time>
      </trkpt>
      <trkpt lat="44.71276" lon="3.221">
        <ele>1122</ele>
        <time>2012-05-14T08:14:05Z</time>
      </trkpt>
      <trkpt lat="44.71275" lon="3.22099">
        <ele>1122</ele>
        <time>2012-05-14T08:14:06Z</time>
      </trkpt>
      <trkpt lat="44.71269" lon="3.22073">
        <ele>1121.52</ele>
        <time>2012-05-14T08:14:23Z</time>
      </trkpt>
      <trkpt lat="44.71268" lon="3.22066">
        <ele>1121.52</ele>
        <time>2012-05-14T08:14:27Z</time>
      </trkpt>
      <trkpt lat="44.71268" lon="3.22065">
        <ele>1121.52</ele>
        <time>2012-05-14T08:14:28Z</time>
      </trkpt>
      <trkpt lat="44.71263" lon="3.22047">
        <ele>1126.32</ele>
        <time>2012-05-14T08:14:43Z</time>
      </trkpt>
      <trkpt lat="44.71258" lon="3.22031">
        <ele>1129.69</ele>
        <time>2012-05-14T08:14:54Z</time>
      </trkpt>
      <trkpt lat="44.71253" lon="3.22004">
        <ele>1131.61</ele>
        <time>2012-05-14T08:15:10Z</time>
      </trkpt>
      <trkpt lat="44.71251" lon="3.21992">
        <ele>1131.61</ele>
        <time>2012-05-14T08:15:18Z</time>
      </trkpt>
      <trkpt lat="44.71246" lon="3.21974">
        <ele>1132.57</ele>
        <time>2012-05-14T08:15:30Z</time>
      </trkpt>
      <trkpt lat="44.7124" lon="3.21952">
        <ele>1131.61</ele>
        <time>2012-05-14T08:15:45Z</time>
      </trkpt>
      <trkpt lat="44.71236" lon="3.21943">
        <ele>1134.01</ele>
        <time>2012-05-14T08:16:01Z</time>
      </trkpt>
      <trkpt lat="44.71236" lon="3.21938">
        <ele>1134.01</ele>
        <time>2012-05-14T08:16:04Z</time>
      </trkpt>
      <trkpt lat="44.71236" lon="3.21935">
        <ele>1134.01</ele>
        <time>2012-05-14T08:16:06Z</time>
      </trkpt>
      <trkpt lat="44.71226" lon="3.21918">
        <ele>1136.9</ele>
        <time>2012-05-14T08:16:20Z</time>
      </trkpt>
      <trkpt lat="44.71226" lon="3.21917">
        <ele>1136.9</ele>
        <time>2012-05-14T08:16:21Z</time>
      </trkpt>
      <trkpt lat="44.71222" lon="3.21901">
        <ele>1138.82</ele>
        <time>2012-05-14T08:16:36Z</time>
      </trkpt>
      <trkpt lat="44.71218" lon="3.21891">
        <ele>1139.78</ele>
        <time>2012-05-14T08:16:47Z</time>
      </trkpt>
      <trkpt lat="44.71218" lon="3.21889">
        <ele>1139.78</ele>
        <time>2012-05-14T08:16:48Z</time>
      </trkpt>
      <trkpt lat="44.71208" lon="3.21864">
        <ele>1138.34</ele>
        <time>2012-05-14T08:17:04Z</time>
      </trkpt>
      <trkpt lat="44.71195" lon="3.21846">
        <ele>1138.82</ele>
        <time>2012-05-14T08:17:20Z</time>
      </trkpt>
      <trkpt lat="44.71184" lon="3.2183">
        <ele>1137.86</ele>
        <time>2012-05-14T08:17:34Z</time>
      </trkpt>
      <trkpt lat="44.71183" lon="3.21827">
        <ele>1137.38</ele>
        <time>2012-05-14T08:17:39Z</time>
      </trkpt>
      <trkpt lat="44.71184" lon="3.21824">
        <ele>1136.9</ele>
        <time>2012-05-14T08:17:45Z</time>
      </trkpt>
      <trkpt lat="44.71185" lon="3.21811">
        <ele>1136.42</ele>
        <time>2012-05-14T08:17:54Z</time>
      </trkpt>
      <trkpt lat="44.71185" lon="3.21809">
        <ele>1136.42</ele>
        <time>2012-05-14T08:17:55Z</time>
      </trkpt>
      <trkpt lat="44.71188" lon="3.21785">
        <ele>1138.82</ele>
        <time>2012-05-14T08:18:10Z</time>
      </trkpt>
      <trkpt lat="44.71191" lon="3.21774">
        <ele>1140.26</ele>
        <time>2012-05-14T08:18:25Z</time>
      </trkpt>
      <trkpt lat="44.71191" lon="3.21773">
        <ele>1140.26</ele>
        <time>2012-05-14T08:18:26Z</time>
      </trkpt>
      <trkpt lat="44.71192" lon="3.2177">
        <ele>1140.26</ele>
        <time>2012-05-14T08:18:27Z</time>
      </trkpt>
      <trkpt lat="44.71192" lon="3.21745">
        <ele>1140.26</ele>
        <time>2012-05-14T08:18:41Z</time>
      </trkpt>
      <trkpt lat="44.71193" lon="3.21744">
        <ele>1140.26</ele>
        <time>2012-05-14T08:18:42Z</time>
      </trkpt>
      <trkpt lat="44.71192" lon="3.21733">
        <ele>1139.78</ele>
        <time>2012-05-14T08:18:49Z</time>
      </trkpt>
      <trkpt lat="44.71193" lon="3.21732">
        <ele>1140.26</ele>
        <time>2012-05-14T08:18:50Z</time>
      </trkpt>
      <trkpt lat="44.71193" lon="3.2173">
        <ele>1139.78</ele>
        <time>2012-05-14T08:18:51Z</time>
      </trkpt>
      <trkpt lat="44.71195" lon="3.21702">
        <ele>1141.7</ele>
        <time>2012-05-14T08:19:09Z</time>
      </trkpt>
      <trkpt lat="44.71196" lon="3.21683">
        <ele>1142.18</ele>
        <time>2012-05-14T08:19:22Z</time>
      </trkpt>
      <trkpt lat="44.71195" lon="3.21657">
        <ele>1143.63</ele>
        <time>2012-05-14T08:19:37Z</time>
      </trkpt>
      <trkpt lat="44.71191" lon="3.21634">
        <ele>1143.14</ele>
        <time>2012-05-14T08:19:54Z</time>
      </trkpt>
      <trkpt lat="44.71186" lon="3.21614">
        <ele>1143.63</ele>
        <time>2012-05-14T08:20:09Z</time>
      </trkpt>
      <trkpt lat="44.71185" lon="3.21613">
        <ele>1143.63</ele>
        <time>2012-05-14T08:20:10Z</time>
      </trkpt>
      <trkpt lat="44.71181" lon="3.21604">
        <ele>1145.07</ele>
        <time>2012-05-14T08:20:18Z</time>
      </trkpt>
      <trkpt lat="44.71181" lon="3.21602">
        <ele>1145.07</ele>
        <time>2012-05-14T08:20:19Z</time>
      </trkpt>
      <trkpt lat="44.71179" lon="3.21597">
        <ele>1146.03</ele>
        <time>2012-05-14T08:20:23Z</time>
      </trkpt>
      <trkpt lat="44.71175" lon="3.21589">
        <ele>1147.47</ele>
        <time>2012-05-14T08:20:29Z</time>
      </trkpt>
      <trkpt lat="44.71173" lon="3.21586">
        <ele>1147.95</ele>
        <time>2012-05-14T08:20:31Z</time>
      </trkpt>
      <trkpt lat="44.71172" lon="3.21585">
        <ele>1148.43</ele>
        <time>2012-05-14T08:20:32Z</time>
      </trkpt>
      <trkpt lat="44.71171" lon="3.21584">
        <ele>1148.91</ele>
        <time>2012-05-14T08:20:33Z</time>
      </trkpt>
      <trkpt lat="44.71158" lon="3.21562">
        <ele>1152.28</ele>
        <time>2012-05-14T08:20:51Z</time>
      </trkpt>
      <trkpt lat="44.71151" lon="3.21549">
        <ele>1153.24</ele>
        <time>2012-05-14T08:21:12Z</time>
      </trkpt>
      <trkpt lat="44.71138" lon="3.2153">
        <ele>1155.64</ele>
        <time>2012-05-14T08:21:26Z</time>
      </trkpt>
      <trkpt lat="44.71137" lon="3.21528">
        <ele>1155.64</ele>
        <time>2012-05-14T08:21:27Z</time>
      </trkpt>
      <trkpt lat="44.71128" lon="3.21513">
        <ele>1155.64</ele>
        <time>2012-05-14T08:21:37Z</time>
      </trkpt>
      <trkpt lat="44.71121" lon="3.21496">
        <ele>1155.16</ele>
        <time>2012-05-14T08:21:48Z</time>
      </trkpt>
      <trkpt lat="44.7112" lon="3.21495">
        <ele>1155.16</ele>
        <time>2012-05-14T08:21:49Z</time>
      </trkpt>
      <trkpt lat="44.71109" lon="3.21478">
        <ele>1154.2</ele>
        <time>2012-05-14T08:22:01Z</time>
      </trkpt>
      <trkpt lat="44.71094" lon="3.21458">
        <ele>1152.76</ele>
        <time>2012-05-14T08:22:18Z</time>
      </trkpt>
      <trkpt lat="44.71088" lon="3.21451">
        <ele>1151.8</ele>
        <time>2012-05-14T08:22:24Z</time>
      </trkpt>
      <trkpt lat="44.71085" lon="3.21447">
        <ele>1151.8</ele>
        <time>2012-05-14T08:22:28Z</time>
      </trkpt>
      <trkpt lat="44.71084" lon="3.21446">
        <ele>1151.8</ele>
        <time>2012-05-14T08:22:29Z</time>
      </trkpt>
      <trkpt lat="44.71083" lon="3.21445">
        <ele>1151.32</ele>
        <time>2012-05-14T08:22:30Z</time>
      </trkpt>
      <trkpt lat="44.71082" lon="3.21444">
        <ele>1151.32</ele>
        <time>2012-05-14T08:22:31Z</time>
      </trkpt>
      <trkpt lat="44.71081" lon="3.21442">
        <ele>1151.32</ele>
        <time>2012-05-14T08:22:32Z</time>
      </trkpt>
      <trkpt lat="44.71081" lon="3.21441">
        <ele>1151.32</ele>
        <time>2012-05-14T08:22:33Z</time>
      </trkpt>
      <trkpt lat="44.71071" lon="3.21424">
        <ele>1149.87</ele>
        <time>2012-05-14T08:22:48Z</time>
      </trkpt>
      <trkpt lat="44.7106" lon="3.21408">
        <ele>1149.39</ele>
        <time>2012-05-14T08:23:03Z</time>
      </trkpt>
      <trkpt lat="44.71052" lon="3.21393">
        <ele>1149.87</ele>
        <time>2012-05-14T08:23:16Z</time>
      </trkpt>
      <trkpt lat="44.71046" lon="3.21366">
        <ele>1151.32</ele>
        <time>2012-05-14T08:23:32Z</time>
      </trkpt>
      <trkpt lat="44.71041" lon="3.2134">
        <ele>1150.35</ele>
        <time>2012-05-14T08:23:48Z</time>
      </trkpt>
      <trkpt lat="44.7104" lon="3.21338">
        <ele>1150.35</ele>
        <time>2012-05-14T08:23:49Z</time>
      </trkpt>
      <trkpt lat="44.7104" lon="3.21337">
        <ele>1150.35</ele>
        <time>2012-05-14T08:23:50Z</time>
      </trkpt>
      <trkpt lat="44.71038" lon="3.21307">
        <ele>1149.39</ele>
        <time>2012-05-14T08:24:07Z</time>
      </trkpt>
      <trkpt lat="44.71035" lon="3.21279">
        <ele>1147.95</ele>
        <time>2012-05-14T08:24:23Z</time>
      </trkpt>
      <trkpt lat="44.71028" lon="3.21256">
        <ele>1147.47</ele>
        <time>2012-05-14T08:24:39Z</time>
      </trkpt>
      <trkpt lat="44.71021" lon="3.21234">
        <ele>1146.03</ele>
        <time>2012-05-14T08:24:55Z</time>
      </trkpt>
      <trkpt lat="44.7101" lon="3.21209">
        <ele>1143.63</ele>
        <time>2012-05-14T08:25:13Z</time>
      </trkpt>
      <trkpt lat="44.71004" lon="3.21185">
        <ele>1141.7</ele>
        <time>2012-05-14T08:25:29Z</time>
      </trkpt>
      <trkpt lat="44.71" lon="3.21161">
        <ele>1141.22</ele>
        <time>2012-05-14T08:25:45Z</time>
      </trkpt>
      <trkpt lat="44.70999" lon="3.21147">
        <ele>1140.74</ele>
        <time>2012-05-14T08:25:59Z</time>
      </trkpt>
      <trkpt lat="44.70996" lon="3.21121">
        <ele>1140.74</ele>
        <time>2012-05-14T08:26:14Z</time>
      </trkpt>
      <trkpt lat="44.70991" lon="3.21098">
        <ele>1141.22</ele>
        <time>2012-05-14T08:26:29Z</time>
      </trkpt>
      <trkpt lat="44.70983" lon="3.2107">
        <ele>1141.22</ele>
        <time>2012-05-14T08:26:46Z</time>
      </trkpt>
      <trkpt lat="44.70973" lon="3.21044">
        <ele>1141.7</ele>
        <time>2012-05-14T08:27:03Z</time>
      </trkpt>
      <trkpt lat="44.70966" lon="3.21013">
        <ele>1141.22</ele>
        <time>2012-05-14T08:27:22Z</time>
      </trkpt>
      <trkpt lat="44.70964" lon="3.20988">
        <ele>1140.74</ele>
        <time>2012-05-14T08:27:36Z</time>
      </trkpt>
      <trkpt lat="44.70963" lon="3.2096">
        <ele>1139.78</ele>
        <time>2012-05-14T08:27:52Z</time>
      </trkpt>
      <trkpt lat="44.7096" lon="3.20928">
        <ele>1139.78</ele>
        <time>2012-05-14T08:28:11Z</time>
      </trkpt>
      <trkpt lat="44.70957" lon="3.20901">
        <ele>1140.74</ele>
        <time>2012-05-14T08:28:27Z</time>
      </trkpt>
      <trkpt lat="44.70955" lon="3.20872">
        <ele>1142.18</ele>
        <time>2012-05-14T08:28:44Z</time>
      </trkpt>
      <trkpt lat="44.70952" lon="3.20841">
        <ele>1143.14</ele>
        <time>2012-05-14T08:29:02Z</time>
      </trkpt>
      <trkpt lat="44.70948" lon="3.20814">
        <ele>1143.14</ele>
        <time>2012-05-14T08:29:18Z</time>
      </trkpt>
      <trkpt lat="44.70943" lon="3.20785">
        <ele>1141.22</ele>
        <time>2012-05-14T08:29:35Z</time>
      </trkpt>
      <trkpt lat="44.7094" lon="3.20756">
        <ele>1140.26</ele>
        <time>2012-05-14T08:29:52Z</time>
      </trkpt>
      <trkpt lat="44.70935" lon="3.20731">
        <ele>1139.78</ele>
        <time>2012-05-14T08:30:07Z</time>
      </trkpt>
      <trkpt lat="44.70931" lon="3.20711">
        <ele>1140.26</ele>
        <time>2012-05-14T08:30:21Z</time>
      </trkpt>
      <trkpt lat="44.70931" lon="3.20709">
        <ele>1140.74</ele>
        <time>2012-05-14T08:30:22Z</time>
      </trkpt>
      <trkpt lat="44.70931" lon="3.20707">
        <ele>1141.22</ele>
        <time>2012-05-14T08:30:23Z</time>
      </trkpt>
      <trkpt lat="44.70931" lon="3.20705">
        <ele>1141.22</ele>
        <time>2012-05-14T08:30:24Z</time>
      </trkpt>
      <trkpt lat="44.70923" lon="3.20682">
        <ele>1140.74</ele>
        <time>2012-05-14T08:30:37Z</time>
      </trkpt>
      <trkpt lat="44.70921" lon="3.20656">
        <ele>1136.9</ele>
        <time>2012-05-14T08:30:51Z</time>
      </trkpt>
      <trkpt lat="44.70906" lon="3.20627">
        <ele>1134.01</ele>
        <time>2012-05-14T08:31:09Z</time>
      </trkpt>
      <trkpt lat="44.70898" lon="3.20617">
        <ele>1132.09</ele>
        <time>2012-05-14T08:31:17Z</time>
      </trkpt>
      <trkpt lat="44.70898" lon="3.20615">
        <ele>1132.57</ele>
        <time>2012-05-14T08:31:18Z</time>
      </trkpt>
      <trkpt lat="44.70887" lon="3.20597">
        <ele>1132.09</ele>
        <time>2012-05-14T08:31:31Z</time>
      </trkpt>
      <trkpt lat="44.70873" lon="3.20577">
        <ele>1133.05</ele>
        <time>2012-05-14T08:31:47Z</time>
      </trkpt>
      <trkpt lat="44.70865" lon="3.2055">
        <ele>1132.09</ele>
        <time>2012-05-14T08:32:03Z</time>
      </trkpt>
      <trkpt lat="44.70862" lon="3.20517">
        <ele>1129.21</ele>
        <time>2012-05-14T08:32:21Z</time>
      </trkpt>
      <trkpt lat="44.70861" lon="3.20516">
        <ele>1129.21</ele>
        <time>2012-05-14T08:32:22Z</time>
      </trkpt>
      <trkpt lat="44.70861" lon="3.20514">
        <ele>1129.21</ele>
        <time>2012-05-14T08:32:23Z</time>
      </trkpt>
      <trkpt lat="44.70861" lon="3.20513">
        <ele>1128.73</ele>
        <time>2012-05-14T08:32:24Z</time>
      </trkpt>
      <trkpt lat="44.70861" lon="3.20511">
        <ele>1128.73</ele>
        <time>2012-05-14T08:32:25Z</time>
      </trkpt>
      <trkpt lat="44.70861" lon="3.20509">
        <ele>1128.73</ele>
        <time>2012-05-14T08:32:26Z</time>
      </trkpt>
      <trkpt lat="44.70861" lon="3.20506">
        <ele>1128.73</ele>
        <time>2012-05-14T08:32:28Z</time>
      </trkpt>
      <trkpt lat="44.70863" lon="3.20494">
        <ele>1127.76</ele>
        <time>2012-05-14T08:32:42Z</time>
      </trkpt>
      <trkpt lat="44.70865" lon="3.20468">
        <ele>1128.24</ele>
        <time>2012-05-14T08:32:58Z</time>
      </trkpt>
      <trkpt lat="44.70865" lon="3.20451">
        <ele>1128.24</ele>
        <time>2012-05-14T08:33:08Z</time>
      </trkpt>
      <trkpt lat="44.70861" lon="3.2043">
        <ele>1127.76</ele>
        <time>2012-05-14T08:33:23Z</time>
      </trkpt>
      <trkpt lat="44.70852" lon="3.20411">
        <ele>1128.24</ele>
        <time>2012-05-14T08:33:40Z</time>
      </trkpt>
      <trkpt lat="44.70847" lon="3.20401">
        <ele>1127.76</ele>
        <time>2012-05-14T08:33:53Z</time>
      </trkpt>
      <trkpt lat="44.7084" lon="3.20379">
        <ele>1129.69</ele>
        <time>2012-05-14T08:34:08Z</time>
      </trkpt>
      <trkpt lat="44.70829" lon="3.20358">
        <ele>1129.21</ele>
        <time>2012-05-14T08:34:24Z</time>
      </trkpt>
      <trkpt lat="44.70818" lon="3.20339">
        <ele>1129.21</ele>
        <time>2012-05-14T08:34:39Z</time>
      </trkpt>
      <trkpt lat="44.70805" lon="3.20321">
        <ele>1129.69</ele>
        <time>2012-05-14T08:34:54Z</time>
      </trkpt>
      <trkpt lat="44.70804" lon="3.2032">
        <ele>1129.69</ele>
        <time>2012-05-14T08:34:55Z</time>
      </trkpt>
      <trkpt lat="44.70788" lon="3.20303">
        <ele>1130.17</ele>
        <time>2012-05-14T08:35:12Z</time>
      </trkpt>
      <trkpt lat="44.70776" lon="3.20291">
        <ele>1131.13</ele>
        <time>2012-05-14T08:35:26Z</time>
      </trkpt>
      <trkpt lat="44.70768" lon="3.20282">
        <ele>1132.57</ele>
        <time>2012-05-14T08:35:36Z</time>
      </trkpt>
      <trkpt lat="44.70763" lon="3.20278">
        <ele>1132.57</ele>
        <time>2012-05-14T08:35:40Z</time>
      </trkpt>
      <trkpt lat="44.70755" lon="3.20268">
        <ele>1132.57</ele>
        <time>2012-05-14T08:35:49Z</time>
      </trkpt>
      <trkpt lat="44.70747" lon="3.20259">
        <ele>1132.57</ele>
        <time>2012-05-14T08:35:58Z</time>
      </trkpt>
      <trkpt lat="44.70747" lon="3.20258">
        <ele>1132.09</ele>
        <time>2012-05-14T08:36:00Z</time>
      </trkpt>
      <trkpt lat="44.70744" lon="3.20253">
        <ele>1131.61</ele>
        <time>2012-05-14T08:36:14Z</time>
      </trkpt>
      <trkpt lat="44.70744" lon="3.20253">
        <ele>1131.61</ele>
        <time>2012-05-14T08:36:31Z</time>
      </trkpt>
      <trkpt lat="44.70743" lon="3.20252">
        <ele>1133.05</ele>
        <time>2012-05-14T08:36:55Z</time>
      </trkpt>
      <trkpt lat="44.70742" lon="3.20252">
        <ele>1134.01</ele>
        <time>2012-05-14T08:37:13Z</time>
      </trkpt>
      <trkpt lat="44.70741" lon="3.2025">
        <ele>1134.01</ele>
        <time>2012-05-14T08:37:33Z</time>
      </trkpt>
      <trkpt lat="44.70736" lon="3.2023">
        <ele>1137.38</ele>
        <time>2012-05-14T08:37:51Z</time>
      </trkpt>
      <trkpt lat="44.70736" lon="3.20226">
        <ele>1137.38</ele>
        <time>2012-05-14T08:38:06Z</time>
      </trkpt>
      <trkpt lat="44.70736" lon="3.20216">
        <ele>1138.34</ele>
        <time>2012-05-14T08:38:12Z</time>
      </trkpt>
      <trkpt lat="44.70737" lon="3.20207">
        <ele>1138.82</ele>
        <time>2012-05-14T08:38:19Z</time>
      </trkpt>
      <trkpt lat="44.70736" lon="3.20205">
        <ele>1138.82</ele>
        <time>2012-05-14T08:38:20Z</time>
      </trkpt>
      <trkpt lat="44.70737" lon="3.20202">
        <ele>1138.82</ele>
        <time>2012-05-14T08:38:21Z</time>
      </trkpt>
      <trkpt lat="44.70736" lon="3.20188">
        <ele>1138.34</ele>
        <time>2012-05-14T08:38:32Z</time>
      </trkpt>
      <trkpt lat="44.70737" lon="3.20178">
        <ele>1138.82</ele>
        <time>2012-05-14T08:38:40Z</time>
      </trkpt>
      <trkpt lat="44.70736" lon="3.2016">
        <ele>1142.18</ele>
        <time>2012-05-14T08:38:55Z</time>
      </trkpt>
      <trkpt lat="44.70733" lon="3.20137">
        <ele>1143.63</ele>
        <time>2012-05-14T08:39:11Z</time>
      </trkpt>
      <trkpt lat="44.70725" lon="3.2012">
        <ele>1143.63</ele>
        <time>2012-05-14T08:39:25Z</time>
      </trkpt>
      <trkpt lat="44.70717" lon="3.20104">
        <ele>1143.14</ele>
        <time>2012-05-14T08:39:39Z</time>
      </trkpt>
      <trkpt lat="44.70715" lon="3.20099">
        <ele>1143.14</ele>
        <time>2012-05-14T08:39:43Z</time>
      </trkpt>
      <trkpt lat="44.70713" lon="3.20086">
        <ele>1144.59</ele>
        <time>2012-05-14T08:39:52Z</time>
      </trkpt>
      <trkpt lat="44.70709" lon="3.20065">
        <ele>1146.03</ele>
        <time>2012-05-14T08:40:07Z</time>
      </trkpt>
      <trkpt lat="44.70708" lon="3.20042">
        <ele>1148.43</ele>
        <time>2012-05-14T08:40:22Z</time>
      </trkpt>
      <trkpt lat="44.70704" lon="3.20026">
        <ele>1149.39</ele>
        <time>2012-05-14T08:40:38Z</time>
      </trkpt>
      <trkpt lat="44.70704" lon="3.20026">
        <ele>1149.39</ele>
        <time>2012-05-14T08:40:54Z</time>
      </trkpt>
      <trkpt lat="44.707" lon="3.20017">
        <ele>1149.87</ele>
        <time>2012-05-14T08:41:04Z</time>
      </trkpt>
      <trkpt lat="44.70692" lon="3.19994">
        <ele>1152.76</ele>
        <time>2012-05-14T08:41:20Z</time>
      </trkpt>
      <trkpt lat="44.70681" lon="3.19978">
        <ele>1152.76</ele>
        <time>2012-05-14T08:41:35Z</time>
      </trkpt>
      <trkpt lat="44.70676" lon="3.1996">
        <ele>1151.32</ele>
        <time>2012-05-14T08:41:49Z</time>
      </trkpt>
      <trkpt lat="44.70668" lon="3.19943">
        <ele>1153.24</ele>
        <time>2012-05-14T08:42:05Z</time>
      </trkpt>
      <trkpt lat="44.70665" lon="3.19924">
        <ele>1154.68</ele>
        <time>2012-05-14T08:42:20Z</time>
      </trkpt>
      <trkpt lat="44.70663" lon="3.19899">
        <ele>1157.08</ele>
        <time>2012-05-14T08:42:36Z</time>
      </trkpt>
      <trkpt lat="44.70667" lon="3.19874">
        <ele>1159.01</ele>
        <time>2012-05-14T08:42:53Z</time>
      </trkpt>
      <trkpt lat="44.70672" lon="3.19854">
        <ele>1161.89</ele>
        <time>2012-05-14T08:43:07Z</time>
      </trkpt>
      <trkpt lat="44.70674" lon="3.19836">
        <ele>1165.26</ele>
        <time>2012-05-14T08:43:23Z</time>
      </trkpt>
      <trkpt lat="44.70678" lon="3.19814">
        <ele>1166.7</ele>
        <time>2012-05-14T08:43:39Z</time>
      </trkpt>
      <trkpt lat="44.70683" lon="3.19793">
        <ele>1167.18</ele>
        <time>2012-05-14T08:43:54Z</time>
      </trkpt>
      <trkpt lat="44.70687" lon="3.1977">
        <ele>1167.18</ele>
        <time>2012-05-14T08:44:10Z</time>
      </trkpt>
      <trkpt lat="44.70685" lon="3.19767">
        <ele>1167.18</ele>
        <time>2012-05-14T08:44:16Z</time>
      </trkpt>
      <trkpt lat="44.70686" lon="3.19765">
        <ele>1167.18</ele>
        <time>2012-05-14T08:44:17Z</time>
      </trkpt>
      <trkpt lat="44.70686" lon="3.19764">
        <ele>1167.66</ele>
        <time>2012-05-14T08:44:18Z</time>
      </trkpt>
      <trkpt lat="44.70686" lon="3.19762">
        <ele>1167.66</ele>
        <time>2012-05-14T08:44:19Z</time>
      </trkpt>
      <trkpt lat="44.70687" lon="3.1976">
        <ele>1167.66</ele>
        <time>2012-05-14T08:44:20Z</time>
      </trkpt>
      <trkpt lat="44.70687" lon="3.19759">
        <ele>1167.66</ele>
        <time>2012-05-14T08:44:21Z</time>
      </trkpt>
      <trkpt lat="44.7069" lon="3.19731">
        <ele>1167.66</ele>
        <time>2012-05-14T08:44:39Z</time>
      </trkpt>
      <trkpt lat="44.70692" lon="3.19704">
        <ele>1168.14</ele>
        <time>2012-05-14T08:44:56Z</time>
      </trkpt>
      <trkpt lat="44.70695" lon="3.19679">
        <ele>1167.66</ele>
        <time>2012-05-14T08:45:12Z</time>
      </trkpt>
      <trkpt lat="44.70697" lon="3.19656">
        <ele>1168.14</ele>
        <time>2012-05-14T08:45:26Z</time>
      </trkpt>
      <trkpt lat="44.707" lon="3.19631">
        <ele>1169.1</ele>
        <time>2012-05-14T08:45:42Z</time>
      </trkpt>
      <trkpt lat="44.70701" lon="3.19602">
        <ele>1167.18</ele>
        <time>2012-05-14T08:45:59Z</time>
      </trkpt>
      <trkpt lat="44.70704" lon="3.19576">
        <ele>1168.14</ele>
        <time>2012-05-14T08:46:16Z</time>
      </trkpt>
      <trkpt lat="44.70703" lon="3.19554">
        <ele>1168.62</ele>
        <time>2012-05-14T08:46:31Z</time>
      </trkpt>
      <trkpt lat="44.70703" lon="3.19531">
        <ele>1168.14</ele>
        <time>2012-05-14T08:46:46Z</time>
      </trkpt>
      <trkpt lat="44.70702" lon="3.19505">
        <ele>1170.06</ele>
        <time>2012-05-14T08:47:02Z</time>
      </trkpt>
      <trkpt lat="44.70702" lon="3.19479">
        <ele>1171.02</ele>
        <time>2012-05-14T08:47:19Z</time>
      </trkpt>
      <trkpt lat="44.707" lon="3.19453">
        <ele>1172.95</ele>
        <time>2012-05-14T08:47:36Z</time>
      </trkpt>
      <trkpt lat="44.70698" lon="3.19429">
        <ele>1173.91</ele>
        <time>2012-05-14T08:47:51Z</time>
      </trkpt>
      <trkpt lat="44.70694" lon="3.19404">
        <ele>1174.39</ele>
        <time>2012-05-14T08:48:06Z</time>
      </trkpt>
      <trkpt lat="44.70692" lon="3.19391">
        <ele>1173.43</ele>
        <time>2012-05-14T08:48:22Z</time>
      </trkpt>
      <trkpt lat="44.70691" lon="3.19385">
        <ele>1173.43</ele>
        <time>2012-05-14T08:48:33Z</time>
      </trkpt>
      <trkpt lat="44.70687" lon="3.19365">
        <ele>1172.95</ele>
        <time>2012-05-14T08:48:49Z</time>
      </trkpt>
      <trkpt lat="44.70685" lon="3.1934">
        <ele>1171.5</ele>
        <time>2012-05-14T08:49:04Z</time>
      </trkpt>
      <trkpt lat="44.70686" lon="3.19338">
        <ele>1171.5</ele>
        <time>2012-05-14T08:49:05Z</time>
      </trkpt>
      <trkpt lat="44.70688" lon="3.19308">
        <ele>1172.95</ele>
        <time>2012-05-14T08:49:22Z</time>
      </trkpt>
      <trkpt lat="44.70688" lon="3.1928">
        <ele>1172.47</ele>
        <time>2012-05-14T08:49:39Z</time>
      </trkpt>
      <trkpt lat="44.70686" lon="3.19271">
        <ele>1171.5</ele>
        <time>2012-05-14T08:49:53Z</time>
      </trkpt>
      <trkpt lat="44.70684" lon="3.19263">
        <ele>1171.98</ele>
        <time>2012-05-14T08:50:09Z</time>
      </trkpt>
      <trkpt lat="44.70686" lon="3.19257">
        <ele>1171.98</ele>
        <time>2012-05-14T08:50:22Z</time>
      </trkpt>
      <trkpt lat="44.70687" lon="3.19246">
        <ele>1171.02</ele>
        <time>2012-05-14T08:50:28Z</time>
      </trkpt>
      <trkpt lat="44.70688" lon="3.19218">
        <ele>1170.06</ele>
        <time>2012-05-14T08:50:44Z</time>
      </trkpt>
      <trkpt lat="44.70689" lon="3.19191">
        <ele>1170.06</ele>
        <time>2012-05-14T08:51:00Z</time>
      </trkpt>
      <trkpt lat="44.7069" lon="3.19165">
        <ele>1171.5</ele>
        <time>2012-05-14T08:51:17Z</time>
      </trkpt>
      <trkpt lat="44.70689" lon="3.19141">
        <ele>1172.47</ele>
        <time>2012-05-14T08:51:34Z</time>
      </trkpt>
      <trkpt lat="44.7069" lon="3.19121">
        <ele>1171.98</ele>
        <time>2012-05-14T08:51:46Z</time>
      </trkpt>
      <trkpt lat="44.7069" lon="3.19119">
        <ele>1171.98</ele>
        <time>2012-05-14T08:51:47Z</time>
      </trkpt>
      <trkpt lat="44.7069" lon="3.19111">
        <ele>1171.98</ele>
        <time>2012-05-14T08:51:54Z</time>
      </trkpt>
      <trkpt lat="44.7069" lon="3.19109">
        <ele>1171.98</ele>
        <time>2012-05-14T08:51:55Z</time>
      </trkpt>
      <trkpt lat="44.7069" lon="3.19107">
        <ele>1171.98</ele>
        <time>2012-05-14T08:51:56Z</time>
      </trkpt>
      <trkpt lat="44.7069" lon="3.19104">
        <ele>1171.98</ele>
        <time>2012-05-14T08:51:57Z</time>
      </trkpt>
      <trkpt lat="44.7069" lon="3.19102">
        <ele>1172.47</ele>
        <time>2012-05-14T08:51:58Z</time>
      </trkpt>
      <trkpt lat="44.7069" lon="3.19077">
        <ele>1171.5</ele>
        <time>2012-05-14T08:52:12Z</time>
      </trkpt>
      <trkpt lat="44.70691" lon="3.19046">
        <ele>1171.98</ele>
        <time>2012-05-14T08:52:29Z</time>
      </trkpt>
      <trkpt lat="44.70691" lon="3.19034">
        <ele>1171.98</ele>
        <time>2012-05-14T08:52:36Z</time>
      </trkpt>
      <trkpt lat="44.70689" lon="3.19007">
        <ele>1171.02</ele>
        <time>2012-05-14T08:52:52Z</time>
      </trkpt>
      <trkpt lat="44.70689" lon="3.19004">
        <ele>1171.02</ele>
        <time>2012-05-14T08:52:54Z</time>
      </trkpt>
      <trkpt lat="44.70689" lon="3.18979">
        <ele>1170.06</ele>
        <time>2012-05-14T08:53:08Z</time>
      </trkpt>
      <trkpt lat="44.7069" lon="3.18952">
        <ele>1170.54</ele>
        <time>2012-05-14T08:53:24Z</time>
      </trkpt>
      <trkpt lat="44.70691" lon="3.18926">
        <ele>1172.47</ele>
        <time>2012-05-14T08:53:39Z</time>
      </trkpt>
      <trkpt lat="44.70698" lon="3.18895">
        <ele>1171.5</ele>
        <time>2012-05-14T08:53:57Z</time>
      </trkpt>
      <trkpt lat="44.707" lon="3.18879">
        <ele>1171.98</ele>
        <time>2012-05-14T08:54:06Z</time>
      </trkpt>
      <trkpt lat="44.707" lon="3.18878">
        <ele>1172.47</ele>
        <time>2012-05-14T08:54:07Z</time>
      </trkpt>
      <trkpt lat="44.70693" lon="3.18872">
        <ele>1173.43</ele>
        <time>2012-05-14T08:54:19Z</time>
      </trkpt>
      <trkpt lat="44.70692" lon="3.18871">
        <ele>1173.43</ele>
        <time>2012-05-14T08:54:20Z</time>
      </trkpt>
      <trkpt lat="44.70691" lon="3.18869">
        <ele>1173.43</ele>
        <time>2012-05-14T08:54:21Z</time>
      </trkpt>
      <trkpt lat="44.70691" lon="3.18867">
        <ele>1173.43</ele>
        <time>2012-05-14T08:54:22Z</time>
      </trkpt>
      <trkpt lat="44.7069" lon="3.18866">
        <ele>1173.43</ele>
        <time>2012-05-14T08:54:23Z</time>
      </trkpt>
      <trkpt lat="44.7069" lon="3.18864">
        <ele>1173.43</ele>
        <time>2012-05-14T08:54:24Z</time>
      </trkpt>
      <trkpt lat="44.70689" lon="3.18863">
        <ele>1173.43</ele>
        <time>2012-05-14T08:54:25Z</time>
      </trkpt>
      <trkpt lat="44.70682" lon="3.18843">
        <ele>1174.39</ele>
        <time>2012-05-14T08:54:39Z</time>
      </trkpt>
      <trkpt lat="44.70672" lon="3.18823">
        <ele>1174.87</ele>
        <time>2012-05-14T08:54:57Z</time>
      </trkpt>
      <trkpt lat="44.70661" lon="3.188">
        <ele>1175.35</ele>
        <time>2012-05-14T08:55:15Z</time>
      </trkpt>
      <trkpt lat="44.70648" lon="3.18783">
        <ele>1174.87</ele>
        <time>2012-05-14T08:55:30Z</time>
      </trkpt>
      <trkpt lat="44.70637" lon="3.18762">
        <ele>1174.39</ele>
        <time>2012-05-14T08:55:45Z</time>
      </trkpt>
      <trkpt lat="44.70631" lon="3.18747">
        <ele>1174.39</ele>
        <time>2012-05-14T08:55:56Z</time>
      </trkpt>
      <trkpt lat="44.70624" lon="3.18721">
        <ele>1174.39</ele>
        <time>2012-05-14T08:56:13Z</time>
      </trkpt>
      <trkpt lat="44.70623" lon="3.1872">
        <ele>1174.39</ele>
        <time>2012-05-14T08:56:14Z</time>
      </trkpt>
      <trkpt lat="44.70623" lon="3.18718">
        <ele>1174.39</ele>
        <time>2012-05-14T08:56:15Z</time>
      </trkpt>
      <trkpt lat="44.70622" lon="3.18717">
        <ele>1174.39</ele>
        <time>2012-05-14T08:56:16Z</time>
      </trkpt>
      <trkpt lat="44.70622" lon="3.18715">
        <ele>1174.39</ele>
        <time>2012-05-14T08:56:17Z</time>
      </trkpt>
      <trkpt lat="44.70621" lon="3.18714">
        <ele>1174.39</ele>
        <time>2012-05-14T08:56:18Z</time>
      </trkpt>
      <trkpt lat="44.70621" lon="3.18712">
        <ele>1174.39</ele>
        <time>2012-05-14T08:56:19Z</time>
      </trkpt>
      <trkpt lat="44.70616" lon="3.1869">
        <ele>1173.91</ele>
        <time>2012-05-14T08:56:33Z</time>
      </trkpt>
      <trkpt lat="44.70616" lon="3.18689">
        <ele>1173.91</ele>
        <time>2012-05-14T08:56:34Z</time>
      </trkpt>
      <trkpt lat="44.70615" lon="3.18687">
        <ele>1173.91</ele>
        <time>2012-05-14T08:56:35Z</time>
      </trkpt>
      <trkpt lat="44.70615" lon="3.18686">
        <ele>1173.43</ele>
        <time>2012-05-14T08:56:36Z</time>
      </trkpt>
      <trkpt lat="44.70614" lon="3.18685">
        <ele>1173.43</ele>
        <time>2012-05-14T08:56:37Z</time>
      </trkpt>
      <trkpt lat="44.70613" lon="3.18683">
        <ele>1173.43</ele>
        <time>2012-05-14T08:56:38Z</time>
      </trkpt>
      <trkpt lat="44.70612" lon="3.18682">
        <ele>1173.43</ele>
        <time>2012-05-14T08:56:39Z</time>
      </trkpt>
      <trkpt lat="44.70605" lon="3.18663">
        <ele>1171.98</ele>
        <time>2012-05-14T08:56:54Z</time>
      </trkpt>
      <trkpt lat="44.70601" lon="3.18654">
        <ele>1172.95</ele>
        <time>2012-05-14T08:57:08Z</time>
      </trkpt>
      <trkpt lat="44.70598" lon="3.18644">
        <ele>1172.95</ele>
        <time>2012-05-14T08:57:30Z</time>
      </trkpt>
      <trkpt lat="44.70589" lon="3.18618">
        <ele>1171.5</ele>
        <time>2012-05-14T08:57:49Z</time>
      </trkpt>
      <trkpt lat="44.70585" lon="3.18609">
        <ele>1171.5</ele>
        <time>2012-05-14T08:57:57Z</time>
      </trkpt>
      <trkpt lat="44.70585" lon="3.18607">
        <ele>1171.02</ele>
        <time>2012-05-14T08:57:58Z</time>
      </trkpt>
      <trkpt lat="44.70575" lon="3.1858">
        <ele>1170.54</ele>
        <time>2012-05-14T08:58:16Z</time>
      </trkpt>
      <trkpt lat="44.70567" lon="3.18557">
        <ele>1170.06</ele>
        <time>2012-05-14T08:58:31Z</time>
      </trkpt>
      <trkpt lat="44.70558" lon="3.18531">
        <ele>1169.1</ele>
        <time>2012-05-14T08:58:48Z</time>
      </trkpt>
      <trkpt lat="44.70555" lon="3.18522">
        <ele>1168.62</ele>
        <time>2012-05-14T08:59:03Z</time>
      </trkpt>
      <trkpt lat="44.70548" lon="3.18503">
        <ele>1167.18</ele>
        <time>2012-05-14T08:59:16Z</time>
      </trkpt>
      <trkpt lat="44.70547" lon="3.18501">
        <ele>1167.18</ele>
        <time>2012-05-14T08:59:17Z</time>
      </trkpt>
      <trkpt lat="44.70538" lon="3.18476">
        <ele>1167.66</ele>
        <time>2012-05-14T08:59:34Z</time>
      </trkpt>
      <trkpt lat="44.70529" lon="3.18449">
        <ele>1166.7</ele>
        <time>2012-05-14T08:59:51Z</time>
      </trkpt>
      <trkpt lat="44.70524" lon="3.18434">
        <ele>1166.22</ele>
        <time>2012-05-14T09:00:01Z</time>
      </trkpt>
      <trkpt lat="44.70523" lon="3.18433">
        <ele>1166.22</ele>
        <time>2012-05-14T09:00:02Z</time>
      </trkpt>
      <trkpt lat="44.70523" lon="3.18431">
        <ele>1165.74</ele>
        <time>2012-05-14T09:00:03Z</time>
      </trkpt>
      <trkpt lat="44.70522" lon="3.18429">
        <ele>1165.74</ele>
        <time>2012-05-14T09:00:04Z</time>
      </trkpt>
      <trkpt lat="44.70522" lon="3.18428">
        <ele>1165.74</ele>
        <time>2012-05-14T09:00:05Z</time>
      </trkpt>
      <trkpt lat="44.70521" lon="3.18426">
        <ele>1165.74</ele>
        <time>2012-05-14T09:00:06Z</time>
      </trkpt>
      <trkpt lat="44.7052" lon="3.18425">
        <ele>1165.74</ele>
        <time>2012-05-14T09:00:07Z</time>
      </trkpt>
      <trkpt lat="44.7052" lon="3.18423">
        <ele>1165.74</ele>
        <time>2012-05-14T09:00:08Z</time>
      </trkpt>
      <trkpt lat="44.70519" lon="3.18422">
        <ele>1165.74</ele>
        <time>2012-05-14T09:00:09Z</time>
      </trkpt>
      <trkpt lat="44.70519" lon="3.1842">
        <ele>1165.74</ele>
        <time>2012-05-14T09:00:10Z</time>
      </trkpt>
      <trkpt lat="44.70518" lon="3.18419">
        <ele>1165.74</ele>
        <time>2012-05-14T09:00:11Z</time>
      </trkpt>
      <trkpt lat="44.70518" lon="3.18417">
        <ele>1165.74</ele>
        <time>2012-05-14T09:00:12Z</time>
      </trkpt>
      <trkpt lat="44.70517" lon="3.18416">
        <ele>1165.74</ele>
        <time>2012-05-14T09:00:13Z</time>
      </trkpt>
      <trkpt lat="44.70509" lon="3.18391">
        <ele>1165.26</ele>
        <time>2012-05-14T09:00:30Z</time>
      </trkpt>
      <trkpt lat="44.705" lon="3.18366">
        <ele>1164.77</ele>
        <time>2012-05-14T09:00:47Z</time>
      </trkpt>
      <trkpt lat="44.70493" lon="3.18346">
        <ele>1163.81</ele>
        <time>2012-05-14T09:01:00Z</time>
      </trkpt>
      <trkpt lat="44.70484" lon="3.18322">
        <ele>1164.77</ele>
        <time>2012-05-14T09:01:16Z</time>
      </trkpt>
      <trkpt lat="44.70478" lon="3.18304">
        <ele>1165.74</ele>
        <time>2012-05-14T09:01:32Z</time>
      </trkpt>
      <trkpt lat="44.70471" lon="3.18284">
        <ele>1166.7</ele>
        <time>2012-05-14T09:01:47Z</time>
      </trkpt>
      <trkpt lat="44.70463" lon="3.18261">
        <ele>1167.18</ele>
        <time>2012-05-14T09:02:02Z</time>
      </trkpt>
      <trkpt lat="44.70456" lon="3.18237">
        <ele>1165.74</ele>
        <time>2012-05-14T09:02:18Z</time>
      </trkpt>
      <trkpt lat="44.70447" lon="3.18211">
        <ele>1163.33</ele>
        <time>2012-05-14T09:02:35Z</time>
      </trkpt>
      <trkpt lat="44.70443" lon="3.18193">
        <ele>1163.33</ele>
        <time>2012-05-14T09:02:48Z</time>
      </trkpt>
      <trkpt lat="44.70436" lon="3.18171">
        <ele>1162.37</ele>
        <time>2012-05-14T09:03:03Z</time>
      </trkpt>
      <trkpt lat="44.70427" lon="3.18152">
        <ele>1161.89</ele>
        <time>2012-05-14T09:03:17Z</time>
      </trkpt>
      <trkpt lat="44.70425" lon="3.18147">
        <ele>1161.41</ele>
        <time>2012-05-14T09:03:21Z</time>
      </trkpt>
      <trkpt lat="44.70425" lon="3.18135">
        <ele>1160.45</ele>
        <time>2012-05-14T09:03:35Z</time>
      </trkpt>
      <trkpt lat="44.70421" lon="3.18115">
        <ele>1159.97</ele>
        <time>2012-05-14T09:03:48Z</time>
      </trkpt>
      <trkpt lat="44.70418" lon="3.18088">
        <ele>1159.01</ele>
        <time>2012-05-14T09:04:05Z</time>
      </trkpt>
      <trkpt lat="44.70417" lon="3.1807">
        <ele>1159.01</ele>
        <time>2012-05-14T09:04:16Z</time>
      </trkpt>
      <trkpt lat="44.70416" lon="3.1805">
        <ele>1158.53</ele>
        <time>2012-05-14T09:04:29Z</time>
      </trkpt>
      <trkpt lat="44.70413" lon="3.18036">
        <ele>1157.08</ele>
        <time>2012-05-14T09:04:39Z</time>
      </trkpt>
      <trkpt lat="44.70413" lon="3.18034">
        <ele>1157.08</ele>
        <time>2012-05-14T09:04:40Z</time>
      </trkpt>
      <trkpt lat="44.7041" lon="3.18008">
        <ele>1156.12</ele>
        <time>2012-05-14T09:04:56Z</time>
      </trkpt>
      <trkpt lat="44.70407" lon="3.17981">
        <ele>1156.12</ele>
        <time>2012-05-14T09:05:12Z</time>
      </trkpt>
      <trkpt lat="44.70406" lon="3.17959">
        <ele>1156.6</ele>
        <time>2012-05-14T09:05:25Z</time>
      </trkpt>
      <trkpt lat="44.70404" lon="3.17936">
        <ele>1156.6</ele>
        <time>2012-05-14T09:05:39Z</time>
      </trkpt>
      <trkpt lat="44.70404" lon="3.17934">
        <ele>1156.6</ele>
        <time>2012-05-14T09:05:40Z</time>
      </trkpt>
      <trkpt lat="44.70404" lon="3.17933">
        <ele>1156.6</ele>
        <time>2012-05-14T09:05:41Z</time>
      </trkpt>
      <trkpt lat="44.70402" lon="3.17921">
        <ele>1156.12</ele>
        <time>2012-05-14T09:05:50Z</time>
      </trkpt>
      <trkpt lat="44.70402" lon="3.17918">
        <ele>1156.12</ele>
        <time>2012-05-14T09:05:52Z</time>
      </trkpt>
      <trkpt lat="44.70401" lon="3.17908">
        <ele>1155.64</ele>
        <time>2012-05-14T09:06:02Z</time>
      </trkpt>
      <trkpt lat="44.70398" lon="3.17905">
        <ele>1154.68</ele>
        <time>2012-05-14T09:06:15Z</time>
      </trkpt>
      <trkpt lat="44.70394" lon="3.17895">
        <ele>1154.68</ele>
        <time>2012-05-14T09:06:25Z</time>
      </trkpt>
      <trkpt lat="44.70389" lon="3.17883">
        <ele>1154.68</ele>
        <time>2012-05-14T09:06:35Z</time>
      </trkpt>
      <trkpt lat="44.70377" lon="3.17866">
        <ele>1154.68</ele>
        <time>2012-05-14T09:06:49Z</time>
      </trkpt>
      <trkpt lat="44.70375" lon="3.17859">
        <ele>1154.68</ele>
        <time>2012-05-14T09:06:54Z</time>
      </trkpt>
      <trkpt lat="44.70374" lon="3.17858">
        <ele>1155.16</ele>
        <time>2012-05-14T09:06:55Z</time>
      </trkpt>
      <trkpt lat="44.7037" lon="3.17851">
        <ele>1155.16</ele>
        <time>2012-05-14T09:07:02Z</time>
      </trkpt>
      <trkpt lat="44.70362" lon="3.17838">
        <ele>1155.64</ele>
        <time>2012-05-14T09:07:17Z</time>
      </trkpt>
      <trkpt lat="44.70362" lon="3.17837">
        <ele>1155.64</ele>
        <time>2012-05-14T09:07:18Z</time>
      </trkpt>
      <trkpt lat="44.70359" lon="3.17828">
        <ele>1155.64</ele>
        <time>2012-05-14T09:07:27Z</time>
      </trkpt>
      <trkpt lat="44.70358" lon="3.17827">
        <ele>1155.64</ele>
        <time>2012-05-14T09:07:28Z</time>
      </trkpt>
      <trkpt lat="44.70353" lon="3.17819">
        <ele>1155.64</ele>
        <time>2012-05-14T09:07:35Z</time>
      </trkpt>
      <trkpt lat="44.70353" lon="3.17817">
        <ele>1155.64</ele>
        <time>2012-05-14T09:07:36Z</time>
      </trkpt>
      <trkpt lat="44.70352" lon="3.17816">
        <ele>1155.64</ele>
        <time>2012-05-14T09:07:37Z</time>
      </trkpt>
      <trkpt lat="44.70352" lon="3.17814">
        <ele>1155.16</ele>
        <time>2012-05-14T09:07:38Z</time>
      </trkpt>
      <trkpt lat="44.70351" lon="3.17813">
        <ele>1155.16</ele>
        <time>2012-05-14T09:07:39Z</time>
      </trkpt>
      <trkpt lat="44.70351" lon="3.17811">
        <ele>1155.16</ele>
        <time>2012-05-14T09:07:40Z</time>
      </trkpt>
      <trkpt lat="44.7035" lon="3.1781">
        <ele>1155.16</ele>
        <time>2012-05-14T09:07:41Z</time>
      </trkpt>
      <trkpt lat="44.70349" lon="3.17808">
        <ele>1155.16</ele>
        <time>2012-05-14T09:07:42Z</time>
      </trkpt>
      <trkpt lat="44.70349" lon="3.17807">
        <ele>1155.16</ele>
        <time>2012-05-14T09:07:43Z</time>
      </trkpt>
      <trkpt lat="44.70348" lon="3.17805">
        <ele>1155.16</ele>
        <time>2012-05-14T09:07:44Z</time>
      </trkpt>
      <trkpt lat="44.70348" lon="3.17804">
        <ele>1155.16</ele>
        <time>2012-05-14T09:07:45Z</time>
      </trkpt>
      <trkpt lat="44.70347" lon="3.17803">
        <ele>1155.16</ele>
        <time>2012-05-14T09:07:46Z</time>
      </trkpt>
      <trkpt lat="44.70347" lon="3.17801">
        <ele>1155.16</ele>
        <time>2012-05-14T09:07:47Z</time>
      </trkpt>
      <trkpt lat="44.70346" lon="3.178">
        <ele>1155.16</ele>
        <time>2012-05-14T09:07:48Z</time>
      </trkpt>
      <trkpt lat="44.70346" lon="3.17798">
        <ele>1155.16</ele>
        <time>2012-05-14T09:07:49Z</time>
      </trkpt>
      <trkpt lat="44.70336" lon="3.17779">
        <ele>1155.64</ele>
        <time>2012-05-14T09:08:04Z</time>
      </trkpt>
      <trkpt lat="44.70332" lon="3.17771">
        <ele>1156.12</ele>
        <time>2012-05-14T09:08:18Z</time>
      </trkpt>
      <trkpt lat="44.70332" lon="3.17771">
        <ele>1156.12</ele>
        <time>2012-05-14T09:08:34Z</time>
      </trkpt>
      <trkpt lat="44.70331" lon="3.17771">
        <ele>1156.12</ele>
        <time>2012-05-14T09:08:58Z</time>
      </trkpt>
      <trkpt lat="44.70332" lon="3.17771">
        <ele>1156.12</ele>
        <time>2012-05-14T09:09:15Z</time>
      </trkpt>
      <trkpt lat="44.70332" lon="3.17771">
        <ele>1156.12</ele>
        <time>2012-05-14T09:09:38Z</time>
      </trkpt>
      <trkpt lat="44.70332" lon="3.17771">
        <ele>1156.12</ele>
        <time>2012-05-14T09:10:11Z</time>
      </trkpt>
      <trkpt lat="44.70332" lon="3.17772">
        <ele>1156.12</ele>
        <time>2012-05-14T09:10:39Z</time>
      </trkpt>
      <trkpt lat="44.70331" lon="3.17772">
        <ele>1156.12</ele>
        <time>2012-05-14T09:11:06Z</time>
      </trkpt>
      <trkpt lat="44.70331" lon="3.17772">
        <ele>1155.64</ele>
        <time>2012-05-14T09:11:43Z</time>
      </trkpt>
      <trkpt lat="44.70331" lon="3.17772">
        <ele>1155.64</ele>
        <time>2012-05-14T09:12:11Z</time>
      </trkpt>
      <trkpt lat="44.70331" lon="3.17771">
        <ele>1156.12</ele>
        <time>2012-05-14T09:12:40Z</time>
      </trkpt>
      <trkpt lat="44.70325" lon="3.17759">
        <ele>1156.12</ele>
        <time>2012-05-14T09:13:00Z</time>
      </trkpt>
      <trkpt lat="44.7032" lon="3.17746">
        <ele>1156.12</ele>
        <time>2012-05-14T09:13:12Z</time>
      </trkpt>
      <trkpt lat="44.7032" lon="3.17744">
        <ele>1156.6</ele>
        <time>2012-05-14T09:13:13Z</time>
      </trkpt>
      <trkpt lat="44.70311" lon="3.17725">
        <ele>1157.08</ele>
        <time>2012-05-14T09:13:28Z</time>
      </trkpt>
      <trkpt lat="44.70303" lon="3.17706">
        <ele>1158.53</ele>
        <time>2012-05-14T09:13:44Z</time>
      </trkpt>
      <trkpt lat="44.70293" lon="3.17688">
        <ele>1158.05</ele>
        <time>2012-05-14T09:14:00Z</time>
      </trkpt>
      <trkpt lat="44.70287" lon="3.17666">
        <ele>1158.05</ele>
        <time>2012-05-14T09:14:15Z</time>
      </trkpt>
      <trkpt lat="44.70285" lon="3.17656">
        <ele>1159.01</ele>
        <time>2012-05-14T09:14:22Z</time>
      </trkpt>
      <trkpt lat="44.70284" lon="3.17654">
        <ele>1159.01</ele>
        <time>2012-05-14T09:14:23Z</time>
      </trkpt>
      <trkpt lat="44.70284" lon="3.17652">
        <ele>1158.53</ele>
        <time>2012-05-14T09:14:24Z</time>
      </trkpt>
      <trkpt lat="44.70283" lon="3.17651">
        <ele>1158.53</ele>
        <time>2012-05-14T09:14:25Z</time>
      </trkpt>
      <trkpt lat="44.70283" lon="3.17649">
        <ele>1158.53</ele>
        <time>2012-05-14T09:14:26Z</time>
      </trkpt>
      <trkpt lat="44.70283" lon="3.17648">
        <ele>1159.01</ele>
        <time>2012-05-14T09:14:27Z</time>
      </trkpt>
      <trkpt lat="44.70279" lon="3.1763">
        <ele>1160.93</ele>
        <time>2012-05-14T09:14:40Z</time>
      </trkpt>
      <trkpt lat="44.70278" lon="3.17626">
        <ele>1161.41</ele>
        <time>2012-05-14T09:14:48Z</time>
      </trkpt>
      <trkpt lat="44.70276" lon="3.17623">
        <ele>1160.93</ele>
        <time>2012-05-14T09:14:50Z</time>
      </trkpt>
      <trkpt lat="44.70273" lon="3.17619">
        <ele>1160.45</ele>
        <time>2012-05-14T09:14:55Z</time>
      </trkpt>
      <trkpt lat="44.70267" lon="3.17599">
        <ele>1161.89</ele>
        <time>2012-05-14T09:15:09Z</time>
      </trkpt>
      <trkpt lat="44.70258" lon="3.17582">
        <ele>1163.33</ele>
        <time>2012-05-14T09:15:24Z</time>
      </trkpt>
      <trkpt lat="44.70252" lon="3.17572">
        <ele>1163.33</ele>
        <time>2012-05-14T09:15:32Z</time>
      </trkpt>
      <trkpt lat="44.70252" lon="3.1757">
        <ele>1163.33</ele>
        <time>2012-05-14T09:15:33Z</time>
      </trkpt>
      <trkpt lat="44.70251" lon="3.17569">
        <ele>1163.33</ele>
        <time>2012-05-14T09:15:34Z</time>
      </trkpt>
      <trkpt lat="44.70245" lon="3.17546">
        <ele>1164.29</ele>
        <time>2012-05-14T09:15:49Z</time>
      </trkpt>
      <trkpt lat="44.70241" lon="3.17519">
        <ele>1165.26</ele>
        <time>2012-05-14T09:16:06Z</time>
      </trkpt>
      <trkpt lat="44.70236" lon="3.1749">
        <ele>1164.29</ele>
        <time>2012-05-14T09:16:23Z</time>
      </trkpt>
      <trkpt lat="44.70237" lon="3.17462">
        <ele>1162.85</ele>
        <time>2012-05-14T09:16:39Z</time>
      </trkpt>
      <trkpt lat="44.70238" lon="3.17434">
        <ele>1161.41</ele>
        <time>2012-05-14T09:16:55Z</time>
      </trkpt>
      <trkpt lat="44.70234" lon="3.17424">
        <ele>1161.41</ele>
        <time>2012-05-14T09:17:08Z</time>
      </trkpt>
      <trkpt lat="44.70234" lon="3.17424">
        <ele>1161.89</ele>
        <time>2012-05-14T09:17:24Z</time>
      </trkpt>
      <trkpt lat="44.70234" lon="3.17424">
        <ele>1162.37</ele>
        <time>2012-05-14T09:17:53Z</time>
      </trkpt>
      <trkpt lat="44.70234" lon="3.17423">
        <ele>1161.89</ele>
        <time>2012-05-14T09:18:10Z</time>
      </trkpt>
      <trkpt lat="44.70234" lon="3.17423">
        <ele>1162.37</ele>
        <time>2012-05-14T09:18:26Z</time>
      </trkpt>
      <trkpt lat="44.70234" lon="3.17423">
        <ele>1162.37</ele>
        <time>2012-05-14T09:18:59Z</time>
      </trkpt>
      <trkpt lat="44.70234" lon="3.17423">
        <ele>1161.89</ele>
        <time>2012-05-14T09:19:31Z</time>
      </trkpt>
      <trkpt lat="44.70234" lon="3.17423">
        <ele>1161.89</ele>
        <time>2012-05-14T09:20:00Z</time>
      </trkpt>
      <trkpt lat="44.70234" lon="3.17423">
        <ele>1161.89</ele>
        <time>2012-05-14T09:20:30Z</time>
      </trkpt>
      <trkpt lat="44.70234" lon="3.17425">
        <ele>1162.37</ele>
        <time>2012-05-14T09:20:57Z</time>
      </trkpt>
      <trkpt lat="44.70233" lon="3.17424">
        <ele>1162.37</ele>
        <time>2012-05-14T09:21:11Z</time>
      </trkpt>
      <trkpt lat="44.70233" lon="3.17424">
        <ele>1162.37</ele>
        <time>2012-05-14T09:21:38Z</time>
      </trkpt>
      <trkpt lat="44.70233" lon="3.17424">
        <ele>1162.85</ele>
        <time>2012-05-14T09:22:07Z</time>
      </trkpt>
      <trkpt lat="44.70233" lon="3.17424">
        <ele>1162.85</ele>
        <time>2012-05-14T09:22:42Z</time>
      </trkpt>
      <trkpt lat="44.70233" lon="3.17423">
        <ele>1162.85</ele>
        <time>2012-05-14T09:23:15Z</time>
      </trkpt>
      <trkpt lat="44.70233" lon="3.17423">
        <ele>1162.85</ele>
        <time>2012-05-14T09:23:48Z</time>
      </trkpt>
      <trkpt lat="44.70233" lon="3.17423">
        <ele>1162.85</ele>
        <time>2012-05-14T09:24:28Z</time>
      </trkpt>
      <trkpt lat="44.70233" lon="3.17423">
        <ele>1162.85</ele>
        <time>2012-05-14T09:25:01Z</time>
      </trkpt>
      <trkpt lat="44.70233" lon="3.17423">
        <ele>1162.85</ele>
        <time>2012-05-14T09:25:37Z</time>
      </trkpt>
      <trkpt lat="44.70233" lon="3.17423">
        <ele>1162.85</ele>
        <time>2012-05-14T09:26:05Z</time>
      </trkpt>
      <trkpt lat="44.70233" lon="3.17424">
        <ele>1162.85</ele>
        <time>2012-05-14T09:26:47Z</time>
      </trkpt>
      <trkpt lat="44.70233" lon="3.17424">
        <ele>1162.85</ele>
        <time>2012-05-14T09:27:25Z</time>
      </trkpt>
      <trkpt lat="44.70233" lon="3.17424">
        <ele>1163.33</ele>
        <time>2012-05-14T09:27:59Z</time>
      </trkpt>
      <trkpt lat="44.70233" lon="3.17424">
        <ele>1163.33</ele>
        <time>2012-05-14T09:28:36Z</time>
      </trkpt>
      <trkpt lat="44.70233" lon="3.17424">
        <ele>1163.33</ele>
        <time>2012-05-14T09:29:07Z</time>
      </trkpt>
      <trkpt lat="44.70232" lon="3.17424">
        <ele>1162.85</ele>
        <time>2012-05-14T09:29:40Z</time>
      </trkpt>
      <trkpt lat="44.70232" lon="3.17424">
        <ele>1162.85</ele>
        <time>2012-05-14T09:30:17Z</time>
      </trkpt>
      <trkpt lat="44.70235" lon="3.17424">
        <ele>1162.85</ele>
        <time>2012-05-14T09:30:40Z</time>
      </trkpt>
      <trkpt lat="44.70237" lon="3.17418">
        <ele>1162.85</ele>
        <time>2012-05-14T09:30:54Z</time>
      </trkpt>
      <trkpt lat="44.70237" lon="3.17415">
        <ele>1163.33</ele>
        <time>2012-05-14T09:30:58Z</time>
      </trkpt>
      <trkpt lat="44.70238" lon="3.17386">
        <ele>1161.89</ele>
        <time>2012-05-14T09:31:16Z</time>
      </trkpt>
      <trkpt lat="44.70238" lon="3.17366">
        <ele>1161.41</ele>
        <time>2012-05-14T09:31:29Z</time>
      </trkpt>
      <trkpt lat="44.70239" lon="3.17364">
        <ele>1161.41</ele>
        <time>2012-05-14T09:31:30Z</time>
      </trkpt>
      <trkpt lat="44.70239" lon="3.17363">
        <ele>1161.41</ele>
        <time>2012-05-14T09:31:31Z</time>
      </trkpt>
      <trkpt lat="44.7024" lon="3.17361">
        <ele>1161.41</ele>
        <time>2012-05-14T09:31:32Z</time>
      </trkpt>
      <trkpt lat="44.7024" lon="3.1736">
        <ele>1161.41</ele>
        <time>2012-05-14T09:31:33Z</time>
      </trkpt>
      <trkpt lat="44.7024" lon="3.17358">
        <ele>1161.41</ele>
        <time>2012-05-14T09:31:34Z</time>
      </trkpt>
      <trkpt lat="44.70241" lon="3.17357">
        <ele>1161.41</ele>
        <time>2012-05-14T09:31:35Z</time>
      </trkpt>
      <trkpt lat="44.70241" lon="3.17355">
        <ele>1160.93</ele>
        <time>2012-05-14T09:31:36Z</time>
      </trkpt>
      <trkpt lat="44.70242" lon="3.17353">
        <ele>1160.93</ele>
        <time>2012-05-14T09:31:37Z</time>
      </trkpt>
      <trkpt lat="44.70242" lon="3.17352">
        <ele>1160.93</ele>
        <time>2012-05-14T09:31:38Z</time>
      </trkpt>
      <trkpt lat="44.70242" lon="3.1735">
        <ele>1160.93</ele>
        <time>2012-05-14T09:31:39Z</time>
      </trkpt>
      <trkpt lat="44.70242" lon="3.17349">
        <ele>1160.93</ele>
        <time>2012-05-14T09:31:40Z</time>
      </trkpt>
      <trkpt lat="44.70251" lon="3.17321">
        <ele>1159.01</ele>
        <time>2012-05-14T09:31:57Z</time>
      </trkpt>
      <trkpt lat="44.70253" lon="3.17315">
        <ele>1159.01</ele>
        <time>2012-05-14T09:32:01Z</time>
      </trkpt>
      <trkpt lat="44.70256" lon="3.17288">
        <ele>1157.08</ele>
        <time>2012-05-14T09:32:18Z</time>
      </trkpt>
      <trkpt lat="44.70255" lon="3.17279">
        <ele>1156.6</ele>
        <time>2012-05-14T09:32:32Z</time>
      </trkpt>
      <trkpt lat="44.70257" lon="3.17264">
        <ele>1155.64</ele>
        <time>2012-05-14T09:32:45Z</time>
      </trkpt>
      <trkpt lat="44.70259" lon="3.17256">
        <ele>1154.68</ele>
        <time>2012-05-14T09:32:59Z</time>
      </trkpt>
      <trkpt lat="44.70262" lon="3.17248">
        <ele>1155.16</ele>
        <time>2012-05-14T09:33:14Z</time>
      </trkpt>
      <trkpt lat="44.70265" lon="3.17241">
        <ele>1155.16</ele>
        <time>2012-05-14T09:33:30Z</time>
      </trkpt>
      <trkpt lat="44.70265" lon="3.17241">
        <ele>1155.16</ele>
        <time>2012-05-14T09:33:53Z</time>
      </trkpt>
      <trkpt lat="44.70269" lon="3.17233">
        <ele>1155.64</ele>
        <time>2012-05-14T09:34:24Z</time>
      </trkpt>
      <trkpt lat="44.7028" lon="3.17207">
        <ele>1156.6</ele>
        <time>2012-05-14T09:34:42Z</time>
      </trkpt>
      <trkpt lat="44.70284" lon="3.17199">
        <ele>1157.08</ele>
        <time>2012-05-14T09:34:58Z</time>
      </trkpt>
      <trkpt lat="44.70288" lon="3.17192">
        <ele>1156.12</ele>
        <time>2012-05-14T09:35:13Z</time>
      </trkpt>
      <trkpt lat="44.70291" lon="3.17182">
        <ele>1156.6</ele>
        <time>2012-05-14T09:35:30Z</time>
      </trkpt>
      <trkpt lat="44.70293" lon="3.17175">
        <ele>1156.6</ele>
        <time>2012-05-14T09:35:46Z</time>
      </trkpt>
      <trkpt lat="44.70294" lon="3.17174">
        <ele>1157.08</ele>
        <time>2012-05-14T09:36:10Z</time>
      </trkpt>
      <trkpt lat="44.70299" lon="3.17159">
        <ele>1157.56</ele>
        <time>2012-05-14T09:36:25Z</time>
      </trkpt>
      <trkpt lat="44.70299" lon="3.17155">
        <ele>1158.05</ele>
        <time>2012-05-14T09:36:46Z</time>
      </trkpt>
      <trkpt lat="44.703" lon="3.17152">
        <ele>1158.05</ele>
        <time>2012-05-14T09:37:00Z</time>
      </trkpt>
      <trkpt lat="44.703" lon="3.17146">
        <ele>1158.05</ele>
        <time>2012-05-14T09:37:15Z</time>
      </trkpt>
      <trkpt lat="44.70304" lon="3.17141">
        <ele>1158.05</ele>
        <time>2012-05-14T09:37:29Z</time>
      </trkpt>
      <trkpt lat="44.70306" lon="3.17134">
        <ele>1158.05</ele>
        <time>2012-05-14T09:37:42Z</time>
      </trkpt>
      <trkpt lat="44.70307" lon="3.17132">
        <ele>1158.05</ele>
        <time>2012-05-14T09:37:58Z</time>
      </trkpt>
      <trkpt lat="44.70312" lon="3.17129">
        <ele>1157.56</ele>
        <time>2012-05-14T09:38:11Z</time>
      </trkpt>
      <trkpt lat="44.70311" lon="3.17129">
        <ele>1158.05</ele>
        <time>2012-05-14T09:38:24Z</time>
      </trkpt>
      <trkpt lat="44.70311" lon="3.17129">
        <ele>1158.05</ele>
        <time>2012-05-14T09:38:45Z</time>
      </trkpt>
      <trkpt lat="44.70311" lon="3.17129">
        <ele>1158.53</ele>
        <time>2012-05-14T09:39:05Z</time>
      </trkpt>
      <trkpt lat="44.7031" lon="3.17124">
        <ele>1159.01</ele>
        <time>2012-05-14T09:39:19Z</time>
      </trkpt>
      <trkpt lat="44.70308" lon="3.17118">
        <ele>1160.45</ele>
        <time>2012-05-14T09:39:32Z</time>
      </trkpt>
      <trkpt lat="44.70308" lon="3.17118">
        <ele>1160.45</ele>
        <time>2012-05-14T09:39:47Z</time>
      </trkpt>
      <trkpt lat="44.70309" lon="3.17118">
        <ele>1160.45</ele>
        <time>2012-05-14T09:39:48Z</time>
      </trkpt>
      <trkpt lat="44.7031" lon="3.17114">
        <ele>1160.45</ele>
        <time>2012-05-14T09:39:50Z</time>
      </trkpt>
      <trkpt lat="44.7031" lon="3.17112">
        <ele>1160.45</ele>
        <time>2012-05-14T09:39:51Z</time>
      </trkpt>
      <trkpt lat="44.70314" lon="3.17094">
        <ele>1160.93</ele>
        <time>2012-05-14T09:40:02Z</time>
      </trkpt>
      <trkpt lat="44.70315" lon="3.17093">
        <ele>1160.45</ele>
        <time>2012-05-14T09:40:03Z</time>
      </trkpt>
      <trkpt lat="44.70315" lon="3.17092">
        <ele>1160.45</ele>
        <time>2012-05-14T09:40:04Z</time>
      </trkpt>
      <trkpt lat="44.70316" lon="3.17091">
        <ele>1160.45</ele>
        <time>2012-05-14T09:40:05Z</time>
      </trkpt>
      <trkpt lat="44.70317" lon="3.17089">
        <ele>1160.45</ele>
        <time>2012-05-14T09:40:07Z</time>
      </trkpt>
      <trkpt lat="44.70317" lon="3.17087">
        <ele>1160.45</ele>
        <time>2012-05-14T09:40:08Z</time>
      </trkpt>
      <trkpt lat="44.70319" lon="3.17065">
        <ele>1161.41</ele>
        <time>2012-05-14T09:40:23Z</time>
      </trkpt>
      <trkpt lat="44.70325" lon="3.1704">
        <ele>1159.49</ele>
        <time>2012-05-14T09:40:39Z</time>
      </trkpt>
      <trkpt lat="44.70333" lon="3.17013">
        <ele>1155.64</ele>
        <time>2012-05-14T09:40:56Z</time>
      </trkpt>
      <trkpt lat="44.7034" lon="3.16986">
        <ele>1153.72</ele>
        <time>2012-05-14T09:41:11Z</time>
      </trkpt>
      <trkpt lat="44.70346" lon="3.16955">
        <ele>1154.2</ele>
        <time>2012-05-14T09:41:29Z</time>
      </trkpt>
      <trkpt lat="44.70348" lon="3.16923">
        <ele>1156.12</ele>
        <time>2012-05-14T09:41:47Z</time>
      </trkpt>
      <trkpt lat="44.7035" lon="3.16905">
        <ele>1156.6</ele>
        <time>2012-05-14T09:42:03Z</time>
      </trkpt>
      <trkpt lat="44.7035" lon="3.16903">
        <ele>1156.6</ele>
        <time>2012-05-14T09:42:22Z</time>
      </trkpt>
      <trkpt lat="44.70348" lon="3.16885">
        <ele>1155.64</ele>
        <time>2012-05-14T09:42:35Z</time>
      </trkpt>
      <trkpt lat="44.70349" lon="3.16853">
        <ele>1156.12</ele>
        <time>2012-05-14T09:42:53Z</time>
      </trkpt>
      <trkpt lat="44.70348" lon="3.16851">
        <ele>1156.12</ele>
        <time>2012-05-14T09:42:54Z</time>
      </trkpt>
      <trkpt lat="44.70348" lon="3.1685">
        <ele>1156.12</ele>
        <time>2012-05-14T09:42:55Z</time>
      </trkpt>
      <trkpt lat="44.70347" lon="3.16848">
        <ele>1156.12</ele>
        <time>2012-05-14T09:42:56Z</time>
      </trkpt>
      <trkpt lat="44.70347" lon="3.16847">
        <ele>1156.12</ele>
        <time>2012-05-14T09:42:57Z</time>
      </trkpt>
      <trkpt lat="44.70346" lon="3.16842">
        <ele>1156.12</ele>
        <time>2012-05-14T09:43:00Z</time>
      </trkpt>
      <trkpt lat="44.70346" lon="3.16841">
        <ele>1156.12</ele>
        <time>2012-05-14T09:43:01Z</time>
      </trkpt>
      <trkpt lat="44.70346" lon="3.16839">
        <ele>1156.12</ele>
        <time>2012-05-14T09:43:02Z</time>
      </trkpt>
      <trkpt lat="44.70346" lon="3.16837">
        <ele>1156.12</ele>
        <time>2012-05-14T09:43:03Z</time>
      </trkpt>
      <trkpt lat="44.70346" lon="3.16836">
        <ele>1156.12</ele>
        <time>2012-05-14T09:43:04Z</time>
      </trkpt>
      <trkpt lat="44.70346" lon="3.16834">
        <ele>1156.12</ele>
        <time>2012-05-14T09:43:05Z</time>
      </trkpt>
      <trkpt lat="44.70346" lon="3.16832">
        <ele>1156.12</ele>
        <time>2012-05-14T09:43:06Z</time>
      </trkpt>
      <trkpt lat="44.70346" lon="3.1683">
        <ele>1156.6</ele>
        <time>2012-05-14T09:43:07Z</time>
      </trkpt>
      <trkpt lat="44.70341" lon="3.16802">
        <ele>1156.12</ele>
        <time>2012-05-14T09:43:23Z</time>
      </trkpt>
      <trkpt lat="44.70333" lon="3.16775">
        <ele>1156.12</ele>
        <time>2012-05-14T09:43:39Z</time>
      </trkpt>
      <trkpt lat="44.70323" lon="3.16749">
        <ele>1155.64</ele>
        <time>2012-05-14T09:43:56Z</time>
      </trkpt>
      <trkpt lat="44.70314" lon="3.16728">
        <ele>1155.16</ele>
        <time>2012-05-14T09:44:10Z</time>
      </trkpt>
      <trkpt lat="44.70303" lon="3.16702">
        <ele>1154.2</ele>
        <time>2012-05-14T09:44:27Z</time>
      </trkpt>
      <trkpt lat="44.70287" lon="3.16683">
        <ele>1153.24</ele>
        <time>2012-05-14T09:44:44Z</time>
      </trkpt>
      <trkpt lat="44.7027" lon="3.16669">
        <ele>1154.2</ele>
        <time>2012-05-14T09:44:59Z</time>
      </trkpt>
      <trkpt lat="44.70254" lon="3.16655">
        <ele>1154.68</ele>
        <time>2012-05-14T09:45:15Z</time>
      </trkpt>
      <trkpt lat="44.70242" lon="3.16636">
        <ele>1154.2</ele>
        <time>2012-05-14T09:45:30Z</time>
      </trkpt>
      <trkpt lat="44.70242" lon="3.16634">
        <ele>1154.2</ele>
        <time>2012-05-14T09:45:31Z</time>
      </trkpt>
      <trkpt lat="44.70242" lon="3.16632">
        <ele>1154.2</ele>
        <time>2012-05-14T09:45:32Z</time>
      </trkpt>
      <trkpt lat="44.70234" lon="3.16612">
        <ele>1154.68</ele>
        <time>2012-05-14T09:45:47Z</time>
      </trkpt>
      <trkpt lat="44.70233" lon="3.16604">
        <ele>1155.16</ele>
        <time>2012-05-14T09:45:54Z</time>
      </trkpt>
      <trkpt lat="44.70233" lon="3.16586">
        <ele>1154.68</ele>
        <time>2012-05-14T09:46:07Z</time>
      </trkpt>
      <trkpt lat="44.70228" lon="3.16578">
        <ele>1154.2</ele>
        <time>2012-05-14T09:46:20Z</time>
      </trkpt>
      <trkpt lat="44.70225" lon="3.16568">
        <ele>1153.72</ele>
        <time>2012-05-14T09:46:31Z</time>
      </trkpt>
      <trkpt lat="44.70224" lon="3.16566">
        <ele>1153.72</ele>
        <time>2012-05-14T09:46:32Z</time>
      </trkpt>
      <trkpt lat="44.70223" lon="3.16565">
        <ele>1153.72</ele>
        <time>2012-05-14T09:46:33Z</time>
      </trkpt>
      <trkpt lat="44.70221" lon="3.16564">
        <ele>1154.2</ele>
        <time>2012-05-14T09:46:44Z</time>
      </trkpt>
      <trkpt lat="44.70217" lon="3.16555">
        <ele>1154.2</ele>
        <time>2012-05-14T09:46:57Z</time>
      </trkpt>
      <trkpt lat="44.70206" lon="3.16533">
        <ele>1156.6</ele>
        <time>2012-05-14T09:47:15Z</time>
      </trkpt>
      <trkpt lat="44.70196" lon="3.16518">
        <ele>1158.53</ele>
        <time>2012-05-14T09:47:31Z</time>
      </trkpt>
      <trkpt lat="44.70184" lon="3.16499">
        <ele>1158.53</ele>
        <time>2012-05-14T09:47:47Z</time>
      </trkpt>
      <trkpt lat="44.70171" lon="3.16478">
        <ele>1157.56</ele>
        <time>2012-05-14T09:48:04Z</time>
      </trkpt>
      <trkpt lat="44.70163" lon="3.16452">
        <ele>1158.53</ele>
        <time>2012-05-14T09:48:21Z</time>
      </trkpt>
      <trkpt lat="44.70156" lon="3.16427">
        <ele>1159.01</ele>
        <time>2012-05-14T09:48:37Z</time>
      </trkpt>
      <trkpt lat="44.70151" lon="3.16402">
        <ele>1159.01</ele>
        <time>2012-05-14T09:48:53Z</time>
      </trkpt>
      <trkpt lat="44.70146" lon="3.16381">
        <ele>1160.93</ele>
        <time>2012-05-14T09:49:08Z</time>
      </trkpt>
      <trkpt lat="44.70145" lon="3.16372">
        <ele>1162.37</ele>
        <time>2012-05-14T09:49:24Z</time>
      </trkpt>
      <trkpt lat="44.70143" lon="3.1637">
        <ele>1163.33</ele>
        <time>2012-05-14T09:49:27Z</time>
      </trkpt>
      <trkpt lat="44.70142" lon="3.16369">
        <ele>1163.33</ele>
        <time>2012-05-14T09:49:28Z</time>
      </trkpt>
      <trkpt lat="44.70135" lon="3.16365">
        <ele>1163.33</ele>
        <time>2012-05-14T09:49:42Z</time>
      </trkpt>
      <trkpt lat="44.70134" lon="3.16364">
        <ele>1163.33</ele>
        <time>2012-05-14T09:49:43Z</time>
      </trkpt>
      <trkpt lat="44.70134" lon="3.16362">
        <ele>1163.33</ele>
        <time>2012-05-14T09:49:44Z</time>
      </trkpt>
      <trkpt lat="44.70132" lon="3.1636">
        <ele>1163.33</ele>
        <time>2012-05-14T09:49:55Z</time>
      </trkpt>
      <trkpt lat="44.70121" lon="3.16343">
        <ele>1161.89</ele>
        <time>2012-05-14T09:50:09Z</time>
      </trkpt>
      <trkpt lat="44.7011" lon="3.16326">
        <ele>1162.37</ele>
        <time>2012-05-14T09:50:25Z</time>
      </trkpt>
      <trkpt lat="44.70101" lon="3.16313">
        <ele>1161.89</ele>
        <time>2012-05-14T09:50:40Z</time>
      </trkpt>
      <trkpt lat="44.70101" lon="3.16313">
        <ele>1161.89</ele>
        <time>2012-05-14T09:51:04Z</time>
      </trkpt>
      <trkpt lat="44.70094" lon="3.16303">
        <ele>1160.93</ele>
        <time>2012-05-14T09:51:19Z</time>
      </trkpt>
      <trkpt lat="44.70083" lon="3.16286">
        <ele>1162.85</ele>
        <time>2012-05-14T09:51:34Z</time>
      </trkpt>
      <trkpt lat="44.70081" lon="3.16285">
        <ele>1162.85</ele>
        <time>2012-05-14T09:51:45Z</time>
      </trkpt>
      <trkpt lat="44.70081" lon="3.16285">
        <ele>1163.33</ele>
        <time>2012-05-14T09:52:05Z</time>
      </trkpt>
      <trkpt lat="44.70081" lon="3.16284">
        <ele>1163.81</ele>
        <time>2012-05-14T09:52:27Z</time>
      </trkpt>
      <trkpt lat="44.70081" lon="3.16283">
        <ele>1163.81</ele>
        <time>2012-05-14T09:52:28Z</time>
      </trkpt>
      <trkpt lat="44.7008" lon="3.1628">
        <ele>1163.81</ele>
        <time>2012-05-14T09:52:30Z</time>
      </trkpt>
      <trkpt lat="44.7007" lon="3.16264">
        <ele>1163.33</ele>
        <time>2012-05-14T09:52:44Z</time>
      </trkpt>
      <trkpt lat="44.70062" lon="3.1624">
        <ele>1162.37</ele>
        <time>2012-05-14T09:53:00Z</time>
      </trkpt>
      <trkpt lat="44.70051" lon="3.1622">
        <ele>1164.77</ele>
        <time>2012-05-14T09:53:15Z</time>
      </trkpt>
      <trkpt lat="44.7005" lon="3.16215">
        <ele>1164.77</ele>
        <time>2012-05-14T09:53:28Z</time>
      </trkpt>
      <trkpt lat="44.70049" lon="3.16213">
        <ele>1164.77</ele>
        <time>2012-05-14T09:53:42Z</time>
      </trkpt>
      <trkpt lat="44.70045" lon="3.16207">
        <ele>1165.26</ele>
        <time>2012-05-14T09:53:53Z</time>
      </trkpt>
      <trkpt lat="44.70042" lon="3.16203">
        <ele>1165.26</ele>
        <time>2012-05-14T09:54:04Z</time>
      </trkpt>
      <trkpt lat="44.70039" lon="3.16196">
        <ele>1165.74</ele>
        <time>2012-05-14T09:54:24Z</time>
      </trkpt>
      <trkpt lat="44.70026" lon="3.16174">
        <ele>1166.7</ele>
        <time>2012-05-14T09:54:40Z</time>
      </trkpt>
      <trkpt lat="44.70017" lon="3.16163">
        <ele>1166.7</ele>
        <time>2012-05-14T09:54:54Z</time>
      </trkpt>
      <trkpt lat="44.70017" lon="3.16163">
        <ele>1166.7</ele>
        <time>2012-05-14T09:55:00Z</time>
      </trkpt>
      <trkpt lat="44.70016" lon="3.16162">
        <ele>1166.7</ele>
        <time>2012-05-14T09:55:01Z</time>
      </trkpt>
      <trkpt lat="44.70015" lon="3.16162">
        <ele>1166.7</ele>
        <time>2012-05-14T09:55:02Z</time>
      </trkpt>
      <trkpt lat="44.70014" lon="3.16161">
        <ele>1166.7</ele>
        <time>2012-05-14T09:55:03Z</time>
      </trkpt>
      <trkpt lat="44.70013" lon="3.16159">
        <ele>1166.22</ele>
        <time>2012-05-14T09:55:04Z</time>
      </trkpt>
      <trkpt lat="44.70013" lon="3.16158">
        <ele>1166.22</ele>
        <time>2012-05-14T09:55:05Z</time>
      </trkpt>
      <trkpt lat="44.70012" lon="3.16157">
        <ele>1166.22</ele>
        <time>2012-05-14T09:55:06Z</time>
      </trkpt>
      <trkpt lat="44.70011" lon="3.16156">
        <ele>1166.22</ele>
        <time>2012-05-14T09:55:07Z</time>
      </trkpt>
      <trkpt lat="44.7001" lon="3.16155">
        <ele>1166.22</ele>
        <time>2012-05-14T09:55:08Z</time>
      </trkpt>
      <trkpt lat="44.69994" lon="3.1614">
        <ele>1165.74</ele>
        <time>2012-05-14T09:55:24Z</time>
      </trkpt>
      <trkpt lat="44.69989" lon="3.16135">
        <ele>1164.77</ele>
        <time>2012-05-14T09:55:38Z</time>
      </trkpt>
      <trkpt lat="44.6998" lon="3.1613">
        <ele>1164.77</ele>
        <time>2012-05-14T09:55:58Z</time>
      </trkpt>
      <trkpt lat="44.69972" lon="3.16124">
        <ele>1164.77</ele>
        <time>2012-05-14T09:56:11Z</time>
      </trkpt>
      <trkpt lat="44.69953" lon="3.1611">
        <ele>1164.29</ele>
        <time>2012-05-14T09:56:28Z</time>
      </trkpt>
      <trkpt lat="44.69933" lon="3.16095">
        <ele>1164.29</ele>
        <time>2012-05-14T09:56:46Z</time>
      </trkpt>
      <trkpt lat="44.69914" lon="3.16082">
        <ele>1163.81</ele>
        <time>2012-05-14T09:57:03Z</time>
      </trkpt>
      <trkpt lat="44.69893" lon="3.16069">
        <ele>1163.33</ele>
        <time>2012-05-14T09:57:21Z</time>
      </trkpt>
      <trkpt lat="44.69891" lon="3.16068">
        <ele>1163.33</ele>
        <time>2012-05-14T09:57:23Z</time>
      </trkpt>
      <trkpt lat="44.69878" lon="3.1606">
        <ele>1163.81</ele>
        <time>2012-05-14T09:57:37Z</time>
      </trkpt>
      <trkpt lat="44.69862" lon="3.16049">
        <ele>1163.33</ele>
        <time>2012-05-14T09:57:52Z</time>
      </trkpt>
      <trkpt lat="44.69861" lon="3.16049">
        <ele>1163.33</ele>
        <time>2012-05-14T09:57:53Z</time>
      </trkpt>
      <trkpt lat="44.69859" lon="3.16048">
        <ele>1163.33</ele>
        <time>2012-05-14T09:57:54Z</time>
      </trkpt>
      <trkpt lat="44.69858" lon="3.16047">
        <ele>1163.33</ele>
        <time>2012-05-14T09:57:55Z</time>
      </trkpt>
      <trkpt lat="44.69857" lon="3.16046">
        <ele>1163.33</ele>
        <time>2012-05-14T09:57:56Z</time>
      </trkpt>
      <trkpt lat="44.69832" lon="3.16036">
        <ele>1163.33</ele>
        <time>2012-05-14T09:58:16Z</time>
      </trkpt>
      <trkpt lat="44.6981" lon="3.16029">
        <ele>1163.33</ele>
        <time>2012-05-14T09:58:34Z</time>
      </trkpt>
      <trkpt lat="44.69789" lon="3.16032">
        <ele>1162.85</ele>
        <time>2012-05-14T09:58:51Z</time>
      </trkpt>
      <trkpt lat="44.69779" lon="3.16037">
        <ele>1163.81</ele>
        <time>2012-05-14T09:59:03Z</time>
      </trkpt>
      <trkpt lat="44.69775" lon="3.16041">
        <ele>1164.29</ele>
        <time>2012-05-14T09:59:16Z</time>
      </trkpt>
      <trkpt lat="44.69773" lon="3.16044">
        <ele>1164.77</ele>
        <time>2012-05-14T09:59:29Z</time>
      </trkpt>
      <trkpt lat="44.69773" lon="3.16044">
        <ele>1164.77</ele>
        <time>2012-05-14T09:59:56Z</time>
      </trkpt>
      <trkpt lat="44.69762" lon="3.16045">
        <ele>1164.29</ele>
        <time>2012-05-14T10:00:12Z</time>
      </trkpt>
      <trkpt lat="44.69742" lon="3.16045">
        <ele>1164.29</ele>
        <time>2012-05-14T10:00:28Z</time>
      </trkpt>
      <trkpt lat="44.69727" lon="3.16027">
        <ele>1164.29</ele>
        <time>2012-05-14T10:00:45Z</time>
      </trkpt>
      <trkpt lat="44.6972" lon="3.16019">
        <ele>1166.22</ele>
        <time>2012-05-14T10:00:59Z</time>
      </trkpt>
      <trkpt lat="44.69719" lon="3.16018">
        <ele>1166.22</ele>
        <time>2012-05-14T10:01:02Z</time>
      </trkpt>
      <trkpt lat="44.69704" lon="3.16001">
        <ele>1167.18</ele>
        <time>2012-05-14T10:01:18Z</time>
      </trkpt>
      <trkpt lat="44.69686" lon="3.15983">
        <ele>1168.62</ele>
        <time>2012-05-14T10:01:36Z</time>
      </trkpt>
      <trkpt lat="44.69673" lon="3.15969">
        <ele>1169.1</ele>
        <time>2012-05-14T10:01:50Z</time>
      </trkpt>
      <trkpt lat="44.69666" lon="3.15963">
        <ele>1169.1</ele>
        <time>2012-05-14T10:02:06Z</time>
      </trkpt>
      <trkpt lat="44.69653" lon="3.15944">
        <ele>1169.1</ele>
        <time>2012-05-14T10:02:22Z</time>
      </trkpt>
      <trkpt lat="44.69643" lon="3.1592">
        <ele>1168.62</ele>
        <time>2012-05-14T10:02:38Z</time>
      </trkpt>
      <trkpt lat="44.69635" lon="3.15904">
        <ele>1169.1</ele>
        <time>2012-05-14T10:02:50Z</time>
      </trkpt>
      <trkpt lat="44.69632" lon="3.15902">
        <ele>1168.62</ele>
        <time>2012-05-14T10:02:53Z</time>
      </trkpt>
      <trkpt lat="44.69631" lon="3.15901">
        <ele>1168.62</ele>
        <time>2012-05-14T10:02:54Z</time>
      </trkpt>
      <trkpt lat="44.6963" lon="3.15899">
        <ele>1168.62</ele>
        <time>2012-05-14T10:02:55Z</time>
      </trkpt>
      <trkpt lat="44.69618" lon="3.15882">
        <ele>1166.7</ele>
        <time>2012-05-14T10:03:11Z</time>
      </trkpt>
      <trkpt lat="44.69605" lon="3.15866">
        <ele>1165.26</ele>
        <time>2012-05-14T10:03:26Z</time>
      </trkpt>
      <trkpt lat="44.69593" lon="3.1585">
        <ele>1163.81</ele>
        <time>2012-05-14T10:03:40Z</time>
      </trkpt>
      <trkpt lat="44.69572" lon="3.15836">
        <ele>1162.85</ele>
        <time>2012-05-14T10:03:58Z</time>
      </trkpt>
      <trkpt lat="44.69563" lon="3.15831">
        <ele>1162.37</ele>
        <time>2012-05-14T10:04:11Z</time>
      </trkpt>
      <trkpt lat="44.69547" lon="3.1582">
        <ele>1162.37</ele>
        <time>2012-05-14T10:04:25Z</time>
      </trkpt>
      <trkpt lat="44.6953" lon="3.15802">
        <ele>1160.93</ele>
        <time>2012-05-14T10:04:42Z</time>
      </trkpt>
      <trkpt lat="44.6951" lon="3.15782">
        <ele>1159.97</ele>
        <time>2012-05-14T10:05:01Z</time>
      </trkpt>
      <trkpt lat="44.69491" lon="3.15766">
        <ele>1160.93</ele>
        <time>2012-05-14T10:05:18Z</time>
      </trkpt>
      <trkpt lat="44.69475" lon="3.15752">
        <ele>1160.45</ele>
        <time>2012-05-14T10:05:33Z</time>
      </trkpt>
      <trkpt lat="44.6946" lon="3.15736">
        <ele>1159.01</ele>
        <time>2012-05-14T10:05:50Z</time>
      </trkpt>
      <trkpt lat="44.69457" lon="3.15733">
        <ele>1159.01</ele>
        <time>2012-05-14T10:05:54Z</time>
      </trkpt>
      <trkpt lat="44.69445" lon="3.15714">
        <ele>1159.49</ele>
        <time>2012-05-14T10:06:09Z</time>
      </trkpt>
      <trkpt lat="44.69432" lon="3.15699">
        <ele>1160.93</ele>
        <time>2012-05-14T10:06:23Z</time>
      </trkpt>
      <trkpt lat="44.69428" lon="3.15694">
        <ele>1161.41</ele>
        <time>2012-05-14T10:06:27Z</time>
      </trkpt>
      <trkpt lat="44.69414" lon="3.15681">
        <ele>1161.41</ele>
        <time>2012-05-14T10:06:41Z</time>
      </trkpt>
      <trkpt lat="44.69403" lon="3.15667">
        <ele>1162.85</ele>
        <time>2012-05-14T10:06:53Z</time>
      </trkpt>
      <trkpt lat="44.69402" lon="3.15665">
        <ele>1162.85</ele>
        <time>2012-05-14T10:06:54Z</time>
      </trkpt>
      <trkpt lat="44.69401" lon="3.15664">
        <ele>1162.85</ele>
        <time>2012-05-14T10:06:55Z</time>
      </trkpt>
      <trkpt lat="44.69383" lon="3.15648">
        <ele>1162.85</ele>
        <time>2012-05-14T10:07:12Z</time>
      </trkpt>
      <trkpt lat="44.69362" lon="3.15639">
        <ele>1162.37</ele>
        <time>2012-05-14T10:07:28Z</time>
      </trkpt>
      <trkpt lat="44.69343" lon="3.15628">
        <ele>1161.41</ele>
        <time>2012-05-14T10:07:45Z</time>
      </trkpt>
      <trkpt lat="44.69329" lon="3.15608">
        <ele>1160.45</ele>
        <time>2012-05-14T10:08:02Z</time>
      </trkpt>
      <trkpt lat="44.69326" lon="3.15602">
        <ele>1160.93</ele>
        <time>2012-05-14T10:08:07Z</time>
      </trkpt>
      <trkpt lat="44.69324" lon="3.15599">
        <ele>1161.41</ele>
        <time>2012-05-14T10:08:21Z</time>
      </trkpt>
      <trkpt lat="44.69326" lon="3.15596">
        <ele>1161.41</ele>
        <time>2012-05-14T10:08:34Z</time>
      </trkpt>
      <trkpt lat="44.69325" lon="3.15594">
        <ele>1161.41</ele>
        <time>2012-05-14T10:08:36Z</time>
      </trkpt>
      <trkpt lat="44.69324" lon="3.15592">
        <ele>1161.41</ele>
        <time>2012-05-14T10:08:37Z</time>
      </trkpt>
      <trkpt lat="44.69318" lon="3.15574">
        <ele>1162.37</ele>
        <time>2012-05-14T10:08:54Z</time>
      </trkpt>
      <trkpt lat="44.69316" lon="3.15567">
        <ele>1162.85</ele>
        <time>2012-05-14T10:09:27Z</time>
      </trkpt>
      <trkpt lat="44.69305" lon="3.15541">
        <ele>1165.26</ele>
        <time>2012-05-14T10:09:45Z</time>
      </trkpt>
      <trkpt lat="44.69294" lon="3.15523">
        <ele>1167.18</ele>
        <time>2012-05-14T10:10:00Z</time>
      </trkpt>
      <trkpt lat="44.69282" lon="3.15505">
        <ele>1170.54</ele>
        <time>2012-05-14T10:10:15Z</time>
      </trkpt>
      <trkpt lat="44.69269" lon="3.15489">
        <ele>1171.5</ele>
        <time>2012-05-14T10:10:30Z</time>
      </trkpt>
      <trkpt lat="44.69258" lon="3.15475">
        <ele>1171.98</ele>
        <time>2012-05-14T10:10:44Z</time>
      </trkpt>
      <trkpt lat="44.69246" lon="3.15462">
        <ele>1172.47</ele>
        <time>2012-05-14T10:10:59Z</time>
      </trkpt>
      <trkpt lat="44.69233" lon="3.15449">
        <ele>1173.43</ele>
        <time>2012-05-14T10:11:13Z</time>
      </trkpt>
      <trkpt lat="44.69217" lon="3.15437">
        <ele>1174.39</ele>
        <time>2012-05-14T10:11:31Z</time>
      </trkpt>
      <trkpt lat="44.692" lon="3.15426">
        <ele>1176.31</ele>
        <time>2012-05-14T10:11:47Z</time>
      </trkpt>
      <trkpt lat="44.69182" lon="3.15421">
        <ele>1176.31</ele>
        <time>2012-05-14T10:12:03Z</time>
      </trkpt>
      <trkpt lat="44.69169" lon="3.15421">
        <ele>1175.35</ele>
        <time>2012-05-14T10:12:17Z</time>
      </trkpt>
      <trkpt lat="44.6915" lon="3.1542">
        <ele>1174.87</ele>
        <time>2012-05-14T10:12:32Z</time>
      </trkpt>
      <trkpt lat="44.69137" lon="3.15419">
        <ele>1174.87</ele>
        <time>2012-05-14T10:12:47Z</time>
      </trkpt>
      <trkpt lat="44.69119" lon="3.15416">
        <ele>1174.87</ele>
        <time>2012-05-14T10:13:02Z</time>
      </trkpt>
      <trkpt lat="44.69115" lon="3.15418">
        <ele>1174.39</ele>
        <time>2012-05-14T10:13:15Z</time>
      </trkpt>
      <trkpt lat="44.69115" lon="3.15418">
        <ele>1174.39</ele>
        <time>2012-05-14T10:13:37Z</time>
      </trkpt>
      <trkpt lat="44.69114" lon="3.15416">
        <ele>1174.39</ele>
        <time>2012-05-14T10:13:44Z</time>
      </trkpt>
      <trkpt lat="44.69112" lon="3.15413">
        <ele>1174.87</ele>
        <time>2012-05-14T10:13:47Z</time>
      </trkpt>
      <trkpt lat="44.69111" lon="3.15413">
        <ele>1175.35</ele>
        <time>2012-05-14T10:13:48Z</time>
      </trkpt>
      <trkpt lat="44.69109" lon="3.15412">
        <ele>1175.35</ele>
        <time>2012-05-14T10:13:49Z</time>
      </trkpt>
      <trkpt lat="44.6909" lon="3.15413">
        <ele>1175.35</ele>
        <time>2012-05-14T10:14:06Z</time>
      </trkpt>
      <trkpt lat="44.6908" lon="3.15411">
        <ele>1175.35</ele>
        <time>2012-05-14T10:14:18Z</time>
      </trkpt>
      <trkpt lat="44.6906" lon="3.15408">
        <ele>1175.83</ele>
        <time>2012-05-14T10:14:34Z</time>
      </trkpt>
      <trkpt lat="44.69059" lon="3.15408">
        <ele>1175.83</ele>
        <time>2012-05-14T10:14:48Z</time>
      </trkpt>
      <trkpt lat="44.69049" lon="3.15408">
        <ele>1175.83</ele>
        <time>2012-05-14T10:15:05Z</time>
      </trkpt>
      <trkpt lat="44.69029" lon="3.15406">
        <ele>1175.83</ele>
        <time>2012-05-14T10:15:21Z</time>
      </trkpt>
      <trkpt lat="44.69012" lon="3.15404">
        <ele>1176.31</ele>
        <time>2012-05-14T10:15:37Z</time>
      </trkpt>
      <trkpt lat="44.69009" lon="3.15403">
        <ele>1175.83</ele>
        <time>2012-05-14T10:16:06Z</time>
      </trkpt>
      <trkpt lat="44.68987" lon="3.15401">
        <ele>1174.87</ele>
        <time>2012-05-14T10:16:23Z</time>
      </trkpt>
      <trkpt lat="44.68966" lon="3.154">
        <ele>1176.31</ele>
        <time>2012-05-14T10:16:40Z</time>
      </trkpt>
      <trkpt lat="44.68946" lon="3.15398">
        <ele>1177.75</ele>
        <time>2012-05-14T10:16:56Z</time>
      </trkpt>
      <trkpt lat="44.68933" lon="3.1539">
        <ele>1178.23</ele>
        <time>2012-05-14T10:17:10Z</time>
      </trkpt>
      <trkpt lat="44.68924" lon="3.15371">
        <ele>1178.71</ele>
        <time>2012-05-14T10:17:24Z</time>
      </trkpt>
      <trkpt lat="44.68914" lon="3.15348">
        <ele>1179.67</ele>
        <time>2012-05-14T10:17:41Z</time>
      </trkpt>
      <trkpt lat="44.6891" lon="3.15341">
        <ele>1180.16</ele>
        <time>2012-05-14T10:17:56Z</time>
      </trkpt>
      <trkpt lat="44.6891" lon="3.15341">
        <ele>1180.16</ele>
        <time>2012-05-14T10:18:20Z</time>
      </trkpt>
      <trkpt lat="44.6891" lon="3.1534">
        <ele>1180.16</ele>
        <time>2012-05-14T10:18:46Z</time>
      </trkpt>
      <trkpt lat="44.6891" lon="3.15341">
        <ele>1180.16</ele>
        <time>2012-05-14T10:19:18Z</time>
      </trkpt>
      <trkpt lat="44.6891" lon="3.15341">
        <ele>1180.16</ele>
        <time>2012-05-14T10:19:58Z</time>
      </trkpt>
      <trkpt lat="44.68907" lon="3.15332">
        <ele>1180.16</ele>
        <time>2012-05-14T10:20:19Z</time>
      </trkpt>
      <trkpt lat="44.68899" lon="3.15307">
        <ele>1180.64</ele>
        <time>2012-05-14T10:20:35Z</time>
      </trkpt>
      <trkpt lat="44.68891" lon="3.15277">
        <ele>1180.16</ele>
        <time>2012-05-14T10:20:53Z</time>
      </trkpt>
      <trkpt lat="44.68895" lon="3.15248">
        <ele>1180.16</ele>
        <time>2012-05-14T10:21:10Z</time>
      </trkpt>
      <trkpt lat="44.68895" lon="3.15216">
        <ele>1180.16</ele>
        <time>2012-05-14T10:21:28Z</time>
      </trkpt>
      <trkpt lat="44.68894" lon="3.15211">
        <ele>1180.16</ele>
        <time>2012-05-14T10:21:40Z</time>
      </trkpt>
      <trkpt lat="44.68893" lon="3.1521">
        <ele>1180.16</ele>
        <time>2012-05-14T10:21:41Z</time>
      </trkpt>
      <trkpt lat="44.68882" lon="3.15187">
        <ele>1179.67</ele>
        <time>2012-05-14T10:21:57Z</time>
      </trkpt>
      <trkpt lat="44.68864" lon="3.15163">
        <ele>1179.67</ele>
        <time>2012-05-14T10:22:16Z</time>
      </trkpt>
      <trkpt lat="44.68846" lon="3.15149">
        <ele>1179.67</ele>
        <time>2012-05-14T10:22:32Z</time>
      </trkpt>
      <trkpt lat="44.68831" lon="3.15132">
        <ele>1178.23</ele>
        <time>2012-05-14T10:22:47Z</time>
      </trkpt>
      <trkpt lat="44.68817" lon="3.15108">
        <ele>1179.19</ele>
        <time>2012-05-14T10:23:04Z</time>
      </trkpt>
      <trkpt lat="44.68804" lon="3.15089">
        <ele>1180.64</ele>
        <time>2012-05-14T10:23:19Z</time>
      </trkpt>
      <trkpt lat="44.68789" lon="3.15067">
        <ele>1181.12</ele>
        <time>2012-05-14T10:23:37Z</time>
      </trkpt>
      <trkpt lat="44.68785" lon="3.15063">
        <ele>1181.6</ele>
        <time>2012-05-14T10:23:42Z</time>
      </trkpt>
      <trkpt lat="44.68783" lon="3.15062">
        <ele>1181.6</ele>
        <time>2012-05-14T10:23:57Z</time>
      </trkpt>
      <trkpt lat="44.68785" lon="3.15063">
        <ele>1182.08</ele>
        <time>2012-05-14T10:24:21Z</time>
      </trkpt>
      <trkpt lat="44.68785" lon="3.15062">
        <ele>1182.08</ele>
        <time>2012-05-14T10:24:38Z</time>
      </trkpt>
      <trkpt lat="44.68784" lon="3.15062">
        <ele>1181.6</ele>
        <time>2012-05-14T10:25:13Z</time>
      </trkpt>
      <trkpt lat="44.68784" lon="3.15062">
        <ele>1181.6</ele>
        <time>2012-05-14T10:25:29Z</time>
      </trkpt>
      <trkpt lat="44.68784" lon="3.15062">
        <ele>1181.6</ele>
        <time>2012-05-14T10:25:33Z</time>
      </trkpt>
      <trkpt lat="44.68783" lon="3.15064">
        <ele>1182.08</ele>
        <time>2012-05-14T10:25:46Z</time>
      </trkpt>
      <trkpt lat="44.68783" lon="3.15064">
        <ele>1182.08</ele>
        <time>2012-05-14T10:25:59Z</time>
      </trkpt>
      <trkpt lat="44.68783" lon="3.15063">
        <ele>1182.56</ele>
        <time>2012-05-14T10:26:11Z</time>
      </trkpt>
      <trkpt lat="44.68783" lon="3.15063">
        <ele>1182.56</ele>
        <time>2012-05-14T10:26:30Z</time>
      </trkpt>
      <trkpt lat="44.68777" lon="3.15053">
        <ele>1183.52</ele>
        <time>2012-05-14T10:26:42Z</time>
      </trkpt>
      <trkpt lat="44.68766" lon="3.15034">
        <ele>1185.92</ele>
        <time>2012-05-14T10:26:58Z</time>
      </trkpt>
      <trkpt lat="44.68762" lon="3.15021">
        <ele>1185.92</ele>
        <time>2012-05-14T10:27:06Z</time>
      </trkpt>
      <trkpt lat="44.68761" lon="3.15014">
        <ele>1186.4</ele>
        <time>2012-05-14T10:27:11Z</time>
      </trkpt>
      <trkpt lat="44.68762" lon="3.1501">
        <ele>1186.88</ele>
        <time>2012-05-14T10:27:14Z</time>
      </trkpt>
      <trkpt lat="44.68762" lon="3.15005">
        <ele>1186.88</ele>
        <time>2012-05-14T10:27:17Z</time>
      </trkpt>
      <trkpt lat="44.68762" lon="3.15002">
        <ele>1187.37</ele>
        <time>2012-05-14T10:27:19Z</time>
      </trkpt>
      <trkpt lat="44.68765" lon="3.14978">
        <ele>1187.37</ele>
        <time>2012-05-14T10:27:34Z</time>
      </trkpt>
      <trkpt lat="44.68768" lon="3.14945">
        <ele>1188.81</ele>
        <time>2012-05-14T10:27:53Z</time>
      </trkpt>
      <trkpt lat="44.68767" lon="3.14917">
        <ele>1189.29</ele>
        <time>2012-05-14T10:28:10Z</time>
      </trkpt>
      <trkpt lat="44.6876" lon="3.14884">
        <ele>1188.81</ele>
        <time>2012-05-14T10:28:29Z</time>
      </trkpt>
      <trkpt lat="44.68755" lon="3.14861">
        <ele>1189.77</ele>
        <time>2012-05-14T10:28:45Z</time>
      </trkpt>
      <trkpt lat="44.68754" lon="3.14853">
        <ele>1190.25</ele>
        <time>2012-05-14T10:28:50Z</time>
      </trkpt>
      <trkpt lat="44.68754" lon="3.14839">
        <ele>1191.21</ele>
        <time>2012-05-14T10:28:59Z</time>
      </trkpt>
      <trkpt lat="44.68755" lon="3.14834">
        <ele>1191.69</ele>
        <time>2012-05-14T10:29:08Z</time>
      </trkpt>
      <trkpt lat="44.68754" lon="3.14816">
        <ele>1193.13</ele>
        <time>2012-05-14T10:29:24Z</time>
      </trkpt>
      <trkpt lat="44.68751" lon="3.14796">
        <ele>1192.65</ele>
        <time>2012-05-14T10:29:37Z</time>
      </trkpt>
      <trkpt lat="44.6875" lon="3.14782">
        <ele>1192.17</ele>
        <time>2012-05-14T10:29:46Z</time>
      </trkpt>
      <trkpt lat="44.68741" lon="3.1476">
        <ele>1193.13</ele>
        <time>2012-05-14T10:30:02Z</time>
      </trkpt>
      <trkpt lat="44.6874" lon="3.14758">
        <ele>1193.13</ele>
        <time>2012-05-14T10:30:03Z</time>
      </trkpt>
      <trkpt lat="44.68731" lon="3.14739">
        <ele>1193.13</ele>
        <time>2012-05-14T10:30:17Z</time>
      </trkpt>
      <trkpt lat="44.68725" lon="3.14717">
        <ele>1193.13</ele>
        <time>2012-05-14T10:30:31Z</time>
      </trkpt>
      <trkpt lat="44.68718" lon="3.147">
        <ele>1192.65</ele>
        <time>2012-05-14T10:30:43Z</time>
      </trkpt>
      <trkpt lat="44.68705" lon="3.14678">
        <ele>1191.21</ele>
        <time>2012-05-14T10:30:59Z</time>
      </trkpt>
      <trkpt lat="44.68687" lon="3.14653">
        <ele>1191.69</ele>
        <time>2012-05-14T10:31:18Z</time>
      </trkpt>
      <trkpt lat="44.68672" lon="3.14632">
        <ele>1191.21</ele>
        <time>2012-05-14T10:31:34Z</time>
      </trkpt>
      <trkpt lat="44.6866" lon="3.14613">
        <ele>1191.21</ele>
        <time>2012-05-14T10:31:48Z</time>
      </trkpt>
      <trkpt lat="44.68647" lon="3.14588">
        <ele>1191.21</ele>
        <time>2012-05-14T10:32:05Z</time>
      </trkpt>
      <trkpt lat="44.68635" lon="3.14564">
        <ele>1190.73</ele>
        <time>2012-05-14T10:32:21Z</time>
      </trkpt>
      <trkpt lat="44.68623" lon="3.1455">
        <ele>1190.25</ele>
        <time>2012-05-14T10:32:35Z</time>
      </trkpt>
      <trkpt lat="44.68629" lon="3.14522">
        <ele>1188.33</ele>
        <time>2012-05-14T10:32:52Z</time>
      </trkpt>
      <trkpt lat="44.6863" lon="3.14519">
        <ele>1187.85</ele>
        <time>2012-05-14T10:33:09Z</time>
      </trkpt>
      <trkpt lat="44.68632" lon="3.14518">
        <ele>1187.37</ele>
        <time>2012-05-14T10:33:34Z</time>
      </trkpt>
      <trkpt lat="44.68632" lon="3.14518">
        <ele>1187.37</ele>
        <time>2012-05-14T10:34:00Z</time>
      </trkpt>
      <trkpt lat="44.68632" lon="3.14517">
        <ele>1186.88</ele>
        <time>2012-05-14T10:34:33Z</time>
      </trkpt>
      <trkpt lat="44.6863" lon="3.14518">
        <ele>1186.88</ele>
        <time>2012-05-14T10:34:57Z</time>
      </trkpt>
      <trkpt lat="44.68629" lon="3.14518">
        <ele>1186.88</ele>
        <time>2012-05-14T10:35:01Z</time>
      </trkpt>
      <trkpt lat="44.68627" lon="3.14516">
        <ele>1187.37</ele>
        <time>2012-05-14T10:35:04Z</time>
      </trkpt>
      <trkpt lat="44.68625" lon="3.145">
        <ele>1186.88</ele>
        <time>2012-05-14T10:35:21Z</time>
      </trkpt>
      <trkpt lat="44.68627" lon="3.1446">
        <ele>1184.48</ele>
        <time>2012-05-14T10:35:41Z</time>
      </trkpt>
      <trkpt lat="44.68629" lon="3.1442">
        <ele>1182.08</ele>
        <time>2012-05-14T10:36:02Z</time>
      </trkpt>
      <trkpt lat="44.68631" lon="3.14386">
        <ele>1180.64</ele>
        <time>2012-05-14T10:36:20Z</time>
      </trkpt>
      <trkpt lat="44.68632" lon="3.14357">
        <ele>1180.16</ele>
        <time>2012-05-14T10:36:36Z</time>
      </trkpt>
      <trkpt lat="44.68634" lon="3.14322">
        <ele>1180.16</ele>
        <time>2012-05-14T10:36:55Z</time>
      </trkpt>
      <trkpt lat="44.68629" lon="3.14288">
        <ele>1180.64</ele>
        <time>2012-05-14T10:37:14Z</time>
      </trkpt>
      <trkpt lat="44.68625" lon="3.14253">
        <ele>1181.12</ele>
        <time>2012-05-14T10:37:34Z</time>
      </trkpt>
      <trkpt lat="44.68618" lon="3.14222">
        <ele>1180.64</ele>
        <time>2012-05-14T10:37:52Z</time>
      </trkpt>
      <trkpt lat="44.68616" lon="3.14201">
        <ele>1180.64</ele>
        <time>2012-05-14T10:38:05Z</time>
      </trkpt>
      <trkpt lat="44.68606" lon="3.14177">
        <ele>1178.71</ele>
        <time>2012-05-14T10:38:21Z</time>
      </trkpt>
      <trkpt lat="44.68588" lon="3.1416">
        <ele>1179.67</ele>
        <time>2012-05-14T10:38:39Z</time>
      </trkpt>
      <trkpt lat="44.68569" lon="3.14147">
        <ele>1180.16</ele>
        <time>2012-05-14T10:38:57Z</time>
      </trkpt>
      <trkpt lat="44.68555" lon="3.14132">
        <ele>1179.67</ele>
        <time>2012-05-14T10:39:14Z</time>
      </trkpt>
      <trkpt lat="44.68544" lon="3.14117">
        <ele>1180.16</ele>
        <time>2012-05-14T10:39:29Z</time>
      </trkpt>
      <trkpt lat="44.68542" lon="3.14113">
        <ele>1180.16</ele>
        <time>2012-05-14T10:39:33Z</time>
      </trkpt>
      <trkpt lat="44.68538" lon="3.14106">
        <ele>1180.16</ele>
        <time>2012-05-14T10:39:38Z</time>
      </trkpt>
      <trkpt lat="44.68529" lon="3.14102">
        <ele>1184.96</ele>
        <time>2012-05-14T10:39:55Z</time>
      </trkpt>
      <trkpt lat="44.68527" lon="3.141">
        <ele>1186.4</ele>
        <time>2012-05-14T10:39:58Z</time>
      </trkpt>
      <trkpt lat="44.68514" lon="3.14091">
        <ele>1189.77</ele>
        <time>2012-05-14T10:40:08Z</time>
      </trkpt>
      <trkpt lat="44.68498" lon="3.14078">
        <ele>1192.17</ele>
        <time>2012-05-14T10:40:25Z</time>
      </trkpt>
      <trkpt lat="44.6848" lon="3.14065">
        <ele>1193.61</ele>
        <time>2012-05-14T10:40:40Z</time>
      </trkpt>
      <trkpt lat="44.68467" lon="3.14055">
        <ele>1193.61</ele>
        <time>2012-05-14T10:40:53Z</time>
      </trkpt>
      <trkpt lat="44.68466" lon="3.14055">
        <ele>1193.61</ele>
        <time>2012-05-14T10:40:54Z</time>
      </trkpt>
      <trkpt lat="44.68463" lon="3.14057">
        <ele>1195.06</ele>
        <time>2012-05-14T10:41:07Z</time>
      </trkpt>
      <trkpt lat="44.68461" lon="3.14054">
        <ele>1195.54</ele>
        <time>2012-05-14T10:41:22Z</time>
      </trkpt>
      <trkpt lat="44.68461" lon="3.14053">
        <ele>1196.02</ele>
        <time>2012-05-14T10:41:23Z</time>
      </trkpt>
      <trkpt lat="44.6846" lon="3.14052">
        <ele>1196.02</ele>
        <time>2012-05-14T10:41:24Z</time>
      </trkpt>
      <trkpt lat="44.68459" lon="3.14051">
        <ele>1196.5</ele>
        <time>2012-05-14T10:41:25Z</time>
      </trkpt>
      <trkpt lat="44.68454" lon="3.14044">
        <ele>1199.38</ele>
        <time>2012-05-14T10:41:33Z</time>
      </trkpt>
      <trkpt lat="44.68453" lon="3.1404">
        <ele>1200.34</ele>
        <time>2012-05-14T10:41:36Z</time>
      </trkpt>
      <trkpt lat="44.68453" lon="3.14038">
        <ele>1200.34</ele>
        <time>2012-05-14T10:41:37Z</time>
      </trkpt>
      <trkpt lat="44.68453" lon="3.14037">
        <ele>1200.82</ele>
        <time>2012-05-14T10:41:38Z</time>
      </trkpt>
      <trkpt lat="44.68452" lon="3.14035">
        <ele>1200.82</ele>
        <time>2012-05-14T10:41:39Z</time>
      </trkpt>
      <trkpt lat="44.68452" lon="3.14034">
        <ele>1200.82</ele>
        <time>2012-05-14T10:41:40Z</time>
      </trkpt>
      <trkpt lat="44.68452" lon="3.14033">
        <ele>1200.82</ele>
        <time>2012-05-14T10:41:41Z</time>
      </trkpt>
      <trkpt lat="44.68451" lon="3.14031">
        <ele>1201.3</ele>
        <time>2012-05-14T10:41:42Z</time>
      </trkpt>
      <trkpt lat="44.68444" lon="3.14005">
        <ele>1201.79</ele>
        <time>2012-05-14T10:42:00Z</time>
      </trkpt>
      <trkpt lat="44.68435" lon="3.13981">
        <ele>1202.75</ele>
        <time>2012-05-14T10:42:16Z</time>
      </trkpt>
      <trkpt lat="44.68428" lon="3.13963">
        <ele>1203.23</ele>
        <time>2012-05-14T10:42:29Z</time>
      </trkpt>
      <trkpt lat="44.68427" lon="3.1396">
        <ele>1203.23</ele>
        <time>2012-05-14T10:42:31Z</time>
      </trkpt>
      <trkpt lat="44.68421" lon="3.13963">
        <ele>1202.27</ele>
        <time>2012-05-14T10:42:43Z</time>
      </trkpt>
      <trkpt lat="44.68424" lon="3.13956">
        <ele>1200.34</ele>
        <time>2012-05-14T10:43:02Z</time>
      </trkpt>
      <trkpt lat="44.68422" lon="3.13956">
        <ele>1200.34</ele>
        <time>2012-05-14T10:43:16Z</time>
      </trkpt>
      <trkpt lat="44.68425" lon="3.13953">
        <ele>1199.38</ele>
        <time>2012-05-14T10:43:28Z</time>
      </trkpt>
      <trkpt lat="44.68425" lon="3.13953">
        <ele>1199.38</ele>
        <time>2012-05-14T10:44:06Z</time>
      </trkpt>
      <trkpt lat="44.68425" lon="3.13953">
        <ele>1199.38</ele>
        <time>2012-05-14T10:44:38Z</time>
      </trkpt>
      <trkpt lat="44.68422" lon="3.13946">
        <ele>1199.86</ele>
        <time>2012-05-14T10:44:55Z</time>
      </trkpt>
      <trkpt lat="44.68417" lon="3.13923">
        <ele>1200.34</ele>
        <time>2012-05-14T10:45:10Z</time>
      </trkpt>
      <trkpt lat="44.68412" lon="3.13904">
        <ele>1202.75</ele>
        <time>2012-05-14T10:45:24Z</time>
      </trkpt>
      <trkpt lat="44.68409" lon="3.139">
        <ele>1204.19</ele>
        <time>2012-05-14T10:45:28Z</time>
      </trkpt>
      <trkpt lat="44.684" lon="3.13887">
        <ele>1203.71</ele>
        <time>2012-05-14T10:45:38Z</time>
      </trkpt>
      <trkpt lat="44.68389" lon="3.13873">
        <ele>1201.3</ele>
        <time>2012-05-14T10:45:51Z</time>
      </trkpt>
      <trkpt lat="44.68377" lon="3.1386">
        <ele>1197.94</ele>
        <time>2012-05-14T10:46:04Z</time>
      </trkpt>
      <trkpt lat="44.68375" lon="3.1386">
        <ele>1197.94</ele>
        <time>2012-05-14T10:46:06Z</time>
      </trkpt>
      <trkpt lat="44.68373" lon="3.1386">
        <ele>1197.94</ele>
        <time>2012-05-14T10:46:07Z</time>
      </trkpt>
      <trkpt lat="44.68358" lon="3.13856">
        <ele>1199.38</ele>
        <time>2012-05-14T10:46:21Z</time>
      </trkpt>
      <trkpt lat="44.68358" lon="3.13854">
        <ele>1199.86</ele>
        <time>2012-05-14T10:46:34Z</time>
      </trkpt>
      <trkpt lat="44.68357" lon="3.13856">
        <ele>1199.86</ele>
        <time>2012-05-14T10:46:47Z</time>
      </trkpt>
      <trkpt lat="44.68357" lon="3.13858">
        <ele>1199.86</ele>
        <time>2012-05-14T10:47:03Z</time>
      </trkpt>
      <trkpt lat="44.68356" lon="3.13857">
        <ele>1200.34</ele>
        <time>2012-05-14T10:47:24Z</time>
      </trkpt>
      <trkpt lat="44.68356" lon="3.13857">
        <ele>1200.34</ele>
        <time>2012-05-14T10:47:46Z</time>
      </trkpt>
      <trkpt lat="44.68357" lon="3.13855">
        <ele>1199.38</ele>
        <time>2012-05-14T10:48:05Z</time>
      </trkpt>
      <trkpt lat="44.68357" lon="3.13855">
        <ele>1199.38</ele>
        <time>2012-05-14T10:48:29Z</time>
      </trkpt>
      <trkpt lat="44.68363" lon="3.13858">
        <ele>1200.34</ele>
        <time>2012-05-14T10:48:42Z</time>
      </trkpt>
      <trkpt lat="44.68373" lon="3.13862">
        <ele>1200.34</ele>
        <time>2012-05-14T10:48:51Z</time>
      </trkpt>
      <trkpt lat="44.68373" lon="3.1386">
        <ele>1199.86</ele>
        <time>2012-05-14T10:48:52Z</time>
      </trkpt>
      <trkpt lat="44.68373" lon="3.13859">
        <ele>1199.86</ele>
        <time>2012-05-14T10:48:53Z</time>
      </trkpt>
      <trkpt lat="44.68373" lon="3.13858">
        <ele>1199.38</ele>
        <time>2012-05-14T10:48:54Z</time>
      </trkpt>
      <trkpt lat="44.68372" lon="3.13857">
        <ele>1199.38</ele>
        <time>2012-05-14T10:48:55Z</time>
      </trkpt>
      <trkpt lat="44.68372" lon="3.13856">
        <ele>1199.38</ele>
        <time>2012-05-14T10:48:56Z</time>
      </trkpt>
      <trkpt lat="44.68362" lon="3.13842">
        <ele>1198.42</ele>
        <time>2012-05-14T10:49:10Z</time>
      </trkpt>
      <trkpt lat="44.6836" lon="3.13838">
        <ele>1197.94</ele>
        <time>2012-05-14T10:49:13Z</time>
      </trkpt>
      <trkpt lat="44.68354" lon="3.13826">
        <ele>1196.02</ele>
        <time>2012-05-14T10:49:24Z</time>
      </trkpt>
      <trkpt lat="44.6835" lon="3.13821">
        <ele>1195.06</ele>
        <time>2012-05-14T10:49:30Z</time>
      </trkpt>
      <trkpt lat="44.68342" lon="3.138">
        <ele>1195.06</ele>
        <time>2012-05-14T10:49:46Z</time>
      </trkpt>
      <trkpt lat="44.68336" lon="3.13783">
        <ele>1196.5</ele>
        <time>2012-05-14T10:50:02Z</time>
      </trkpt>
      <trkpt lat="44.68329" lon="3.13767">
        <ele>1201.3</ele>
        <time>2012-05-14T10:50:16Z</time>
      </trkpt>
      <trkpt lat="44.68325" lon="3.13749">
        <ele>1202.75</ele>
        <time>2012-05-14T10:50:31Z</time>
      </trkpt>
      <trkpt lat="44.68321" lon="3.13733">
        <ele>1205.63</ele>
        <time>2012-05-14T10:50:49Z</time>
      </trkpt>
      <trkpt lat="44.68321" lon="3.13733">
        <ele>1205.63</ele>
        <time>2012-05-14T10:51:31Z</time>
      </trkpt>
      <trkpt lat="44.68321" lon="3.13733">
        <ele>1205.63</ele>
        <time>2012-05-14T10:52:07Z</time>
      </trkpt>
      <trkpt lat="44.68321" lon="3.13733">
        <ele>1205.63</ele>
        <time>2012-05-14T10:52:46Z</time>
      </trkpt>
      <trkpt lat="44.68313" lon="3.13712">
        <ele>1206.11</ele>
        <time>2012-05-14T10:53:02Z</time>
      </trkpt>
      <trkpt lat="44.68307" lon="3.13701">
        <ele>1209.96</ele>
        <time>2012-05-14T10:53:15Z</time>
      </trkpt>
      <trkpt lat="44.68302" lon="3.13685">
        <ele>1212.36</ele>
        <time>2012-05-14T10:53:28Z</time>
      </trkpt>
      <trkpt lat="44.68299" lon="3.13677">
        <ele>1213.8</ele>
        <time>2012-05-14T10:53:41Z</time>
      </trkpt>
      <trkpt lat="44.68298" lon="3.13674">
        <ele>1214.28</ele>
        <time>2012-05-14T10:53:58Z</time>
      </trkpt>
      <trkpt lat="44.68297" lon="3.13672">
        <ele>1214.28</ele>
        <time>2012-05-14T10:54:20Z</time>
      </trkpt>
      <trkpt lat="44.68287" lon="3.13658">
        <ele>1216.69</ele>
        <time>2012-05-14T10:54:34Z</time>
      </trkpt>
      <trkpt lat="44.68277" lon="3.13642">
        <ele>1219.57</ele>
        <time>2012-05-14T10:54:50Z</time>
      </trkpt>
      <trkpt lat="44.68264" lon="3.13626">
        <ele>1219.57</ele>
        <time>2012-05-14T10:55:07Z</time>
      </trkpt>
      <trkpt lat="44.68251" lon="3.13614">
        <ele>1219.57</ele>
        <time>2012-05-14T10:55:22Z</time>
      </trkpt>
      <trkpt lat="44.68234" lon="3.13606">
        <ele>1221.97</ele>
        <time>2012-05-14T10:55:39Z</time>
      </trkpt>
      <trkpt lat="44.6822" lon="3.13601">
        <ele>1223.42</ele>
        <time>2012-05-14T10:55:54Z</time>
      </trkpt>
      <trkpt lat="44.68219" lon="3.136">
        <ele>1223.42</ele>
        <time>2012-05-14T10:55:55Z</time>
      </trkpt>
      <trkpt lat="44.68217" lon="3.13598">
        <ele>1223.42</ele>
        <time>2012-05-14T10:55:57Z</time>
      </trkpt>
      <trkpt lat="44.68216" lon="3.13597">
        <ele>1223.42</ele>
        <time>2012-05-14T10:55:59Z</time>
      </trkpt>
      <trkpt lat="44.68214" lon="3.13595">
        <ele>1223.9</ele>
        <time>2012-05-14T10:56:01Z</time>
      </trkpt>
      <trkpt lat="44.68212" lon="3.13591">
        <ele>1224.38</ele>
        <time>2012-05-14T10:56:16Z</time>
      </trkpt>
      <trkpt lat="44.68212" lon="3.13591">
        <ele>1223.9</ele>
        <time>2012-05-14T10:56:34Z</time>
      </trkpt>
      <trkpt lat="44.68212" lon="3.1359">
        <ele>1224.38</ele>
        <time>2012-05-14T10:56:48Z</time>
      </trkpt>
      <trkpt lat="44.6821" lon="3.13591">
        <ele>1224.38</ele>
        <time>2012-05-14T10:56:51Z</time>
      </trkpt>
      <trkpt lat="44.68209" lon="3.13591">
        <ele>1224.38</ele>
        <time>2012-05-14T10:56:52Z</time>
      </trkpt>
      <trkpt lat="44.68204" lon="3.13591">
        <ele>1224.86</ele>
        <time>2012-05-14T10:56:56Z</time>
      </trkpt>
      <trkpt lat="44.68203" lon="3.1359">
        <ele>1224.86</ele>
        <time>2012-05-14T10:56:57Z</time>
      </trkpt>
      <trkpt lat="44.68202" lon="3.13589">
        <ele>1225.34</ele>
        <time>2012-05-14T10:56:58Z</time>
      </trkpt>
      <trkpt lat="44.68201" lon="3.13589">
        <ele>1225.34</ele>
        <time>2012-05-14T10:56:59Z</time>
      </trkpt>
      <trkpt lat="44.68199" lon="3.13588">
        <ele>1225.34</ele>
        <time>2012-05-14T10:57:00Z</time>
      </trkpt>
      <trkpt lat="44.68181" lon="3.13579">
        <ele>1225.34</ele>
        <time>2012-05-14T10:57:17Z</time>
      </trkpt>
      <trkpt lat="44.6816" lon="3.1357">
        <ele>1224.38</ele>
        <time>2012-05-14T10:57:34Z</time>
      </trkpt>
      <trkpt lat="44.68137" lon="3.13559">
        <ele>1223.42</ele>
        <time>2012-05-14T10:57:53Z</time>
      </trkpt>
      <trkpt lat="44.68117" lon="3.13544">
        <ele>1223.9</ele>
        <time>2012-05-14T10:58:10Z</time>
      </trkpt>
      <trkpt lat="44.68109" lon="3.13539">
        <ele>1223.42</ele>
        <time>2012-05-14T10:58:26Z</time>
      </trkpt>
      <trkpt lat="44.68109" lon="3.13539">
        <ele>1223.42</ele>
        <time>2012-05-14T10:58:58Z</time>
      </trkpt>
      <trkpt lat="44.68109" lon="3.13539">
        <ele>1223.42</ele>
        <time>2012-05-14T10:59:23Z</time>
      </trkpt>
      <trkpt lat="44.68109" lon="3.13538">
        <ele>1223.9</ele>
        <time>2012-05-14T10:59:46Z</time>
      </trkpt>
      <trkpt lat="44.68107" lon="3.13538">
        <ele>1223.42</ele>
        <time>2012-05-14T11:00:05Z</time>
      </trkpt>
      <trkpt lat="44.68102" lon="3.13535">
        <ele>1222.93</ele>
        <time>2012-05-14T11:00:37Z</time>
      </trkpt>
      <trkpt lat="44.68088" lon="3.13533">
        <ele>1222.93</ele>
        <time>2012-05-14T11:00:53Z</time>
      </trkpt>
      <trkpt lat="44.68088" lon="3.13532">
        <ele>1222.93</ele>
        <time>2012-05-14T11:01:30Z</time>
      </trkpt>
      <trkpt lat="44.68088" lon="3.13532">
        <ele>1222.93</ele>
        <time>2012-05-14T11:01:52Z</time>
      </trkpt>
      <trkpt lat="44.68085" lon="3.13532">
        <ele>1223.42</ele>
        <time>2012-05-14T11:02:14Z</time>
      </trkpt>
      <trkpt lat="44.68082" lon="3.13532">
        <ele>1223.9</ele>
        <time>2012-05-14T11:02:31Z</time>
      </trkpt>
      <trkpt lat="44.68082" lon="3.13532">
        <ele>1223.9</ele>
        <time>2012-05-14T11:02:56Z</time>
      </trkpt>
      <trkpt lat="44.68074" lon="3.13531">
        <ele>1224.86</ele>
        <time>2012-05-14T11:03:06Z</time>
      </trkpt>
      <trkpt lat="44.68074" lon="3.13529">
        <ele>1224.86</ele>
        <time>2012-05-14T11:03:23Z</time>
      </trkpt>
      <trkpt lat="44.68074" lon="3.13526">
        <ele>1223.9</ele>
        <time>2012-05-14T11:03:38Z</time>
      </trkpt>
      <trkpt lat="44.68072" lon="3.13524">
        <ele>1223.9</ele>
        <time>2012-05-14T11:03:52Z</time>
      </trkpt>
      <trkpt lat="44.68075" lon="3.13526">
        <ele>1222.45</ele>
        <time>2012-05-14T11:04:06Z</time>
      </trkpt>
      <trkpt lat="44.68077" lon="3.13526">
        <ele>1221.97</ele>
        <time>2012-05-14T11:04:20Z</time>
      </trkpt>
      <trkpt lat="44.68075" lon="3.13527">
        <ele>1221.97</ele>
        <time>2012-05-14T11:04:35Z</time>
      </trkpt>
      <trkpt lat="44.68066" lon="3.13526">
        <ele>1222.93</ele>
        <time>2012-05-14T11:04:48Z</time>
      </trkpt>
      <trkpt lat="44.68063" lon="3.13526">
        <ele>1222.93</ele>
        <time>2012-05-14T11:05:02Z</time>
      </trkpt>
      <trkpt lat="44.68062" lon="3.13525">
        <ele>1223.42</ele>
        <time>2012-05-14T11:05:16Z</time>
      </trkpt>
      <trkpt lat="44.68062" lon="3.13526">
        <ele>1223.42</ele>
        <time>2012-05-14T11:05:18Z</time>
      </trkpt>
      <trkpt lat="44.68066" lon="3.13525">
        <ele>1223.42</ele>
        <time>2012-05-14T11:05:32Z</time>
      </trkpt>
      <trkpt lat="44.68066" lon="3.13515">
        <ele>1222.45</ele>
        <time>2012-05-14T11:05:37Z</time>
      </trkpt>
      <trkpt lat="44.68069" lon="3.13495">
        <ele>1219.09</ele>
        <time>2012-05-14T11:05:50Z</time>
      </trkpt>
      <trkpt lat="44.68069" lon="3.13473">
        <ele>1218.13</ele>
        <time>2012-05-14T11:06:04Z</time>
      </trkpt>
      <trkpt lat="44.68072" lon="3.13452">
        <ele>1218.13</ele>
        <time>2012-05-14T11:06:19Z</time>
      </trkpt>
      <trkpt lat="44.68075" lon="3.13433">
        <ele>1218.61</ele>
        <time>2012-05-14T11:06:31Z</time>
      </trkpt>
      <trkpt lat="44.68074" lon="3.13407">
        <ele>1217.65</ele>
        <time>2012-05-14T11:06:47Z</time>
      </trkpt>
      <trkpt lat="44.68074" lon="3.13401">
        <ele>1217.17</ele>
        <time>2012-05-14T11:06:51Z</time>
      </trkpt>
      <trkpt lat="44.68074" lon="3.13396">
        <ele>1217.17</ele>
        <time>2012-05-14T11:06:54Z</time>
      </trkpt>
      <trkpt lat="44.68075" lon="3.13392">
        <ele>1217.17</ele>
        <time>2012-05-14T11:06:57Z</time>
      </trkpt>
      <trkpt lat="44.68076" lon="3.13386">
        <ele>1217.17</ele>
        <time>2012-05-14T11:07:01Z</time>
      </trkpt>
      <trkpt lat="44.6808" lon="3.13372">
        <ele>1217.17</ele>
        <time>2012-05-14T11:07:15Z</time>
      </trkpt>
      <trkpt lat="44.68083" lon="3.13373">
        <ele>1216.69</ele>
        <time>2012-05-14T11:07:19Z</time>
      </trkpt>
      <trkpt lat="44.68071" lon="3.13369">
        <ele>1216.21</ele>
        <time>2012-05-14T11:07:33Z</time>
      </trkpt>
      <trkpt lat="44.6807" lon="3.13353">
        <ele>1216.69</ele>
        <time>2012-05-14T11:07:42Z</time>
      </trkpt>
      <trkpt lat="44.68071" lon="3.1335">
        <ele>1216.21</ele>
        <time>2012-05-14T11:07:55Z</time>
      </trkpt>
      <trkpt lat="44.68071" lon="3.1335">
        <ele>1216.21</ele>
        <time>2012-05-14T11:08:09Z</time>
      </trkpt>
      <trkpt lat="44.68071" lon="3.1335">
        <ele>1216.21</ele>
        <time>2012-05-14T11:08:21Z</time>
      </trkpt>
      <trkpt lat="44.68077" lon="3.13343">
        <ele>1213.32</ele>
        <time>2012-05-14T11:08:32Z</time>
      </trkpt>
      <trkpt lat="44.6808" lon="3.13337">
        <ele>1212.84</ele>
        <time>2012-05-14T11:08:38Z</time>
      </trkpt>
      <trkpt lat="44.68081" lon="3.13328">
        <ele>1212.36</ele>
        <time>2012-05-14T11:08:43Z</time>
      </trkpt>
      <trkpt lat="44.68079" lon="3.13313">
        <ele>1210.44</ele>
        <time>2012-05-14T11:08:53Z</time>
      </trkpt>
      <trkpt lat="44.68078" lon="3.13312">
        <ele>1210.44</ele>
        <time>2012-05-14T11:08:54Z</time>
      </trkpt>
      <trkpt lat="44.68077" lon="3.13307">
        <ele>1209.48</ele>
        <time>2012-05-14T11:08:59Z</time>
      </trkpt>
      <trkpt lat="44.68073" lon="3.13293">
        <ele>1209</ele>
        <time>2012-05-14T11:09:08Z</time>
      </trkpt>
      <trkpt lat="44.68074" lon="3.13284">
        <ele>1208.03</ele>
        <time>2012-05-14T11:09:15Z</time>
      </trkpt>
      <trkpt lat="44.68075" lon="3.13283">
        <ele>1208.03</ele>
        <time>2012-05-14T11:09:16Z</time>
      </trkpt>
      <trkpt lat="44.68079" lon="3.13279">
        <ele>1207.55</ele>
        <time>2012-05-14T11:09:27Z</time>
      </trkpt>
      <trkpt lat="44.68079" lon="3.13278">
        <ele>1207.55</ele>
        <time>2012-05-14T11:09:47Z</time>
      </trkpt>
      <trkpt lat="44.68074" lon="3.13257">
        <ele>1206.11</ele>
        <time>2012-05-14T11:09:59Z</time>
      </trkpt>
      <trkpt lat="44.68072" lon="3.13236">
        <ele>1204.67</ele>
        <time>2012-05-14T11:10:08Z</time>
      </trkpt>
      <trkpt lat="44.68071" lon="3.13232">
        <ele>1203.71</ele>
        <time>2012-05-14T11:10:12Z</time>
      </trkpt>
      <trkpt lat="44.68071" lon="3.13221">
        <ele>1202.27</ele>
        <time>2012-05-14T11:10:28Z</time>
      </trkpt>
      <trkpt lat="44.68071" lon="3.13221">
        <ele>1202.27</ele>
        <time>2012-05-14T11:10:45Z</time>
      </trkpt>
      <trkpt lat="44.68069" lon="3.13207">
        <ele>1201.3</ele>
        <time>2012-05-14T11:11:03Z</time>
      </trkpt>
      <trkpt lat="44.68066" lon="3.13178">
        <ele>1198.9</ele>
        <time>2012-05-14T11:11:20Z</time>
      </trkpt>
      <trkpt lat="44.68065" lon="3.13154">
        <ele>1198.42</ele>
        <time>2012-05-14T11:11:35Z</time>
      </trkpt>
      <trkpt lat="44.68065" lon="3.13127">
        <ele>1197.46</ele>
        <time>2012-05-14T11:11:52Z</time>
      </trkpt>
      <trkpt lat="44.68065" lon="3.13126">
        <ele>1197.46</ele>
        <time>2012-05-14T11:11:53Z</time>
      </trkpt>
      <trkpt lat="44.68064" lon="3.13109">
        <ele>1196.5</ele>
        <time>2012-05-14T11:12:03Z</time>
      </trkpt>
      <trkpt lat="44.68061" lon="3.13087">
        <ele>1196.5</ele>
        <time>2012-05-14T11:12:15Z</time>
      </trkpt>
      <trkpt lat="44.6806" lon="3.1306">
        <ele>1197.46</ele>
        <time>2012-05-14T11:12:31Z</time>
      </trkpt>
      <trkpt lat="44.6806" lon="3.13055">
        <ele>1197.94</ele>
        <time>2012-05-14T11:12:34Z</time>
      </trkpt>
      <trkpt lat="44.68063" lon="3.13049">
        <ele>1198.42</ele>
        <time>2012-05-14T11:12:39Z</time>
      </trkpt>
      <trkpt lat="44.68068" lon="3.13037">
        <ele>1199.86</ele>
        <time>2012-05-14T11:12:56Z</time>
      </trkpt>
      <trkpt lat="44.68071" lon="3.13038">
        <ele>1200.34</ele>
        <time>2012-05-14T11:13:15Z</time>
      </trkpt>
      <trkpt lat="44.68072" lon="3.13038">
        <ele>1199.86</ele>
        <time>2012-05-14T11:13:17Z</time>
      </trkpt>
      <trkpt lat="44.68075" lon="3.13039">
        <ele>1198.9</ele>
        <time>2012-05-14T11:13:30Z</time>
      </trkpt>
      <trkpt lat="44.68074" lon="3.13041">
        <ele>1197.94</ele>
        <time>2012-05-14T11:13:33Z</time>
      </trkpt>
      <trkpt lat="44.68075" lon="3.13047">
        <ele>1196.98</ele>
        <time>2012-05-14T11:13:38Z</time>
      </trkpt>
      <trkpt lat="44.68078" lon="3.13053">
        <ele>1196.5</ele>
        <time>2012-05-14T11:13:52Z</time>
      </trkpt>
      <trkpt lat="44.68079" lon="3.13052">
        <ele>1196.02</ele>
        <time>2012-05-14T11:13:58Z</time>
      </trkpt>
      <trkpt lat="44.6808" lon="3.13049">
        <ele>1196.02</ele>
        <time>2012-05-14T11:14:00Z</time>
      </trkpt>
      <trkpt lat="44.68081" lon="3.13038">
        <ele>1197.46</ele>
        <time>2012-05-14T11:14:09Z</time>
      </trkpt>
      <trkpt lat="44.68076" lon="3.13018">
        <ele>1199.86</ele>
        <time>2012-05-14T11:14:24Z</time>
      </trkpt>
      <trkpt lat="44.68072" lon="3.13004">
        <ele>1201.3</ele>
        <time>2012-05-14T11:14:34Z</time>
      </trkpt>
      <trkpt lat="44.68069" lon="3.12995">
        <ele>1202.27</ele>
        <time>2012-05-14T11:14:42Z</time>
      </trkpt>
      <trkpt lat="44.68068" lon="3.12985">
        <ele>1203.23</ele>
        <time>2012-05-14T11:14:49Z</time>
      </trkpt>
      <trkpt lat="44.68067" lon="3.12967">
        <ele>1205.63</ele>
        <time>2012-05-14T11:15:04Z</time>
      </trkpt>
      <trkpt lat="44.68068" lon="3.1296">
        <ele>1206.59</ele>
        <time>2012-05-14T11:15:10Z</time>
      </trkpt>
      <trkpt lat="44.68068" lon="3.12945">
        <ele>1208.51</ele>
        <time>2012-05-14T11:15:23Z</time>
      </trkpt>
      <trkpt lat="44.68065" lon="3.12936">
        <ele>1210.44</ele>
        <time>2012-05-14T11:15:32Z</time>
      </trkpt>
      <trkpt lat="44.68064" lon="3.12926">
        <ele>1212.36</ele>
        <time>2012-05-14T11:15:41Z</time>
      </trkpt>
      <trkpt lat="44.6806" lon="3.12919">
        <ele>1212.84</ele>
        <time>2012-05-14T11:15:56Z</time>
      </trkpt>
      <trkpt lat="44.68056" lon="3.1291">
        <ele>1213.8</ele>
        <time>2012-05-14T11:16:12Z</time>
      </trkpt>
      <trkpt lat="44.68053" lon="3.12895">
        <ele>1215.24</ele>
        <time>2012-05-14T11:16:26Z</time>
      </trkpt>
      <trkpt lat="44.68049" lon="3.12891">
        <ele>1216.69</ele>
        <time>2012-05-14T11:16:33Z</time>
      </trkpt>
      <trkpt lat="44.68035" lon="3.12888">
        <ele>1219.57</ele>
        <time>2012-05-14T11:16:46Z</time>
      </trkpt>
      <trkpt lat="44.68034" lon="3.12888">
        <ele>1219.57</ele>
        <time>2012-05-14T11:16:47Z</time>
      </trkpt>
      <trkpt lat="44.68024" lon="3.12889">
        <ele>1221.49</ele>
        <time>2012-05-14T11:17:03Z</time>
      </trkpt>
      <trkpt lat="44.68024" lon="3.12886">
        <ele>1221.97</ele>
        <time>2012-05-14T11:17:21Z</time>
      </trkpt>
      <trkpt lat="44.68014" lon="3.12876">
        <ele>1223.9</ele>
        <time>2012-05-14T11:17:35Z</time>
      </trkpt>
      <trkpt lat="44.6801" lon="3.12873">
        <ele>1224.86</ele>
        <time>2012-05-14T11:17:39Z</time>
      </trkpt>
      <trkpt lat="44.68009" lon="3.1287">
        <ele>1225.34</ele>
        <time>2012-05-14T11:17:42Z</time>
      </trkpt>
      <trkpt lat="44.68002" lon="3.12862">
        <ele>1226.3</ele>
        <time>2012-05-14T11:17:52Z</time>
      </trkpt>
      <trkpt lat="44.67995" lon="3.12853">
        <ele>1228.7</ele>
        <time>2012-05-14T11:18:03Z</time>
      </trkpt>
      <trkpt lat="44.6799" lon="3.12845">
        <ele>1230.62</ele>
        <time>2012-05-14T11:18:14Z</time>
      </trkpt>
      <trkpt lat="44.67984" lon="3.12837">
        <ele>1233.03</ele>
        <time>2012-05-14T11:18:23Z</time>
      </trkpt>
      <trkpt lat="44.67981" lon="3.1283">
        <ele>1233.51</ele>
        <time>2012-05-14T11:18:30Z</time>
      </trkpt>
      <trkpt lat="44.67982" lon="3.12826">
        <ele>1234.47</ele>
        <time>2012-05-14T11:18:35Z</time>
      </trkpt>
      <trkpt lat="44.67982" lon="3.12823">
        <ele>1235.43</ele>
        <time>2012-05-14T11:18:41Z</time>
      </trkpt>
      <trkpt lat="44.6798" lon="3.12821">
        <ele>1236.39</ele>
        <time>2012-05-14T11:18:44Z</time>
      </trkpt>
      <trkpt lat="44.67973" lon="3.12808">
        <ele>1238.8</ele>
        <time>2012-05-14T11:18:56Z</time>
      </trkpt>
      <trkpt lat="44.67972" lon="3.12807">
        <ele>1239.28</ele>
        <time>2012-05-14T11:18:59Z</time>
      </trkpt>
      <trkpt lat="44.67972" lon="3.128">
        <ele>1239.76</ele>
        <time>2012-05-14T11:19:05Z</time>
      </trkpt>
      <trkpt lat="44.6797" lon="3.12788">
        <ele>1240.72</ele>
        <time>2012-05-14T11:19:14Z</time>
      </trkpt>
      <trkpt lat="44.67968" lon="3.12776">
        <ele>1241.68</ele>
        <time>2012-05-14T11:19:23Z</time>
      </trkpt>
      <trkpt lat="44.67965" lon="3.12769">
        <ele>1242.64</ele>
        <time>2012-05-14T11:19:28Z</time>
      </trkpt>
      <trkpt lat="44.67966" lon="3.1276">
        <ele>1245.53</ele>
        <time>2012-05-14T11:19:40Z</time>
      </trkpt>
      <trkpt lat="44.67963" lon="3.12744">
        <ele>1248.41</ele>
        <time>2012-05-14T11:19:53Z</time>
      </trkpt>
      <trkpt lat="44.67959" lon="3.12735">
        <ele>1249.37</ele>
        <time>2012-05-14T11:20:02Z</time>
      </trkpt>
      <trkpt lat="44.67957" lon="3.12728">
        <ele>1249.85</ele>
        <time>2012-05-14T11:20:08Z</time>
      </trkpt>
      <trkpt lat="44.67955" lon="3.12719">
        <ele>1249.85</ele>
        <time>2012-05-14T11:20:17Z</time>
      </trkpt>
      <trkpt lat="44.67955" lon="3.12716">
        <ele>1249.85</ele>
        <time>2012-05-14T11:20:32Z</time>
      </trkpt>
      <trkpt lat="44.67955" lon="3.12716">
        <ele>1249.85</ele>
        <time>2012-05-14T11:21:01Z</time>
      </trkpt>
      <trkpt lat="44.67958" lon="3.12715">
        <ele>1249.85</ele>
        <time>2012-05-14T11:21:17Z</time>
      </trkpt>
      <trkpt lat="44.67958" lon="3.12715">
        <ele>1249.85</ele>
        <time>2012-05-14T11:21:37Z</time>
      </trkpt>
      <trkpt lat="44.67957" lon="3.12713">
        <ele>1250.33</ele>
        <time>2012-05-14T11:21:56Z</time>
      </trkpt>
      <trkpt lat="44.67952" lon="3.1269">
        <ele>1252.25</ele>
        <time>2012-05-14T11:22:10Z</time>
      </trkpt>
      <trkpt lat="44.67952" lon="3.12679">
        <ele>1252.74</ele>
        <time>2012-05-14T11:22:17Z</time>
      </trkpt>
      <trkpt lat="44.67954" lon="3.1266">
        <ele>1254.18</ele>
        <time>2012-05-14T11:22:30Z</time>
      </trkpt>
      <trkpt lat="44.67956" lon="3.12645">
        <ele>1254.18</ele>
        <time>2012-05-14T11:22:39Z</time>
      </trkpt>
      <trkpt lat="44.67956" lon="3.12642">
        <ele>1254.18</ele>
        <time>2012-05-14T11:22:41Z</time>
      </trkpt>
      <trkpt lat="44.67959" lon="3.12627">
        <ele>1255.14</ele>
        <time>2012-05-14T11:22:52Z</time>
      </trkpt>
      <trkpt lat="44.67964" lon="3.12612">
        <ele>1255.14</ele>
        <time>2012-05-14T11:23:01Z</time>
      </trkpt>
      <trkpt lat="44.67967" lon="3.12605">
        <ele>1255.62</ele>
        <time>2012-05-14T11:23:07Z</time>
      </trkpt>
      <trkpt lat="44.67974" lon="3.12595">
        <ele>1255.62</ele>
        <time>2012-05-14T11:23:15Z</time>
      </trkpt>
      <trkpt lat="44.67977" lon="3.12593">
        <ele>1255.62</ele>
        <time>2012-05-14T11:23:18Z</time>
      </trkpt>
      <trkpt lat="44.6798" lon="3.12586">
        <ele>1256.58</ele>
        <time>2012-05-14T11:23:23Z</time>
      </trkpt>
      <trkpt lat="44.67988" lon="3.12574">
        <ele>1256.1</ele>
        <time>2012-05-14T11:23:32Z</time>
      </trkpt>
      <trkpt lat="44.67991" lon="3.1257">
        <ele>1255.62</ele>
        <time>2012-05-14T11:23:36Z</time>
      </trkpt>
      <trkpt lat="44.67998" lon="3.12557">
        <ele>1255.62</ele>
        <time>2012-05-14T11:23:46Z</time>
      </trkpt>
      <trkpt lat="44.68003" lon="3.12548">
        <ele>1254.66</ele>
        <time>2012-05-14T11:23:53Z</time>
      </trkpt>
      <trkpt lat="44.68009" lon="3.12528">
        <ele>1252.74</ele>
        <time>2012-05-14T11:24:07Z</time>
      </trkpt>
      <trkpt lat="44.68015" lon="3.12508">
        <ele>1250.81</ele>
        <time>2012-05-14T11:24:19Z</time>
      </trkpt>
      <trkpt lat="44.68015" lon="3.12506">
        <ele>1250.81</ele>
        <time>2012-05-14T11:24:21Z</time>
      </trkpt>
      <trkpt lat="44.68015" lon="3.12503">
        <ele>1251.29</ele>
        <time>2012-05-14T11:24:33Z</time>
      </trkpt>
      <trkpt lat="44.68015" lon="3.12501">
        <ele>1250.33</ele>
        <time>2012-05-14T11:24:40Z</time>
      </trkpt>
      <trkpt lat="44.68019" lon="3.12494">
        <ele>1249.37</ele>
        <time>2012-05-14T11:24:46Z</time>
      </trkpt>
      <trkpt lat="44.68024" lon="3.12476">
        <ele>1248.89</ele>
        <time>2012-05-14T11:24:56Z</time>
      </trkpt>
      <trkpt lat="44.68026" lon="3.12462">
        <ele>1249.85</ele>
        <time>2012-05-14T11:25:04Z</time>
      </trkpt>
      <trkpt lat="44.6803" lon="3.12438">
        <ele>1250.33</ele>
        <time>2012-05-14T11:25:19Z</time>
      </trkpt>
      <trkpt lat="44.68033" lon="3.12414">
        <ele>1249.37</ele>
        <time>2012-05-14T11:25:34Z</time>
      </trkpt>
      <trkpt lat="44.68033" lon="3.12413">
        <ele>1249.37</ele>
        <time>2012-05-14T11:25:35Z</time>
      </trkpt>
      <trkpt lat="44.68033" lon="3.12391">
        <ele>1247.93</ele>
        <time>2012-05-14T11:25:48Z</time>
      </trkpt>
      <trkpt lat="44.68032" lon="3.1238">
        <ele>1247.45</ele>
        <time>2012-05-14T11:25:55Z</time>
      </trkpt>
      <trkpt lat="44.68024" lon="3.12352">
        <ele>1246.97</ele>
        <time>2012-05-14T11:26:13Z</time>
      </trkpt>
      <trkpt lat="44.68017" lon="3.12325">
        <ele>1243.6</ele>
        <time>2012-05-14T11:26:29Z</time>
      </trkpt>
      <trkpt lat="44.68011" lon="3.12311">
        <ele>1242.16</ele>
        <time>2012-05-14T11:26:38Z</time>
      </trkpt>
      <trkpt lat="44.68009" lon="3.12307">
        <ele>1241.68</ele>
        <time>2012-05-14T11:26:41Z</time>
      </trkpt>
      <trkpt lat="44.68005" lon="3.12283">
        <ele>1240.72</ele>
        <time>2012-05-14T11:26:56Z</time>
      </trkpt>
      <trkpt lat="44.68003" lon="3.12267">
        <ele>1239.76</ele>
        <time>2012-05-14T11:27:04Z</time>
      </trkpt>
      <trkpt lat="44.68" lon="3.12257">
        <ele>1239.76</ele>
        <time>2012-05-14T11:27:10Z</time>
      </trkpt>
      <trkpt lat="44.67998" lon="3.12233">
        <ele>1238.8</ele>
        <time>2012-05-14T11:27:24Z</time>
      </trkpt>
      <trkpt lat="44.67995" lon="3.12211">
        <ele>1237.35</ele>
        <time>2012-05-14T11:27:36Z</time>
      </trkpt>
      <trkpt lat="44.67993" lon="3.12195">
        <ele>1236.87</ele>
        <time>2012-05-14T11:27:48Z</time>
      </trkpt>
      <trkpt lat="44.67994" lon="3.12193">
        <ele>1236.87</ele>
        <time>2012-05-14T11:27:56Z</time>
      </trkpt>
      <trkpt lat="44.67989" lon="3.12173">
        <ele>1235.43</ele>
        <time>2012-05-14T11:28:10Z</time>
      </trkpt>
      <trkpt lat="44.67989" lon="3.12171">
        <ele>1235.43</ele>
        <time>2012-05-14T11:28:11Z</time>
      </trkpt>
      <trkpt lat="44.67988" lon="3.12149">
        <ele>1234.47</ele>
        <time>2012-05-14T11:28:26Z</time>
      </trkpt>
      <trkpt lat="44.67986" lon="3.12137">
        <ele>1233.51</ele>
        <time>2012-05-14T11:28:35Z</time>
      </trkpt>
      <trkpt lat="44.67987" lon="3.12131">
        <ele>1233.51</ele>
        <time>2012-05-14T11:28:40Z</time>
      </trkpt>
      <trkpt lat="44.67987" lon="3.12126">
        <ele>1233.03</ele>
        <time>2012-05-14T11:28:43Z</time>
      </trkpt>
      <trkpt lat="44.67986" lon="3.12107">
        <ele>1230.62</ele>
        <time>2012-05-14T11:28:58Z</time>
      </trkpt>
      <trkpt lat="44.67985" lon="3.12101">
        <ele>1229.66</ele>
        <time>2012-05-14T11:29:02Z</time>
      </trkpt>
      <trkpt lat="44.67986" lon="3.12075">
        <ele>1228.22</ele>
        <time>2012-05-14T11:29:17Z</time>
      </trkpt>
      <trkpt lat="44.67986" lon="3.12074">
        <ele>1227.74</ele>
        <time>2012-05-14T11:29:18Z</time>
      </trkpt>
      <trkpt lat="44.67999" lon="3.12061">
        <ele>1227.26</ele>
        <time>2012-05-14T11:29:34Z</time>
      </trkpt>
      <trkpt lat="44.68" lon="3.12061">
        <ele>1227.26</ele>
        <time>2012-05-14T11:29:35Z</time>
      </trkpt>
      <trkpt lat="44.68003" lon="3.12059">
        <ele>1227.26</ele>
        <time>2012-05-14T11:29:38Z</time>
      </trkpt>
      <trkpt lat="44.68008" lon="3.12052">
        <ele>1226.3</ele>
        <time>2012-05-14T11:29:45Z</time>
      </trkpt>
      <trkpt lat="44.68011" lon="3.1205">
        <ele>1225.82</ele>
        <time>2012-05-14T11:29:48Z</time>
      </trkpt>
      <trkpt lat="44.68014" lon="3.12044">
        <ele>1224.86</ele>
        <time>2012-05-14T11:29:53Z</time>
      </trkpt>
      <trkpt lat="44.68031" lon="3.12029">
        <ele>1224.38</ele>
        <time>2012-05-14T11:30:09Z</time>
      </trkpt>
      <trkpt lat="44.68047" lon="3.12013">
        <ele>1223.9</ele>
        <time>2012-05-14T11:30:25Z</time>
      </trkpt>
      <trkpt lat="44.68048" lon="3.12009">
        <ele>1223.9</ele>
        <time>2012-05-14T11:30:28Z</time>
      </trkpt>
      <trkpt lat="44.68047" lon="3.12001">
        <ele>1223.42</ele>
        <time>2012-05-14T11:30:33Z</time>
      </trkpt>
      <trkpt lat="44.68036" lon="3.1198">
        <ele>1221.49</ele>
        <time>2012-05-14T11:30:48Z</time>
      </trkpt>
      <trkpt lat="44.68021" lon="3.11952">
        <ele>1220.53</ele>
        <time>2012-05-14T11:31:07Z</time>
      </trkpt>
      <trkpt lat="44.68005" lon="3.11934">
        <ele>1220.53</ele>
        <time>2012-05-14T11:31:23Z</time>
      </trkpt>
      <trkpt lat="44.6799" lon="3.11921">
        <ele>1222.45</ele>
        <time>2012-05-14T11:31:38Z</time>
      </trkpt>
      <trkpt lat="44.67989" lon="3.1192">
        <ele>1222.45</ele>
        <time>2012-05-14T11:31:58Z</time>
      </trkpt>
      <trkpt lat="44.67976" lon="3.11909">
        <ele>1223.9</ele>
        <time>2012-05-14T11:32:11Z</time>
      </trkpt>
      <trkpt lat="44.67954" lon="3.11892">
        <ele>1221.49</ele>
        <time>2012-05-14T11:32:31Z</time>
      </trkpt>
      <trkpt lat="44.67936" lon="3.11875">
        <ele>1218.61</ele>
        <time>2012-05-14T11:32:47Z</time>
      </trkpt>
      <trkpt lat="44.67919" lon="3.11856">
        <ele>1217.17</ele>
        <time>2012-05-14T11:33:04Z</time>
      </trkpt>
      <trkpt lat="44.67904" lon="3.1184">
        <ele>1214.76</ele>
        <time>2012-05-14T11:33:19Z</time>
      </trkpt>
      <trkpt lat="44.67895" lon="3.11833">
        <ele>1214.28</ele>
        <time>2012-05-14T11:33:28Z</time>
      </trkpt>
      <trkpt lat="44.67892" lon="3.11829">
        <ele>1213.8</ele>
        <time>2012-05-14T11:33:32Z</time>
      </trkpt>
      <trkpt lat="44.67888" lon="3.11827">
        <ele>1213.8</ele>
        <time>2012-05-14T11:33:36Z</time>
      </trkpt>
      <trkpt lat="44.67872" lon="3.11807">
        <ele>1212.36</ele>
        <time>2012-05-14T11:33:53Z</time>
      </trkpt>
      <trkpt lat="44.67864" lon="3.11789">
        <ele>1209.96</ele>
        <time>2012-05-14T11:34:07Z</time>
      </trkpt>
      <trkpt lat="44.67856" lon="3.11764">
        <ele>1206.59</ele>
        <time>2012-05-14T11:34:23Z</time>
      </trkpt>
      <trkpt lat="44.67847" lon="3.11742">
        <ele>1204.67</ele>
        <time>2012-05-14T11:34:38Z</time>
      </trkpt>
      <trkpt lat="44.67841" lon="3.11727">
        <ele>1203.71</ele>
        <time>2012-05-14T11:34:48Z</time>
      </trkpt>
      <trkpt lat="44.67836" lon="3.1171">
        <ele>1202.27</ele>
        <time>2012-05-14T11:34:59Z</time>
      </trkpt>
      <trkpt lat="44.67828" lon="3.11685">
        <ele>1199.86</ele>
        <time>2012-05-14T11:35:14Z</time>
      </trkpt>
      <trkpt lat="44.67827" lon="3.11676">
        <ele>1199.86</ele>
        <time>2012-05-14T11:35:19Z</time>
      </trkpt>
      <trkpt lat="44.6783" lon="3.11668">
        <ele>1199.38</ele>
        <time>2012-05-14T11:35:24Z</time>
      </trkpt>
      <trkpt lat="44.67836" lon="3.11648">
        <ele>1198.42</ele>
        <time>2012-05-14T11:35:39Z</time>
      </trkpt>
      <trkpt lat="44.67837" lon="3.11635">
        <ele>1197.46</ele>
        <time>2012-05-14T11:35:50Z</time>
      </trkpt>
      <trkpt lat="44.67842" lon="3.1161">
        <ele>1196.02</ele>
        <time>2012-05-14T11:36:07Z</time>
      </trkpt>
      <trkpt lat="44.67845" lon="3.11573">
        <ele>1195.54</ele>
        <time>2012-05-14T11:36:30Z</time>
      </trkpt>
      <trkpt lat="44.67848" lon="3.11545">
        <ele>1194.58</ele>
        <time>2012-05-14T11:36:49Z</time>
      </trkpt>
      <trkpt lat="44.67846" lon="3.11512">
        <ele>1193.13</ele>
        <time>2012-05-14T11:37:09Z</time>
      </trkpt>
      <trkpt lat="44.67845" lon="3.1151">
        <ele>1192.65</ele>
        <time>2012-05-14T11:37:10Z</time>
      </trkpt>
      <trkpt lat="44.67838" lon="3.11486">
        <ele>1188.81</ele>
        <time>2012-05-14T11:37:25Z</time>
      </trkpt>
      <trkpt lat="44.67832" lon="3.11458">
        <ele>1185.44</ele>
        <time>2012-05-14T11:37:42Z</time>
      </trkpt>
      <trkpt lat="44.6783" lon="3.11446">
        <ele>1184.96</ele>
        <time>2012-05-14T11:37:49Z</time>
      </trkpt>
      <trkpt lat="44.67824" lon="3.11422">
        <ele>1184</ele>
        <time>2012-05-14T11:38:04Z</time>
      </trkpt>
      <trkpt lat="44.67817" lon="3.11391">
        <ele>1182.56</ele>
        <time>2012-05-14T11:38:22Z</time>
      </trkpt>
      <trkpt lat="44.67809" lon="3.11358">
        <ele>1181.6</ele>
        <time>2012-05-14T11:38:41Z</time>
      </trkpt>
      <trkpt lat="44.67801" lon="3.11333">
        <ele>1180.64</ele>
        <time>2012-05-14T11:38:56Z</time>
      </trkpt>
      <trkpt lat="44.67796" lon="3.11309">
        <ele>1179.19</ele>
        <time>2012-05-14T11:39:10Z</time>
      </trkpt>
      <trkpt lat="44.67793" lon="3.11279">
        <ele>1177.75</ele>
        <time>2012-05-14T11:39:27Z</time>
      </trkpt>
      <trkpt lat="44.67788" lon="3.11245">
        <ele>1179.19</ele>
        <time>2012-05-14T11:39:46Z</time>
      </trkpt>
      <trkpt lat="44.67783" lon="3.11214">
        <ele>1179.67</ele>
        <time>2012-05-14T11:40:03Z</time>
      </trkpt>
      <trkpt lat="44.6778" lon="3.11188">
        <ele>1176.31</ele>
        <time>2012-05-14T11:40:19Z</time>
      </trkpt>
      <trkpt lat="44.6778" lon="3.1118">
        <ele>1175.83</ele>
        <time>2012-05-14T11:40:23Z</time>
      </trkpt>
      <trkpt lat="44.67779" lon="3.11175">
        <ele>1176.31</ele>
        <time>2012-05-14T11:40:26Z</time>
      </trkpt>
      <trkpt lat="44.67779" lon="3.11166">
        <ele>1175.35</ele>
        <time>2012-05-14T11:40:32Z</time>
      </trkpt>
      <trkpt lat="44.67774" lon="3.11129">
        <ele>1173.91</ele>
        <time>2012-05-14T11:40:53Z</time>
      </trkpt>
      <trkpt lat="44.67773" lon="3.1112">
        <ele>1173.91</ele>
        <time>2012-05-14T11:40:58Z</time>
      </trkpt>
      <trkpt lat="44.67771" lon="3.11117">
        <ele>1174.39</ele>
        <time>2012-05-14T11:41:01Z</time>
      </trkpt>
      <trkpt lat="44.67761" lon="3.11091">
        <ele>1173.91</ele>
        <time>2012-05-14T11:41:19Z</time>
      </trkpt>
      <trkpt lat="44.67747" lon="3.11064">
        <ele>1173.43</ele>
        <time>2012-05-14T11:41:37Z</time>
      </trkpt>
      <trkpt lat="44.67736" lon="3.11034">
        <ele>1172.47</ele>
        <time>2012-05-14T11:41:56Z</time>
      </trkpt>
      <trkpt lat="44.67725" lon="3.11019">
        <ele>1173.43</ele>
        <time>2012-05-14T11:42:10Z</time>
      </trkpt>
      <trkpt lat="44.67721" lon="3.11015">
        <ele>1173.43</ele>
        <time>2012-05-14T11:42:14Z</time>
      </trkpt>
      <trkpt lat="44.67717" lon="3.11012">
        <ele>1173.91</ele>
        <time>2012-05-14T11:42:25Z</time>
      </trkpt>
      <trkpt lat="44.67716" lon="3.11016">
        <ele>1174.39</ele>
        <time>2012-05-14T11:42:41Z</time>
      </trkpt>
      <trkpt lat="44.67713" lon="3.11015">
        <ele>1174.39</ele>
        <time>2012-05-14T11:42:57Z</time>
      </trkpt>
      <trkpt lat="44.67713" lon="3.11015">
        <ele>1174.39</ele>
        <time>2012-05-14T11:43:27Z</time>
      </trkpt>
      <trkpt lat="44.67713" lon="3.11015">
        <ele>1174.39</ele>
        <time>2012-05-14T11:44:03Z</time>
      </trkpt>
      <trkpt lat="44.67713" lon="3.11015">
        <ele>1174.39</ele>
        <time>2012-05-14T11:44:36Z</time>
      </trkpt>
      <trkpt lat="44.67713" lon="3.11015">
        <ele>1174.39</ele>
        <time>2012-05-14T11:45:11Z</time>
      </trkpt>
      <trkpt lat="44.67713" lon="3.11015">
        <ele>1174.39</ele>
        <time>2012-05-14T11:45:13Z</time>
      </trkpt>
      <trkpt lat="44.67699" lon="3.11006">
        <ele>1175.35</ele>
        <time>2012-05-14T11:45:26Z</time>
      </trkpt>
      <trkpt lat="44.67681" lon="3.10997">
        <ele>1175.83</ele>
        <time>2012-05-14T11:45:43Z</time>
      </trkpt>
      <trkpt lat="44.67661" lon="3.10985">
        <ele>1176.79</ele>
        <time>2012-05-14T11:46:00Z</time>
      </trkpt>
      <trkpt lat="44.67638" lon="3.10973">
        <ele>1176.79</ele>
        <time>2012-05-14T11:46:19Z</time>
      </trkpt>
      <trkpt lat="44.67617" lon="3.10963">
        <ele>1178.71</ele>
        <time>2012-05-14T11:46:37Z</time>
      </trkpt>
      <trkpt lat="44.67595" lon="3.10956">
        <ele>1180.64</ele>
        <time>2012-05-14T11:46:56Z</time>
      </trkpt>
      <trkpt lat="44.67575" lon="3.10955">
        <ele>1182.08</ele>
        <time>2012-05-14T11:47:13Z</time>
      </trkpt>
      <trkpt lat="44.6755" lon="3.10952">
        <ele>1182.56</ele>
        <time>2012-05-14T11:47:33Z</time>
      </trkpt>
      <trkpt lat="44.6753" lon="3.10948">
        <ele>1183.52</ele>
        <time>2012-05-14T11:47:51Z</time>
      </trkpt>
      <trkpt lat="44.67511" lon="3.10938">
        <ele>1184.96</ele>
        <time>2012-05-14T11:48:09Z</time>
      </trkpt>
      <trkpt lat="44.67505" lon="3.10933">
        <ele>1184.96</ele>
        <time>2012-05-14T11:48:24Z</time>
      </trkpt>
      <trkpt lat="44.67495" lon="3.10926">
        <ele>1185.92</ele>
        <time>2012-05-14T11:48:41Z</time>
      </trkpt>
      <trkpt lat="44.67481" lon="3.10912">
        <ele>1186.88</ele>
        <time>2012-05-14T11:48:56Z</time>
      </trkpt>
      <trkpt lat="44.67463" lon="3.10899">
        <ele>1188.33</ele>
        <time>2012-05-14T11:49:13Z</time>
      </trkpt>
      <trkpt lat="44.67462" lon="3.10898">
        <ele>1187.85</ele>
        <time>2012-05-14T11:49:14Z</time>
      </trkpt>
      <trkpt lat="44.67455" lon="3.10892">
        <ele>1188.33</ele>
        <time>2012-05-14T11:49:21Z</time>
      </trkpt>
      <trkpt lat="44.67438" lon="3.10878">
        <ele>1189.77</ele>
        <time>2012-05-14T11:49:37Z</time>
      </trkpt>
      <trkpt lat="44.67419" lon="3.10861">
        <ele>1189.77</ele>
        <time>2012-05-14T11:49:55Z</time>
      </trkpt>
      <trkpt lat="44.67401" lon="3.10845">
        <ele>1190.25</ele>
        <time>2012-05-14T11:50:12Z</time>
      </trkpt>
      <trkpt lat="44.6738" lon="3.10828">
        <ele>1190.25</ele>
        <time>2012-05-14T11:50:33Z</time>
      </trkpt>
      <trkpt lat="44.67379" lon="3.10828">
        <ele>1190.25</ele>
        <time>2012-05-14T11:50:57Z</time>
      </trkpt>
      <trkpt lat="44.67357" lon="3.1081">
        <ele>1190.73</ele>
        <time>2012-05-14T11:51:17Z</time>
      </trkpt>
      <trkpt lat="44.67339" lon="3.10795">
        <ele>1190.73</ele>
        <time>2012-05-14T11:51:34Z</time>
      </trkpt>
      <trkpt lat="44.67324" lon="3.10782">
        <ele>1191.69</ele>
        <time>2012-05-14T11:51:49Z</time>
      </trkpt>
      <trkpt lat="44.67302" lon="3.10761">
        <ele>1190.73</ele>
        <time>2012-05-14T11:52:09Z</time>
      </trkpt>
      <trkpt lat="44.67279" lon="3.10741">
        <ele>1188.81</ele>
        <time>2012-05-14T11:52:30Z</time>
      </trkpt>
      <trkpt lat="44.67273" lon="3.10739">
        <ele>1188.33</ele>
        <time>2012-05-14T11:52:36Z</time>
      </trkpt>
      <trkpt lat="44.67256" lon="3.10719">
        <ele>1187.85</ele>
        <time>2012-05-14T11:52:54Z</time>
      </trkpt>
      <trkpt lat="44.67253" lon="3.10713">
        <ele>1187.85</ele>
        <time>2012-05-14T11:52:58Z</time>
      </trkpt>
      <trkpt lat="44.67227" lon="3.10692">
        <ele>1186.88</ele>
        <time>2012-05-14T11:53:21Z</time>
      </trkpt>
      <trkpt lat="44.67206" lon="3.10673">
        <ele>1186.4</ele>
        <time>2012-05-14T11:53:40Z</time>
      </trkpt>
      <trkpt lat="44.67185" lon="3.10655">
        <ele>1186.4</ele>
        <time>2012-05-14T11:53:59Z</time>
      </trkpt>
      <trkpt lat="44.67163" lon="3.10635">
        <ele>1186.88</ele>
        <time>2012-05-14T11:54:19Z</time>
      </trkpt>
      <trkpt lat="44.67141" lon="3.10614">
        <ele>1188.33</ele>
        <time>2012-05-14T11:54:39Z</time>
      </trkpt>
      <trkpt lat="44.67125" lon="3.10593">
        <ele>1189.29</ele>
        <time>2012-05-14T11:54:56Z</time>
      </trkpt>
      <trkpt lat="44.67108" lon="3.10566">
        <ele>1189.77</ele>
        <time>2012-05-14T11:55:16Z</time>
      </trkpt>
      <trkpt lat="44.6709" lon="3.10539">
        <ele>1190.73</ele>
        <time>2012-05-14T11:55:36Z</time>
      </trkpt>
      <trkpt lat="44.67073" lon="3.10514">
        <ele>1192.17</ele>
        <time>2012-05-14T11:55:57Z</time>
      </trkpt>
      <trkpt lat="44.67071" lon="3.10512">
        <ele>1192.17</ele>
        <time>2012-05-14T11:56:24Z</time>
      </trkpt>
      <trkpt lat="44.67057" lon="3.10496">
        <ele>1190.73</ele>
        <time>2012-05-14T11:56:39Z</time>
      </trkpt>
      <trkpt lat="44.67054" lon="3.10491">
        <ele>1190.73</ele>
        <time>2012-05-14T11:56:44Z</time>
      </trkpt>
      <trkpt lat="44.67043" lon="3.10486">
        <ele>1189.77</ele>
        <time>2012-05-14T11:56:54Z</time>
      </trkpt>
      <trkpt lat="44.67035" lon="3.10479">
        <ele>1189.77</ele>
        <time>2012-05-14T11:57:01Z</time>
      </trkpt>
      <trkpt lat="44.67021" lon="3.10467">
        <ele>1188.33</ele>
        <time>2012-05-14T11:57:18Z</time>
      </trkpt>
      <trkpt lat="44.67019" lon="3.10468">
        <ele>1187.85</ele>
        <time>2012-05-14T11:57:30Z</time>
      </trkpt>
      <trkpt lat="44.6702" lon="3.10466">
        <ele>1187.85</ele>
        <time>2012-05-14T11:57:42Z</time>
      </trkpt>
      <trkpt lat="44.67012" lon="3.10453">
        <ele>1187.85</ele>
        <time>2012-05-14T11:57:58Z</time>
      </trkpt>
      <trkpt lat="44.6701" lon="3.10451">
        <ele>1187.85</ele>
        <time>2012-05-14T11:58:15Z</time>
      </trkpt>
      <trkpt lat="44.67001" lon="3.10442">
        <ele>1187.37</ele>
        <time>2012-05-14T11:58:30Z</time>
      </trkpt>
      <trkpt lat="44.66991" lon="3.10437">
        <ele>1186.88</ele>
        <time>2012-05-14T11:58:45Z</time>
      </trkpt>
      <trkpt lat="44.66988" lon="3.10437">
        <ele>1186.88</ele>
        <time>2012-05-14T11:59:01Z</time>
      </trkpt>
      <trkpt lat="44.66988" lon="3.10437">
        <ele>1186.88</ele>
        <time>2012-05-14T11:59:02Z</time>
      </trkpt>
      <trkpt lat="44.66987" lon="3.10436">
        <ele>1186.88</ele>
        <time>2012-05-14T11:59:04Z</time>
      </trkpt>
      <trkpt lat="44.66974" lon="3.10433">
        <ele>1187.85</ele>
        <time>2012-05-14T11:59:15Z</time>
      </trkpt>
      <trkpt lat="44.66952" lon="3.10428">
        <ele>1187.85</ele>
        <time>2012-05-14T11:59:32Z</time>
      </trkpt>
      <trkpt lat="44.66942" lon="3.10425">
        <ele>1187.85</ele>
        <time>2012-05-14T11:59:41Z</time>
      </trkpt>
      <trkpt lat="44.6694" lon="3.10422">
        <ele>1187.85</ele>
        <time>2012-05-14T11:59:44Z</time>
      </trkpt>
      <trkpt lat="44.6694" lon="3.10417">
        <ele>1187.37</ele>
        <time>2012-05-14T11:59:58Z</time>
      </trkpt>
      <trkpt lat="44.6694" lon="3.10417">
        <ele>1187.37</ele>
        <time>2012-05-14T12:00:19Z</time>
      </trkpt>
      <trkpt lat="44.6694" lon="3.10417">
        <ele>1187.85</ele>
        <time>2012-05-14T12:00:35Z</time>
      </trkpt>
      <trkpt lat="44.6694" lon="3.10417">
        <ele>1187.85</ele>
        <time>2012-05-14T12:00:59Z</time>
      </trkpt>
      <trkpt lat="44.6694" lon="3.10417">
        <ele>1187.85</ele>
        <time>2012-05-14T12:01:11Z</time>
      </trkpt>
      <trkpt lat="44.66937" lon="3.10419">
        <ele>1187.37</ele>
        <time>2012-05-14T12:01:14Z</time>
      </trkpt>
      <trkpt lat="44.66931" lon="3.10419">
        <ele>1186.88</ele>
        <time>2012-05-14T12:01:28Z</time>
      </trkpt>
      <trkpt lat="44.66931" lon="3.10419">
        <ele>1186.88</ele>
        <time>2012-05-14T12:01:40Z</time>
      </trkpt>
      <trkpt lat="44.66913" lon="3.10416">
        <ele>1185.92</ele>
        <time>2012-05-14T12:01:53Z</time>
      </trkpt>
      <trkpt lat="44.66908" lon="3.10418">
        <ele>1185.92</ele>
        <time>2012-05-14T12:01:57Z</time>
      </trkpt>
      <trkpt lat="44.66904" lon="3.10417">
        <ele>1185.44</ele>
        <time>2012-05-14T12:02:01Z</time>
      </trkpt>
      <trkpt lat="44.669" lon="3.10404">
        <ele>1183.04</ele>
        <time>2012-05-14T12:02:15Z</time>
      </trkpt>
      <trkpt lat="44.66896" lon="3.10401">
        <ele>1182.56</ele>
        <time>2012-05-14T12:02:30Z</time>
      </trkpt>
      <trkpt lat="44.66893" lon="3.10404">
        <ele>1182.08</ele>
        <time>2012-05-14T12:02:44Z</time>
      </trkpt>
      <trkpt lat="44.66873" lon="3.10397">
        <ele>1181.12</ele>
        <time>2012-05-14T12:03:01Z</time>
      </trkpt>
      <trkpt lat="44.6687" lon="3.10396">
        <ele>1181.12</ele>
        <time>2012-05-14T12:03:03Z</time>
      </trkpt>
      <trkpt lat="44.66865" lon="3.10397">
        <ele>1180.16</ele>
        <time>2012-05-14T12:03:16Z</time>
      </trkpt>
      <trkpt lat="44.66865" lon="3.10397">
        <ele>1180.16</ele>
        <time>2012-05-14T12:03:33Z</time>
      </trkpt>
      <trkpt lat="44.66867" lon="3.10397">
        <ele>1180.16</ele>
        <time>2012-05-14T12:03:51Z</time>
      </trkpt>
      <trkpt lat="44.66868" lon="3.10397">
        <ele>1180.64</ele>
        <time>2012-05-14T12:03:52Z</time>
      </trkpt>
      <trkpt lat="44.66869" lon="3.10405">
        <ele>1181.12</ele>
        <time>2012-05-14T12:04:06Z</time>
      </trkpt>
      <trkpt lat="44.66869" lon="3.10405">
        <ele>1181.12</ele>
        <time>2012-05-14T12:04:26Z</time>
      </trkpt>
      <trkpt lat="44.66869" lon="3.10405">
        <ele>1181.12</ele>
        <time>2012-05-14T12:04:52Z</time>
      </trkpt>
      <trkpt lat="44.66869" lon="3.10404">
        <ele>1180.64</ele>
        <time>2012-05-14T12:05:17Z</time>
      </trkpt>
      <trkpt lat="44.66867" lon="3.1038">
        <ele>1180.16</ele>
        <time>2012-05-14T12:05:34Z</time>
      </trkpt>
      <trkpt lat="44.66869" lon="3.10354">
        <ele>1180.64</ele>
        <time>2012-05-14T12:05:49Z</time>
      </trkpt>
      <trkpt lat="44.66865" lon="3.10335">
        <ele>1180.16</ele>
        <time>2012-05-14T12:06:02Z</time>
      </trkpt>
      <trkpt lat="44.66858" lon="3.10309">
        <ele>1182.56</ele>
        <time>2012-05-14T12:06:18Z</time>
      </trkpt>
      <trkpt lat="44.66855" lon="3.10282">
        <ele>1182.08</ele>
        <time>2012-05-14T12:06:34Z</time>
      </trkpt>
      <trkpt lat="44.66854" lon="3.10279">
        <ele>1182.08</ele>
        <time>2012-05-14T12:06:36Z</time>
      </trkpt>
      <trkpt lat="44.66853" lon="3.10262">
        <ele>1181.12</ele>
        <time>2012-05-14T12:06:46Z</time>
      </trkpt>
      <trkpt lat="44.66849" lon="3.1024">
        <ele>1181.6</ele>
        <time>2012-05-14T12:07:00Z</time>
      </trkpt>
      <trkpt lat="44.66847" lon="3.10238">
        <ele>1182.08</ele>
        <time>2012-05-14T12:07:16Z</time>
      </trkpt>
      <trkpt lat="44.66847" lon="3.10238">
        <ele>1182.08</ele>
        <time>2012-05-14T12:07:37Z</time>
      </trkpt>
      <trkpt lat="44.66847" lon="3.10238">
        <ele>1182.08</ele>
        <time>2012-05-14T12:07:57Z</time>
      </trkpt>
      <trkpt lat="44.66847" lon="3.10238">
        <ele>1182.08</ele>
        <time>2012-05-14T12:08:26Z</time>
      </trkpt>
      <trkpt lat="44.66847" lon="3.10238">
        <ele>1182.08</ele>
        <time>2012-05-14T12:08:53Z</time>
      </trkpt>
      <trkpt lat="44.66847" lon="3.10238">
        <ele>1182.08</ele>
        <time>2012-05-14T12:09:31Z</time>
      </trkpt>
      <trkpt lat="44.66847" lon="3.10238">
        <ele>1182.08</ele>
        <time>2012-05-14T12:09:53Z</time>
      </trkpt>
      <trkpt lat="44.66847" lon="3.10237">
        <ele>1182.08</ele>
        <time>2012-05-14T12:10:30Z</time>
      </trkpt>
      <trkpt lat="44.66847" lon="3.10238">
        <ele>1182.08</ele>
        <time>2012-05-14T12:11:12Z</time>
      </trkpt>
      <trkpt lat="44.66847" lon="3.10237">
        <ele>1182.08</ele>
        <time>2012-05-14T12:11:44Z</time>
      </trkpt>
      <trkpt lat="44.66847" lon="3.10237">
        <ele>1181.6</ele>
        <time>2012-05-14T12:12:18Z</time>
      </trkpt>
      <trkpt lat="44.66847" lon="3.10237">
        <ele>1181.6</ele>
        <time>2012-05-14T12:13:04Z</time>
      </trkpt>
      <trkpt lat="44.66847" lon="3.10237">
        <ele>1181.6</ele>
        <time>2012-05-14T12:13:39Z</time>
      </trkpt>
      <trkpt lat="44.66848" lon="3.10237">
        <ele>1181.6</ele>
        <time>2012-05-14T12:14:17Z</time>
      </trkpt>
      <trkpt lat="44.66848" lon="3.10238">
        <ele>1181.6</ele>
        <time>2012-05-14T12:15:05Z</time>
      </trkpt>
      <trkpt lat="44.66848" lon="3.10238">
        <ele>1181.6</ele>
        <time>2012-05-14T12:15:51Z</time>
      </trkpt>
      <trkpt lat="44.66848" lon="3.10238">
        <ele>1181.6</ele>
        <time>2012-05-14T12:16:29Z</time>
      </trkpt>
      <trkpt lat="44.66848" lon="3.10238">
        <ele>1181.6</ele>
        <time>2012-05-14T12:16:59Z</time>
      </trkpt>
      <trkpt lat="44.66848" lon="3.10238">
        <ele>1181.6</ele>
        <time>2012-05-14T12:17:29Z</time>
      </trkpt>
      <trkpt lat="44.66849" lon="3.10237">
        <ele>1181.12</ele>
        <time>2012-05-14T12:18:17Z</time>
      </trkpt>
      <trkpt lat="44.66849" lon="3.10237">
        <ele>1181.12</ele>
        <time>2012-05-14T12:19:00Z</time>
      </trkpt>
      <trkpt lat="44.66849" lon="3.10237">
        <ele>1181.12</ele>
        <time>2012-05-14T12:19:43Z</time>
      </trkpt>
      <trkpt lat="44.66849" lon="3.10237">
        <ele>1181.12</ele>
        <time>2012-05-14T12:20:24Z</time>
      </trkpt>
      <trkpt lat="44.6685" lon="3.10237">
        <ele>1180.64</ele>
        <time>2012-05-14T12:20:59Z</time>
      </trkpt>
      <trkpt lat="44.6685" lon="3.10236">
        <ele>1180.64</ele>
        <time>2012-05-14T12:21:44Z</time>
      </trkpt>
      <trkpt lat="44.6685" lon="3.10236">
        <ele>1181.12</ele>
        <time>2012-05-14T12:22:23Z</time>
      </trkpt>
      <trkpt lat="44.6685" lon="3.10236">
        <ele>1181.12</ele>
        <time>2012-05-14T12:23:03Z</time>
      </trkpt>
      <trkpt lat="44.66849" lon="3.10236">
        <ele>1180.64</ele>
        <time>2012-05-14T12:23:45Z</time>
      </trkpt>
      <trkpt lat="44.66849" lon="3.10236">
        <ele>1181.12</ele>
        <time>2012-05-14T12:24:20Z</time>
      </trkpt>
      <trkpt lat="44.66849" lon="3.10236">
        <ele>1180.64</ele>
        <time>2012-05-14T12:24:57Z</time>
      </trkpt>
      <trkpt lat="44.66849" lon="3.10236">
        <ele>1181.12</ele>
        <time>2012-05-14T12:25:33Z</time>
      </trkpt>
      <trkpt lat="44.66849" lon="3.10236">
        <ele>1181.12</ele>
        <time>2012-05-14T12:26:05Z</time>
      </trkpt>
      <trkpt lat="44.6685" lon="3.10236">
        <ele>1181.12</ele>
        <time>2012-05-14T12:26:37Z</time>
      </trkpt>
      <trkpt lat="44.6685" lon="3.10237">
        <ele>1181.12</ele>
        <time>2012-05-14T12:27:13Z</time>
      </trkpt>
      <trkpt lat="44.66849" lon="3.10237">
        <ele>1181.12</ele>
        <time>2012-05-14T12:27:54Z</time>
      </trkpt>
      <trkpt lat="44.66849" lon="3.10237">
        <ele>1181.12</ele>
        <time>2012-05-14T12:28:29Z</time>
      </trkpt>
      <trkpt lat="44.66849" lon="3.10237">
        <ele>1181.12</ele>
        <time>2012-05-14T12:29:03Z</time>
      </trkpt>
      <trkpt lat="44.66849" lon="3.10238">
        <ele>1181.12</ele>
        <time>2012-05-14T12:29:44Z</time>
      </trkpt>
      <trkpt lat="44.66849" lon="3.10237">
        <ele>1181.12</ele>
        <time>2012-05-14T12:30:15Z</time>
      </trkpt>
      <trkpt lat="44.66848" lon="3.10237">
        <ele>1181.6</ele>
        <time>2012-05-14T12:30:27Z</time>
      </trkpt>
      <trkpt lat="44.66848" lon="3.10237">
        <ele>1181.6</ele>
        <time>2012-05-14T12:30:45Z</time>
      </trkpt>
      <trkpt lat="44.66849" lon="3.10237">
        <ele>1181.6</ele>
        <time>2012-05-14T12:31:13Z</time>
      </trkpt>
      <trkpt lat="44.66848" lon="3.10237">
        <ele>1181.6</ele>
        <time>2012-05-14T12:31:30Z</time>
      </trkpt>
      <trkpt lat="44.6685" lon="3.10237">
        <ele>1180.16</ele>
        <time>2012-05-14T12:31:44Z</time>
      </trkpt>
      <trkpt lat="44.66852" lon="3.1023">
        <ele>1181.12</ele>
        <time>2012-05-14T12:31:51Z</time>
      </trkpt>
      <trkpt lat="44.66853" lon="3.10217">
        <ele>1181.12</ele>
        <time>2012-05-14T12:32:06Z</time>
      </trkpt>
      <trkpt lat="44.66853" lon="3.10217">
        <ele>1181.12</ele>
        <time>2012-05-14T12:32:07Z</time>
      </trkpt>
      <trkpt lat="44.66853" lon="3.10195">
        <ele>1177.75</ele>
        <time>2012-05-14T12:32:22Z</time>
      </trkpt>
      <trkpt lat="44.66851" lon="3.10168">
        <ele>1176.31</ele>
        <time>2012-05-14T12:32:37Z</time>
      </trkpt>
      <trkpt lat="44.66848" lon="3.10142">
        <ele>1174.39</ele>
        <time>2012-05-14T12:32:53Z</time>
      </trkpt>
      <trkpt lat="44.66838" lon="3.10118">
        <ele>1173.91</ele>
        <time>2012-05-14T12:33:10Z</time>
      </trkpt>
      <trkpt lat="44.66824" lon="3.10096">
        <ele>1172.95</ele>
        <time>2012-05-14T12:33:28Z</time>
      </trkpt>
      <trkpt lat="44.66811" lon="3.10082">
        <ele>1171.98</ele>
        <time>2012-05-14T12:33:42Z</time>
      </trkpt>
      <trkpt lat="44.66808" lon="3.10081">
        <ele>1171.98</ele>
        <time>2012-05-14T12:33:44Z</time>
      </trkpt>
      <trkpt lat="44.66789" lon="3.10067">
        <ele>1171.02</ele>
        <time>2012-05-14T12:34:02Z</time>
      </trkpt>
      <trkpt lat="44.66776" lon="3.10061">
        <ele>1169.58</ele>
        <time>2012-05-14T12:34:16Z</time>
      </trkpt>
      <trkpt lat="44.66752" lon="3.10056">
        <ele>1168.62</ele>
        <time>2012-05-14T12:34:35Z</time>
      </trkpt>
      <trkpt lat="44.6673" lon="3.10056">
        <ele>1167.18</ele>
        <time>2012-05-14T12:34:52Z</time>
      </trkpt>
      <trkpt lat="44.66705" lon="3.10057">
        <ele>1165.74</ele>
        <time>2012-05-14T12:35:12Z</time>
      </trkpt>
      <trkpt lat="44.66682" lon="3.10056">
        <ele>1164.29</ele>
        <time>2012-05-14T12:35:31Z</time>
      </trkpt>
      <trkpt lat="44.66665" lon="3.10051">
        <ele>1163.81</ele>
        <time>2012-05-14T12:35:48Z</time>
      </trkpt>
      <trkpt lat="44.66645" lon="3.10042">
        <ele>1162.37</ele>
        <time>2012-05-14T12:36:06Z</time>
      </trkpt>
      <trkpt lat="44.66622" lon="3.10029">
        <ele>1159.97</ele>
        <time>2012-05-14T12:36:26Z</time>
      </trkpt>
      <trkpt lat="44.66621" lon="3.10028">
        <ele>1159.97</ele>
        <time>2012-05-14T12:36:27Z</time>
      </trkpt>
      <trkpt lat="44.66601" lon="3.10015">
        <ele>1157.56</ele>
        <time>2012-05-14T12:36:46Z</time>
      </trkpt>
      <trkpt lat="44.66578" lon="3.09998">
        <ele>1155.64</ele>
        <time>2012-05-14T12:37:06Z</time>
      </trkpt>
      <trkpt lat="44.66567" lon="3.09989">
        <ele>1154.2</ele>
        <time>2012-05-14T12:37:21Z</time>
      </trkpt>
      <trkpt lat="44.66556" lon="3.09979">
        <ele>1153.72</ele>
        <time>2012-05-14T12:37:34Z</time>
      </trkpt>
      <trkpt lat="44.66537" lon="3.09969">
        <ele>1151.8</ele>
        <time>2012-05-14T12:37:50Z</time>
      </trkpt>
      <trkpt lat="44.66523" lon="3.09956">
        <ele>1151.32</ele>
        <time>2012-05-14T12:38:05Z</time>
      </trkpt>
      <trkpt lat="44.66509" lon="3.09945">
        <ele>1151.32</ele>
        <time>2012-05-14T12:38:20Z</time>
      </trkpt>
      <trkpt lat="44.66505" lon="3.0994">
        <ele>1150.84</ele>
        <time>2012-05-14T12:38:33Z</time>
      </trkpt>
      <trkpt lat="44.66505" lon="3.09939">
        <ele>1150.35</ele>
        <time>2012-05-14T12:39:00Z</time>
      </trkpt>
      <trkpt lat="44.66497" lon="3.09932">
        <ele>1150.35</ele>
        <time>2012-05-14T12:39:13Z</time>
      </trkpt>
      <trkpt lat="44.66484" lon="3.0992">
        <ele>1150.84</ele>
        <time>2012-05-14T12:39:30Z</time>
      </trkpt>
      <trkpt lat="44.66468" lon="3.09906">
        <ele>1150.84</ele>
        <time>2012-05-14T12:39:47Z</time>
      </trkpt>
      <trkpt lat="44.66452" lon="3.09889">
        <ele>1150.35</ele>
        <time>2012-05-14T12:40:04Z</time>
      </trkpt>
      <trkpt lat="44.66433" lon="3.0987">
        <ele>1150.84</ele>
        <time>2012-05-14T12:40:23Z</time>
      </trkpt>
      <trkpt lat="44.66425" lon="3.0986">
        <ele>1150.35</ele>
        <time>2012-05-14T12:40:32Z</time>
      </trkpt>
      <trkpt lat="44.66419" lon="3.09856">
        <ele>1150.84</ele>
        <time>2012-05-14T12:40:43Z</time>
      </trkpt>
      <trkpt lat="44.66412" lon="3.09845">
        <ele>1150.35</ele>
        <time>2012-05-14T12:40:52Z</time>
      </trkpt>
      <trkpt lat="44.66391" lon="3.0982">
        <ele>1149.87</ele>
        <time>2012-05-14T12:41:12Z</time>
      </trkpt>
      <trkpt lat="44.66372" lon="3.09795">
        <ele>1148.91</ele>
        <time>2012-05-14T12:41:31Z</time>
      </trkpt>
      <trkpt lat="44.66354" lon="3.09767">
        <ele>1149.39</ele>
        <time>2012-05-14T12:41:51Z</time>
      </trkpt>
      <trkpt lat="44.66344" lon="3.09743">
        <ele>1148.91</ele>
        <time>2012-05-14T12:42:07Z</time>
      </trkpt>
      <trkpt lat="44.66332" lon="3.09719">
        <ele>1149.39</ele>
        <time>2012-05-14T12:42:24Z</time>
      </trkpt>
      <trkpt lat="44.66318" lon="3.09693">
        <ele>1151.32</ele>
        <time>2012-05-14T12:42:45Z</time>
      </trkpt>
      <trkpt lat="44.66316" lon="3.0969">
        <ele>1152.28</ele>
        <time>2012-05-14T12:42:51Z</time>
      </trkpt>
      <trkpt lat="44.66304" lon="3.09669">
        <ele>1150.84</ele>
        <time>2012-05-14T12:43:07Z</time>
      </trkpt>
      <trkpt lat="44.66286" lon="3.09644">
        <ele>1148.43</ele>
        <time>2012-05-14T12:43:27Z</time>
      </trkpt>
      <trkpt lat="44.66281" lon="3.09635">
        <ele>1147.95</ele>
        <time>2012-05-14T12:43:33Z</time>
      </trkpt>
      <trkpt lat="44.6628" lon="3.0963">
        <ele>1148.43</ele>
        <time>2012-05-14T12:43:47Z</time>
      </trkpt>
      <trkpt lat="44.6628" lon="3.0963">
        <ele>1148.43</ele>
        <time>2012-05-14T12:44:09Z</time>
      </trkpt>
      <trkpt lat="44.6628" lon="3.0963">
        <ele>1148.43</ele>
        <time>2012-05-14T12:44:45Z</time>
      </trkpt>
      <trkpt lat="44.6628" lon="3.0963">
        <ele>1148.43</ele>
        <time>2012-05-14T12:45:06Z</time>
      </trkpt>
      <trkpt lat="44.66279" lon="3.09627">
        <ele>1148.91</ele>
        <time>2012-05-14T12:45:25Z</time>
      </trkpt>
      <trkpt lat="44.66274" lon="3.09622">
        <ele>1148.43</ele>
        <time>2012-05-14T12:45:34Z</time>
      </trkpt>
      <trkpt lat="44.66269" lon="3.09617">
        <ele>1148.91</ele>
        <time>2012-05-14T12:45:50Z</time>
      </trkpt>
      <trkpt lat="44.66263" lon="3.09609">
        <ele>1148.43</ele>
        <time>2012-05-14T12:46:06Z</time>
      </trkpt>
      <trkpt lat="44.66254" lon="3.09598">
        <ele>1148.43</ele>
        <time>2012-05-14T12:46:19Z</time>
      </trkpt>
      <trkpt lat="44.66239" lon="3.09579">
        <ele>1147.95</ele>
        <time>2012-05-14T12:46:37Z</time>
      </trkpt>
      <trkpt lat="44.66224" lon="3.09559">
        <ele>1148.43</ele>
        <time>2012-05-14T12:46:55Z</time>
      </trkpt>
      <trkpt lat="44.66209" lon="3.09537">
        <ele>1148.43</ele>
        <time>2012-05-14T12:47:14Z</time>
      </trkpt>
      <trkpt lat="44.66192" lon="3.09516">
        <ele>1148.43</ele>
        <time>2012-05-14T12:47:33Z</time>
      </trkpt>
      <trkpt lat="44.66176" lon="3.09497">
        <ele>1146.51</ele>
        <time>2012-05-14T12:47:50Z</time>
      </trkpt>
      <trkpt lat="44.66161" lon="3.09476">
        <ele>1147.47</ele>
        <time>2012-05-14T12:48:08Z</time>
      </trkpt>
      <trkpt lat="44.66153" lon="3.09468">
        <ele>1148.43</ele>
        <time>2012-05-14T12:48:18Z</time>
      </trkpt>
      <trkpt lat="44.66138" lon="3.09453">
        <ele>1150.35</ele>
        <time>2012-05-14T12:48:35Z</time>
      </trkpt>
      <trkpt lat="44.66121" lon="3.09438">
        <ele>1149.39</ele>
        <time>2012-05-14T12:48:51Z</time>
      </trkpt>
      <trkpt lat="44.66105" lon="3.09422">
        <ele>1147.47</ele>
        <time>2012-05-14T12:49:08Z</time>
      </trkpt>
      <trkpt lat="44.66094" lon="3.09411">
        <ele>1146.51</ele>
        <time>2012-05-14T12:49:19Z</time>
      </trkpt>
      <trkpt lat="44.66077" lon="3.09396">
        <ele>1146.51</ele>
        <time>2012-05-14T12:49:36Z</time>
      </trkpt>
      <trkpt lat="44.6606" lon="3.09379">
        <ele>1145.07</ele>
        <time>2012-05-14T12:49:53Z</time>
      </trkpt>
      <trkpt lat="44.6604" lon="3.09364">
        <ele>1145.07</ele>
        <time>2012-05-14T12:50:12Z</time>
      </trkpt>
      <trkpt lat="44.66019" lon="3.0935">
        <ele>1145.07</ele>
        <time>2012-05-14T12:50:31Z</time>
      </trkpt>
      <trkpt lat="44.66016" lon="3.09348">
        <ele>1144.59</ele>
        <time>2012-05-14T12:50:46Z</time>
      </trkpt>
      <trkpt lat="44.66016" lon="3.09347">
        <ele>1144.59</ele>
        <time>2012-05-14T12:51:25Z</time>
      </trkpt>
      <trkpt lat="44.66014" lon="3.09347">
        <ele>1145.55</ele>
        <time>2012-05-14T12:51:30Z</time>
      </trkpt>
      <trkpt lat="44.65993" lon="3.09335">
        <ele>1147.47</ele>
        <time>2012-05-14T12:51:48Z</time>
      </trkpt>
      <trkpt lat="44.6599" lon="3.09331">
        <ele>1146.99</ele>
        <time>2012-05-14T12:52:06Z</time>
      </trkpt>
      <trkpt lat="44.65988" lon="3.0933">
        <ele>1146.99</ele>
        <time>2012-05-14T12:52:25Z</time>
      </trkpt>
      <trkpt lat="44.65988" lon="3.0933">
        <ele>1146.99</ele>
        <time>2012-05-14T12:52:31Z</time>
      </trkpt>
      <trkpt lat="44.65984" lon="3.09329">
        <ele>1146.99</ele>
        <time>2012-05-14T12:52:34Z</time>
      </trkpt>
      <trkpt lat="44.65969" lon="3.09318">
        <ele>1146.51</ele>
        <time>2012-05-14T12:52:51Z</time>
      </trkpt>
      <trkpt lat="44.65961" lon="3.09312">
        <ele>1146.51</ele>
        <time>2012-05-14T12:52:59Z</time>
      </trkpt>
      <trkpt lat="44.65956" lon="3.09306">
        <ele>1146.51</ele>
        <time>2012-05-14T12:53:12Z</time>
      </trkpt>
      <trkpt lat="44.65956" lon="3.09306">
        <ele>1146.51</ele>
        <time>2012-05-14T12:53:23Z</time>
      </trkpt>
      <trkpt lat="44.6594" lon="3.09294">
        <ele>1146.99</ele>
        <time>2012-05-14T12:53:38Z</time>
      </trkpt>
      <trkpt lat="44.65927" lon="3.09282">
        <ele>1147.95</ele>
        <time>2012-05-14T12:53:55Z</time>
      </trkpt>
      <trkpt lat="44.65919" lon="3.09278">
        <ele>1147.47</ele>
        <time>2012-05-14T12:54:07Z</time>
      </trkpt>
      <trkpt lat="44.659" lon="3.09266">
        <ele>1147.47</ele>
        <time>2012-05-14T12:54:25Z</time>
      </trkpt>
      <trkpt lat="44.65876" lon="3.09251">
        <ele>1147.47</ele>
        <time>2012-05-14T12:54:45Z</time>
      </trkpt>
      <trkpt lat="44.65858" lon="3.09238">
        <ele>1146.99</ele>
        <time>2012-05-14T12:55:01Z</time>
      </trkpt>
      <trkpt lat="44.65852" lon="3.09231">
        <ele>1146.99</ele>
        <time>2012-05-14T12:55:16Z</time>
      </trkpt>
      <trkpt lat="44.65853" lon="3.09232">
        <ele>1146.99</ele>
        <time>2012-05-14T12:55:34Z</time>
      </trkpt>
      <trkpt lat="44.65852" lon="3.09231">
        <ele>1146.99</ele>
        <time>2012-05-14T12:55:40Z</time>
      </trkpt>
      <trkpt lat="44.65845" lon="3.09227">
        <ele>1147.47</ele>
        <time>2012-05-14T12:55:47Z</time>
      </trkpt>
      <trkpt lat="44.65823" lon="3.09213">
        <ele>1149.39</ele>
        <time>2012-05-14T12:56:06Z</time>
      </trkpt>
      <trkpt lat="44.65802" lon="3.09198">
        <ele>1148.43</ele>
        <time>2012-05-14T12:56:25Z</time>
      </trkpt>
      <trkpt lat="44.65799" lon="3.09195">
        <ele>1148.43</ele>
        <time>2012-05-14T12:56:28Z</time>
      </trkpt>
      <trkpt lat="44.65798" lon="3.09192">
        <ele>1147.95</ele>
        <time>2012-05-14T12:56:33Z</time>
      </trkpt>
      <trkpt lat="44.65792" lon="3.0919">
        <ele>1148.91</ele>
        <time>2012-05-14T12:56:39Z</time>
      </trkpt>
      <trkpt lat="44.65773" lon="3.09177">
        <ele>1148.43</ele>
        <time>2012-05-14T12:56:56Z</time>
      </trkpt>
      <trkpt lat="44.65748" lon="3.09164">
        <ele>1148.43</ele>
        <time>2012-05-14T12:57:17Z</time>
      </trkpt>
      <trkpt lat="44.65725" lon="3.09151">
        <ele>1148.91</ele>
        <time>2012-05-14T12:57:36Z</time>
      </trkpt>
      <trkpt lat="44.65703" lon="3.09135">
        <ele>1148.91</ele>
        <time>2012-05-14T12:57:55Z</time>
      </trkpt>
      <trkpt lat="44.6568" lon="3.09116">
        <ele>1148.43</ele>
        <time>2012-05-14T12:58:16Z</time>
      </trkpt>
      <trkpt lat="44.65657" lon="3.091">
        <ele>1148.43</ele>
        <time>2012-05-14T12:58:36Z</time>
      </trkpt>
      <trkpt lat="44.6564" lon="3.09088">
        <ele>1148.91</ele>
        <time>2012-05-14T12:58:52Z</time>
      </trkpt>
      <trkpt lat="44.65622" lon="3.09079">
        <ele>1150.84</ele>
        <time>2012-05-14T12:59:08Z</time>
      </trkpt>
      <trkpt lat="44.65602" lon="3.09073">
        <ele>1152.28</ele>
        <time>2012-05-14T12:59:25Z</time>
      </trkpt>
      <trkpt lat="44.65575" lon="3.09069">
        <ele>1150.84</ele>
        <time>2012-05-14T12:59:46Z</time>
      </trkpt>
      <trkpt lat="44.65547" lon="3.0906">
        <ele>1150.84</ele>
        <time>2012-05-14T13:00:08Z</time>
      </trkpt>
      <trkpt lat="44.65524" lon="3.09045">
        <ele>1148.43</ele>
        <time>2012-05-14T13:00:28Z</time>
      </trkpt>
      <trkpt lat="44.65508" lon="3.09028">
        <ele>1147.47</ele>
        <time>2012-05-14T13:00:44Z</time>
      </trkpt>
      <trkpt lat="44.65507" lon="3.09017">
        <ele>1147.95</ele>
        <time>2012-05-14T13:00:52Z</time>
      </trkpt>
      <trkpt lat="44.65507" lon="3.09001">
        <ele>1148.91</ele>
        <time>2012-05-14T13:01:08Z</time>
      </trkpt>
      <trkpt lat="44.65508" lon="3.09001">
        <ele>1148.91</ele>
        <time>2012-05-14T13:01:12Z</time>
      </trkpt>
      <trkpt lat="44.6551" lon="3.08999">
        <ele>1148.91</ele>
        <time>2012-05-14T13:01:22Z</time>
      </trkpt>
      <trkpt lat="44.65511" lon="3.08985">
        <ele>1147.95</ele>
        <time>2012-05-14T13:01:30Z</time>
      </trkpt>
      <trkpt lat="44.65512" lon="3.08962">
        <ele>1147.47</ele>
        <time>2012-05-14T13:01:48Z</time>
      </trkpt>
      <trkpt lat="44.65512" lon="3.08967">
        <ele>1148.91</ele>
        <time>2012-05-14T13:02:02Z</time>
      </trkpt>
      <trkpt lat="44.65511" lon="3.08967">
        <ele>1148.91</ele>
        <time>2012-05-14T13:02:07Z</time>
      </trkpt>
      <trkpt lat="44.65513" lon="3.08938">
        <ele>1148.91</ele>
        <time>2012-05-14T13:02:24Z</time>
      </trkpt>
      <trkpt lat="44.6551" lon="3.08921">
        <ele>1148.43</ele>
        <time>2012-05-14T13:02:34Z</time>
      </trkpt>
      <trkpt lat="44.65504" lon="3.08906">
        <ele>1148.43</ele>
        <time>2012-05-14T13:02:46Z</time>
      </trkpt>
      <trkpt lat="44.65502" lon="3.08901">
        <ele>1148.43</ele>
        <time>2012-05-14T13:02:50Z</time>
      </trkpt>
      <trkpt lat="44.6549" lon="3.08875">
        <ele>1149.39</ele>
        <time>2012-05-14T13:03:08Z</time>
      </trkpt>
      <trkpt lat="44.65472" lon="3.08861">
        <ele>1150.35</ele>
        <time>2012-05-14T13:03:26Z</time>
      </trkpt>
      <trkpt lat="44.65471" lon="3.08861">
        <ele>1150.35</ele>
        <time>2012-05-14T13:03:42Z</time>
      </trkpt>
      <trkpt lat="44.65473" lon="3.08862">
        <ele>1150.35</ele>
        <time>2012-05-14T13:03:46Z</time>
      </trkpt>
      <trkpt lat="44.65475" lon="3.08862">
        <ele>1150.35</ele>
        <time>2012-05-14T13:03:48Z</time>
      </trkpt>
      <trkpt lat="44.65481" lon="3.08865">
        <ele>1150.35</ele>
        <time>2012-05-14T13:04:02Z</time>
      </trkpt>
      <trkpt lat="44.65484" lon="3.0886">
        <ele>1150.84</ele>
        <time>2012-05-14T13:04:07Z</time>
      </trkpt>
      <trkpt lat="44.65484" lon="3.08834">
        <ele>1152.28</ele>
        <time>2012-05-14T13:04:24Z</time>
      </trkpt>
      <trkpt lat="44.65486" lon="3.0883">
        <ele>1153.24</ele>
        <time>2012-05-14T13:04:37Z</time>
      </trkpt>
      <trkpt lat="44.65488" lon="3.08829">
        <ele>1153.24</ele>
        <time>2012-05-14T13:05:11Z</time>
      </trkpt>
      <trkpt lat="44.65497" lon="3.08815">
        <ele>1155.16</ele>
        <time>2012-05-14T13:05:26Z</time>
      </trkpt>
      <trkpt lat="44.655" lon="3.08808">
        <ele>1155.64</ele>
        <time>2012-05-14T13:05:32Z</time>
      </trkpt>
      <trkpt lat="44.65512" lon="3.08796">
        <ele>1159.01</ele>
        <time>2012-05-14T13:05:50Z</time>
      </trkpt>
      <trkpt lat="44.6552" lon="3.0878">
        <ele>1161.89</ele>
        <time>2012-05-14T13:06:05Z</time>
      </trkpt>
      <trkpt lat="44.65521" lon="3.08756">
        <ele>1163.81</ele>
        <time>2012-05-14T13:06:22Z</time>
      </trkpt>
      <trkpt lat="44.65524" lon="3.08747">
        <ele>1164.29</ele>
        <time>2012-05-14T13:06:38Z</time>
      </trkpt>
      <trkpt lat="44.65535" lon="3.08727">
        <ele>1165.26</ele>
        <time>2012-05-14T13:06:56Z</time>
      </trkpt>
      <trkpt lat="44.65537" lon="3.08722">
        <ele>1165.74</ele>
        <time>2012-05-14T13:07:00Z</time>
      </trkpt>
      <trkpt lat="44.65545" lon="3.08697">
        <ele>1167.18</ele>
        <time>2012-05-14T13:07:17Z</time>
      </trkpt>
      <trkpt lat="44.65554" lon="3.0867">
        <ele>1168.62</ele>
        <time>2012-05-14T13:07:36Z</time>
      </trkpt>
      <trkpt lat="44.65558" lon="3.08659">
        <ele>1169.1</ele>
        <time>2012-05-14T13:07:50Z</time>
      </trkpt>
      <trkpt lat="44.65559" lon="3.08657">
        <ele>1169.1</ele>
        <time>2012-05-14T13:08:06Z</time>
      </trkpt>
      <trkpt lat="44.65566" lon="3.08633">
        <ele>1169.1</ele>
        <time>2012-05-14T13:08:23Z</time>
      </trkpt>
      <trkpt lat="44.65572" lon="3.08611">
        <ele>1169.58</ele>
        <time>2012-05-14T13:08:38Z</time>
      </trkpt>
      <trkpt lat="44.65579" lon="3.08586">
        <ele>1170.06</ele>
        <time>2012-05-14T13:08:56Z</time>
      </trkpt>
      <trkpt lat="44.65588" lon="3.0856">
        <ele>1171.02</ele>
        <time>2012-05-14T13:09:12Z</time>
      </trkpt>
      <trkpt lat="44.65595" lon="3.08534">
        <ele>1171.5</ele>
        <time>2012-05-14T13:09:29Z</time>
      </trkpt>
      <trkpt lat="44.65599" lon="3.08508">
        <ele>1172.47</ele>
        <time>2012-05-14T13:09:46Z</time>
      </trkpt>
      <trkpt lat="44.65605" lon="3.08481">
        <ele>1172.47</ele>
        <time>2012-05-14T13:10:03Z</time>
      </trkpt>
      <trkpt lat="44.65608" lon="3.08449">
        <ele>1172.95</ele>
        <time>2012-05-14T13:10:22Z</time>
      </trkpt>
      <trkpt lat="44.65613" lon="3.08417">
        <ele>1172.95</ele>
        <time>2012-05-14T13:10:40Z</time>
      </trkpt>
      <trkpt lat="44.65618" lon="3.08383">
        <ele>1173.91</ele>
        <time>2012-05-14T13:11:00Z</time>
      </trkpt>
      <trkpt lat="44.65621" lon="3.08358">
        <ele>1174.39</ele>
        <time>2012-05-14T13:11:16Z</time>
      </trkpt>
      <trkpt lat="44.65625" lon="3.0833">
        <ele>1174.87</ele>
        <time>2012-05-14T13:11:33Z</time>
      </trkpt>
      <trkpt lat="44.65628" lon="3.083">
        <ele>1175.35</ele>
        <time>2012-05-14T13:11:50Z</time>
      </trkpt>
      <trkpt lat="44.65632" lon="3.08269">
        <ele>1174.87</ele>
        <time>2012-05-14T13:12:08Z</time>
      </trkpt>
      <trkpt lat="44.65636" lon="3.08237">
        <ele>1175.83</ele>
        <time>2012-05-14T13:12:26Z</time>
      </trkpt>
      <trkpt lat="44.65641" lon="3.0821">
        <ele>1176.79</ele>
        <time>2012-05-14T13:12:42Z</time>
      </trkpt>
      <trkpt lat="44.65647" lon="3.0818">
        <ele>1177.75</ele>
        <time>2012-05-14T13:13:00Z</time>
      </trkpt>
      <trkpt lat="44.65649" lon="3.08152">
        <ele>1179.19</ele>
        <time>2012-05-14T13:13:17Z</time>
      </trkpt>
      <trkpt lat="44.65652" lon="3.08125">
        <ele>1179.19</ele>
        <time>2012-05-14T13:13:33Z</time>
      </trkpt>
      <trkpt lat="44.65661" lon="3.08096">
        <ele>1179.67</ele>
        <time>2012-05-14T13:13:52Z</time>
      </trkpt>
      <trkpt lat="44.65668" lon="3.08062">
        <ele>1179.67</ele>
        <time>2012-05-14T13:14:12Z</time>
      </trkpt>
      <trkpt lat="44.65673" lon="3.08033">
        <ele>1178.23</ele>
        <time>2012-05-14T13:14:29Z</time>
      </trkpt>
      <trkpt lat="44.65678" lon="3.08005">
        <ele>1178.23</ele>
        <time>2012-05-14T13:14:45Z</time>
      </trkpt>
      <trkpt lat="44.65676" lon="3.07974">
        <ele>1178.71</ele>
        <time>2012-05-14T13:15:03Z</time>
      </trkpt>
      <trkpt lat="44.65673" lon="3.07942">
        <ele>1179.19</ele>
        <time>2012-05-14T13:15:21Z</time>
      </trkpt>
      <trkpt lat="44.65665" lon="3.07913">
        <ele>1178.23</ele>
        <time>2012-05-14T13:15:38Z</time>
      </trkpt>
      <trkpt lat="44.6566" lon="3.07895">
        <ele>1177.75</ele>
        <time>2012-05-14T13:15:49Z</time>
      </trkpt>
      <trkpt lat="44.65654" lon="3.07877">
        <ele>1178.23</ele>
        <time>2012-05-14T13:16:00Z</time>
      </trkpt>
      <trkpt lat="44.65656" lon="3.07847">
        <ele>1179.67</ele>
        <time>2012-05-14T13:16:18Z</time>
      </trkpt>
      <trkpt lat="44.65657" lon="3.07818">
        <ele>1180.64</ele>
        <time>2012-05-14T13:16:35Z</time>
      </trkpt>
      <trkpt lat="44.65658" lon="3.07786">
        <ele>1181.6</ele>
        <time>2012-05-14T13:16:54Z</time>
      </trkpt>
      <trkpt lat="44.65658" lon="3.07757">
        <ele>1181.6</ele>
        <time>2012-05-14T13:17:11Z</time>
      </trkpt>
      <trkpt lat="44.65658" lon="3.07725">
        <ele>1182.08</ele>
        <time>2012-05-14T13:17:30Z</time>
      </trkpt>
      <trkpt lat="44.65663" lon="3.07702">
        <ele>1182.56</ele>
        <time>2012-05-14T13:17:46Z</time>
      </trkpt>
      <trkpt lat="44.65671" lon="3.07677">
        <ele>1184</ele>
        <time>2012-05-14T13:18:03Z</time>
      </trkpt>
      <trkpt lat="44.65676" lon="3.07659">
        <ele>1184.96</ele>
        <time>2012-05-14T13:18:17Z</time>
      </trkpt>
      <trkpt lat="44.65683" lon="3.07638">
        <ele>1186.88</ele>
        <time>2012-05-14T13:18:34Z</time>
      </trkpt>
      <trkpt lat="44.65685" lon="3.0763">
        <ele>1186.4</ele>
        <time>2012-05-14T13:18:52Z</time>
      </trkpt>
      <trkpt lat="44.65693" lon="3.07605">
        <ele>1187.37</ele>
        <time>2012-05-14T13:19:09Z</time>
      </trkpt>
      <trkpt lat="44.65702" lon="3.07585">
        <ele>1188.33</ele>
        <time>2012-05-14T13:19:24Z</time>
      </trkpt>
      <trkpt lat="44.65713" lon="3.07562">
        <ele>1189.77</ele>
        <time>2012-05-14T13:19:42Z</time>
      </trkpt>
      <trkpt lat="44.65724" lon="3.07544">
        <ele>1190.25</ele>
        <time>2012-05-14T13:19:59Z</time>
      </trkpt>
      <trkpt lat="44.65735" lon="3.07525">
        <ele>1191.21</ele>
        <time>2012-05-14T13:20:16Z</time>
      </trkpt>
      <trkpt lat="44.65743" lon="3.07501">
        <ele>1194.09</ele>
        <time>2012-05-14T13:20:33Z</time>
      </trkpt>
      <trkpt lat="44.65749" lon="3.07478">
        <ele>1195.54</ele>
        <time>2012-05-14T13:20:50Z</time>
      </trkpt>
      <trkpt lat="44.65756" lon="3.07456">
        <ele>1197.46</ele>
        <time>2012-05-14T13:21:07Z</time>
      </trkpt>
      <trkpt lat="44.65759" lon="3.07438">
        <ele>1198.42</ele>
        <time>2012-05-14T13:21:21Z</time>
      </trkpt>
      <trkpt lat="44.6576" lon="3.07429">
        <ele>1199.86</ele>
        <time>2012-05-14T13:21:33Z</time>
      </trkpt>
      <trkpt lat="44.65763" lon="3.07406">
        <ele>1200.82</ele>
        <time>2012-05-14T13:21:48Z</time>
      </trkpt>
      <trkpt lat="44.65763" lon="3.07401">
        <ele>1200.82</ele>
        <time>2012-05-14T13:21:51Z</time>
      </trkpt>
      <trkpt lat="44.65765" lon="3.07393">
        <ele>1201.3</ele>
        <time>2012-05-14T13:21:56Z</time>
      </trkpt>
      <trkpt lat="44.65765" lon="3.07366">
        <ele>1203.23</ele>
        <time>2012-05-14T13:22:17Z</time>
      </trkpt>
      <trkpt lat="44.65766" lon="3.07364">
        <ele>1203.23</ele>
        <time>2012-05-14T13:22:27Z</time>
      </trkpt>
      <trkpt lat="44.65774" lon="3.07338">
        <ele>1204.67</ele>
        <time>2012-05-14T13:22:47Z</time>
      </trkpt>
      <trkpt lat="44.65781" lon="3.0733">
        <ele>1204.67</ele>
        <time>2012-05-14T13:23:02Z</time>
      </trkpt>
      <trkpt lat="44.65781" lon="3.07329">
        <ele>1204.67</ele>
        <time>2012-05-14T13:23:14Z</time>
      </trkpt>
      <trkpt lat="44.65784" lon="3.07327">
        <ele>1205.15</ele>
        <time>2012-05-14T13:23:17Z</time>
      </trkpt>
      <trkpt lat="44.6579" lon="3.07304">
        <ele>1207.55</ele>
        <time>2012-05-14T13:23:33Z</time>
      </trkpt>
      <trkpt lat="44.65791" lon="3.07274">
        <ele>1208.51</ele>
        <time>2012-05-14T13:23:50Z</time>
      </trkpt>
      <trkpt lat="44.65792" lon="3.07257">
        <ele>1209.96</ele>
        <time>2012-05-14T13:24:05Z</time>
      </trkpt>
      <trkpt lat="44.65792" lon="3.07257">
        <ele>1209.96</ele>
        <time>2012-05-14T13:24:09Z</time>
      </trkpt>
      <trkpt lat="44.65788" lon="3.07247">
        <ele>1209.48</ele>
        <time>2012-05-14T13:24:20Z</time>
      </trkpt>
      <trkpt lat="44.65787" lon="3.07245">
        <ele>1209.48</ele>
        <time>2012-05-14T13:24:36Z</time>
      </trkpt>
      <trkpt lat="44.65781" lon="3.07224">
        <ele>1208.51</ele>
        <time>2012-05-14T13:24:49Z</time>
      </trkpt>
      <trkpt lat="44.65768" lon="3.07198">
        <ele>1208.03</ele>
        <time>2012-05-14T13:25:06Z</time>
      </trkpt>
      <trkpt lat="44.6576" lon="3.07173">
        <ele>1208.51</ele>
        <time>2012-05-14T13:25:22Z</time>
      </trkpt>
      <trkpt lat="44.65752" lon="3.07148">
        <ele>1208.03</ele>
        <time>2012-05-14T13:25:38Z</time>
      </trkpt>
      <trkpt lat="44.65752" lon="3.07136">
        <ele>1207.55</ele>
        <time>2012-05-14T13:25:52Z</time>
      </trkpt>
      <trkpt lat="44.65752" lon="3.07136">
        <ele>1207.55</ele>
        <time>2012-05-14T13:25:58Z</time>
      </trkpt>
      <trkpt lat="44.65741" lon="3.0711">
        <ele>1207.55</ele>
        <time>2012-05-14T13:26:16Z</time>
      </trkpt>
      <trkpt lat="44.65736" lon="3.07084">
        <ele>1207.07</ele>
        <time>2012-05-14T13:26:32Z</time>
      </trkpt>
      <trkpt lat="44.65734" lon="3.07056">
        <ele>1208.03</ele>
        <time>2012-05-14T13:26:49Z</time>
      </trkpt>
      <trkpt lat="44.65738" lon="3.07027">
        <ele>1208.51</ele>
        <time>2012-05-14T13:27:07Z</time>
      </trkpt>
      <trkpt lat="44.65745" lon="3.07003">
        <ele>1208.03</ele>
        <time>2012-05-14T13:27:23Z</time>
      </trkpt>
      <trkpt lat="44.65751" lon="3.06993">
        <ele>1208.03</ele>
        <time>2012-05-14T13:27:38Z</time>
      </trkpt>
      <trkpt lat="44.65749" lon="3.06991">
        <ele>1207.55</ele>
        <time>2012-05-14T13:27:54Z</time>
      </trkpt>
      <trkpt lat="44.65748" lon="3.06982">
        <ele>1208.03</ele>
        <time>2012-05-14T13:27:59Z</time>
      </trkpt>
      <trkpt lat="44.65749" lon="3.06955">
        <ele>1206.11</ele>
        <time>2012-05-14T13:28:15Z</time>
      </trkpt>
      <trkpt lat="44.6575" lon="3.06954">
        <ele>1206.59</ele>
        <time>2012-05-14T13:28:16Z</time>
      </trkpt>
      <trkpt lat="44.65759" lon="3.0693">
        <ele>1205.63</ele>
        <time>2012-05-14T13:28:33Z</time>
      </trkpt>
      <trkpt lat="44.65762" lon="3.06916">
        <ele>1206.11</ele>
        <time>2012-05-14T13:28:51Z</time>
      </trkpt>
      <trkpt lat="44.65763" lon="3.06913">
        <ele>1206.11</ele>
        <time>2012-05-14T13:29:08Z</time>
      </trkpt>
      <trkpt lat="44.65767" lon="3.06884">
        <ele>1205.63</ele>
        <time>2012-05-14T13:29:26Z</time>
      </trkpt>
      <trkpt lat="44.6577" lon="3.06863">
        <ele>1205.63</ele>
        <time>2012-05-14T13:29:42Z</time>
      </trkpt>
      <trkpt lat="44.6577" lon="3.06858">
        <ele>1205.63</ele>
        <time>2012-05-14T13:30:00Z</time>
      </trkpt>
      <trkpt lat="44.65771" lon="3.06851">
        <ele>1205.63</ele>
        <time>2012-05-14T13:30:26Z</time>
      </trkpt>
      <trkpt lat="44.65775" lon="3.06827">
        <ele>1204.67</ele>
        <time>2012-05-14T13:30:40Z</time>
      </trkpt>
      <trkpt lat="44.65785" lon="3.06796">
        <ele>1202.75</ele>
        <time>2012-05-14T13:30:59Z</time>
      </trkpt>
      <trkpt lat="44.65791" lon="3.06784">
        <ele>1201.3</ele>
        <time>2012-05-14T13:31:08Z</time>
      </trkpt>
      <trkpt lat="44.65792" lon="3.0678">
        <ele>1201.3</ele>
        <time>2012-05-14T13:31:22Z</time>
      </trkpt>
      <trkpt lat="44.65792" lon="3.0678">
        <ele>1201.3</ele>
        <time>2012-05-14T13:31:49Z</time>
      </trkpt>
      <trkpt lat="44.65795" lon="3.06778">
        <ele>1200.34</ele>
        <time>2012-05-14T13:31:55Z</time>
      </trkpt>
      <trkpt lat="44.65805" lon="3.0677">
        <ele>1199.38</ele>
        <time>2012-05-14T13:32:09Z</time>
      </trkpt>
      <trkpt lat="44.65819" lon="3.06756">
        <ele>1196.5</ele>
        <time>2012-05-14T13:32:24Z</time>
      </trkpt>
      <trkpt lat="44.65836" lon="3.06735">
        <ele>1192.65</ele>
        <time>2012-05-14T13:32:42Z</time>
      </trkpt>
      <trkpt lat="44.65841" lon="3.06732">
        <ele>1191.69</ele>
        <time>2012-05-14T13:32:48Z</time>
      </trkpt>
      <trkpt lat="44.6585" lon="3.06726">
        <ele>1189.77</ele>
        <time>2012-05-14T13:32:57Z</time>
      </trkpt>
      <trkpt lat="44.65858" lon="3.06721">
        <ele>1189.77</ele>
        <time>2012-05-14T13:33:09Z</time>
      </trkpt>
      <trkpt lat="44.65859" lon="3.06721">
        <ele>1189.77</ele>
        <time>2012-05-14T13:33:26Z</time>
      </trkpt>
      <trkpt lat="44.65863" lon="3.06717">
        <ele>1189.29</ele>
        <time>2012-05-14T13:33:44Z</time>
      </trkpt>
      <trkpt lat="44.65866" lon="3.06713">
        <ele>1189.29</ele>
        <time>2012-05-14T13:33:47Z</time>
      </trkpt>
      <trkpt lat="44.6587" lon="3.06713">
        <ele>1188.33</ele>
        <time>2012-05-14T13:33:51Z</time>
      </trkpt>
      <trkpt lat="44.65885" lon="3.06706">
        <ele>1186.88</ele>
        <time>2012-05-14T13:34:06Z</time>
      </trkpt>
      <trkpt lat="44.65889" lon="3.06704">
        <ele>1186.88</ele>
        <time>2012-05-14T13:34:19Z</time>
      </trkpt>
      <trkpt lat="44.65895" lon="3.067">
        <ele>1186.88</ele>
        <time>2012-05-14T13:34:25Z</time>
      </trkpt>
      <trkpt lat="44.659" lon="3.06675">
        <ele>1186.4</ele>
        <time>2012-05-14T13:34:42Z</time>
      </trkpt>
      <trkpt lat="44.65899" lon="3.06672">
        <ele>1185.92</ele>
        <time>2012-05-14T13:34:44Z</time>
      </trkpt>
      <trkpt lat="44.65896" lon="3.06646">
        <ele>1185.92</ele>
        <time>2012-05-14T13:35:00Z</time>
      </trkpt>
      <trkpt lat="44.65896" lon="3.06621">
        <ele>1187.37</ele>
        <time>2012-05-14T13:35:15Z</time>
      </trkpt>
      <trkpt lat="44.65902" lon="3.06592">
        <ele>1188.33</ele>
        <time>2012-05-14T13:35:32Z</time>
      </trkpt>
      <trkpt lat="44.65904" lon="3.06564">
        <ele>1189.29</ele>
        <time>2012-05-14T13:35:48Z</time>
      </trkpt>
      <trkpt lat="44.65906" lon="3.06548">
        <ele>1189.29</ele>
        <time>2012-05-14T13:35:58Z</time>
      </trkpt>
      <trkpt lat="44.65906" lon="3.0653">
        <ele>1190.25</ele>
        <time>2012-05-14T13:36:14Z</time>
      </trkpt>
      <trkpt lat="44.65904" lon="3.06516">
        <ele>1190.25</ele>
        <time>2012-05-14T13:36:37Z</time>
      </trkpt>
      <trkpt lat="44.65903" lon="3.06491">
        <ele>1189.77</ele>
        <time>2012-05-14T13:36:51Z</time>
      </trkpt>
      <trkpt lat="44.65901" lon="3.06462">
        <ele>1190.73</ele>
        <time>2012-05-14T13:37:08Z</time>
      </trkpt>
      <trkpt lat="44.65899" lon="3.06432">
        <ele>1190.73</ele>
        <time>2012-05-14T13:37:26Z</time>
      </trkpt>
      <trkpt lat="44.65896" lon="3.06404">
        <ele>1191.69</ele>
        <time>2012-05-14T13:37:43Z</time>
      </trkpt>
      <trkpt lat="44.65894" lon="3.06377">
        <ele>1192.65</ele>
        <time>2012-05-14T13:37:59Z</time>
      </trkpt>
      <trkpt lat="44.65892" lon="3.0635">
        <ele>1193.13</ele>
        <time>2012-05-14T13:38:16Z</time>
      </trkpt>
      <trkpt lat="44.65891" lon="3.0634">
        <ele>1193.61</ele>
        <time>2012-05-14T13:38:30Z</time>
      </trkpt>
      <trkpt lat="44.65891" lon="3.0634">
        <ele>1193.61</ele>
        <time>2012-05-14T13:38:50Z</time>
      </trkpt>
      <trkpt lat="44.65891" lon="3.06326">
        <ele>1193.61</ele>
        <time>2012-05-14T13:39:04Z</time>
      </trkpt>
      <trkpt lat="44.6589" lon="3.06305">
        <ele>1195.54</ele>
        <time>2012-05-14T13:39:19Z</time>
      </trkpt>
      <trkpt lat="44.65888" lon="3.06293">
        <ele>1196.5</ele>
        <time>2012-05-14T13:39:36Z</time>
      </trkpt>
      <trkpt lat="44.65888" lon="3.06293">
        <ele>1196.5</ele>
        <time>2012-05-14T13:39:51Z</time>
      </trkpt>
      <trkpt lat="44.65885" lon="3.06284">
        <ele>1196.5</ele>
        <time>2012-05-14T13:39:57Z</time>
      </trkpt>
      <trkpt lat="44.65875" lon="3.06263">
        <ele>1198.42</ele>
        <time>2012-05-14T13:40:13Z</time>
      </trkpt>
      <trkpt lat="44.65869" lon="3.06248">
        <ele>1200.82</ele>
        <time>2012-05-14T13:40:24Z</time>
      </trkpt>
      <trkpt lat="44.65864" lon="3.06235">
        <ele>1201.79</ele>
        <time>2012-05-14T13:40:40Z</time>
      </trkpt>
      <trkpt lat="44.65859" lon="3.06221">
        <ele>1200.82</ele>
        <time>2012-05-14T13:41:03Z</time>
      </trkpt>
      <trkpt lat="44.65858" lon="3.06218">
        <ele>1200.82</ele>
        <time>2012-05-14T13:41:05Z</time>
      </trkpt>
      <trkpt lat="44.65855" lon="3.06199">
        <ele>1200.34</ele>
        <time>2012-05-14T13:41:20Z</time>
      </trkpt>
      <trkpt lat="44.65853" lon="3.06186">
        <ele>1200.34</ele>
        <time>2012-05-14T13:41:28Z</time>
      </trkpt>
      <trkpt lat="44.6585" lon="3.06173">
        <ele>1200.34</ele>
        <time>2012-05-14T13:41:37Z</time>
      </trkpt>
      <trkpt lat="44.65841" lon="3.06151">
        <ele>1200.82</ele>
        <time>2012-05-14T13:41:53Z</time>
      </trkpt>
      <trkpt lat="44.65837" lon="3.06139">
        <ele>1201.79</ele>
        <time>2012-05-14T13:42:06Z</time>
      </trkpt>
      <trkpt lat="44.65829" lon="3.06114">
        <ele>1203.23</ele>
        <time>2012-05-14T13:42:22Z</time>
      </trkpt>
      <trkpt lat="44.65827" lon="3.0611">
        <ele>1203.71</ele>
        <time>2012-05-14T13:42:25Z</time>
      </trkpt>
      <trkpt lat="44.65826" lon="3.06103">
        <ele>1204.19</ele>
        <time>2012-05-14T13:42:29Z</time>
      </trkpt>
      <trkpt lat="44.65817" lon="3.06082">
        <ele>1207.07</ele>
        <time>2012-05-14T13:42:45Z</time>
      </trkpt>
      <trkpt lat="44.65811" lon="3.06071">
        <ele>1209.48</ele>
        <time>2012-05-14T13:42:59Z</time>
      </trkpt>
      <trkpt lat="44.65807" lon="3.06062">
        <ele>1209.48</ele>
        <time>2012-05-14T13:43:10Z</time>
      </trkpt>
      <trkpt lat="44.65796" lon="3.06041">
        <ele>1210.92</ele>
        <time>2012-05-14T13:43:26Z</time>
      </trkpt>
      <trkpt lat="44.65785" lon="3.06018">
        <ele>1212.84</ele>
        <time>2012-05-14T13:43:42Z</time>
      </trkpt>
      <trkpt lat="44.65777" lon="3.05996">
        <ele>1214.76</ele>
        <time>2012-05-14T13:43:58Z</time>
      </trkpt>
      <trkpt lat="44.65773" lon="3.05988">
        <ele>1215.24</ele>
        <time>2012-05-14T13:44:10Z</time>
      </trkpt>
      <trkpt lat="44.65768" lon="3.05969">
        <ele>1216.69</ele>
        <time>2012-05-14T13:44:24Z</time>
      </trkpt>
      <trkpt lat="44.65762" lon="3.05949">
        <ele>1218.61</ele>
        <time>2012-05-14T13:44:42Z</time>
      </trkpt>
      <trkpt lat="44.6576" lon="3.05937">
        <ele>1219.57</ele>
        <time>2012-05-14T13:44:58Z</time>
      </trkpt>
      <trkpt lat="44.65759" lon="3.05936">
        <ele>1219.57</ele>
        <time>2012-05-14T13:45:25Z</time>
      </trkpt>
      <trkpt lat="44.65755" lon="3.05923">
        <ele>1219.57</ele>
        <time>2012-05-14T13:45:41Z</time>
      </trkpt>
      <trkpt lat="44.65753" lon="3.05911">
        <ele>1220.05</ele>
        <time>2012-05-14T13:45:55Z</time>
      </trkpt>
      <trkpt lat="44.65749" lon="3.05901">
        <ele>1220.53</ele>
        <time>2012-05-14T13:46:11Z</time>
      </trkpt>
      <trkpt lat="44.65744" lon="3.05885">
        <ele>1219.57</ele>
        <time>2012-05-14T13:46:25Z</time>
      </trkpt>
      <trkpt lat="44.65739" lon="3.05861">
        <ele>1218.13</ele>
        <time>2012-05-14T13:46:41Z</time>
      </trkpt>
      <trkpt lat="44.65739" lon="3.05843">
        <ele>1218.61</ele>
        <time>2012-05-14T13:46:59Z</time>
      </trkpt>
      <trkpt lat="44.65742" lon="3.05817">
        <ele>1220.53</ele>
        <time>2012-05-14T13:47:15Z</time>
      </trkpt>
      <trkpt lat="44.65746" lon="3.05815">
        <ele>1221.01</ele>
        <time>2012-05-14T13:47:27Z</time>
      </trkpt>
      <trkpt lat="44.65746" lon="3.05813">
        <ele>1221.01</ele>
        <time>2012-05-14T13:47:30Z</time>
      </trkpt>
      <trkpt lat="44.65745" lon="3.05795">
        <ele>1221.01</ele>
        <time>2012-05-14T13:47:42Z</time>
      </trkpt>
      <trkpt lat="44.65752" lon="3.05782">
        <ele>1220.05</ele>
        <time>2012-05-14T13:47:57Z</time>
      </trkpt>
      <trkpt lat="44.65767" lon="3.0576">
        <ele>1217.17</ele>
        <time>2012-05-14T13:48:15Z</time>
      </trkpt>
      <trkpt lat="44.65784" lon="3.05741">
        <ele>1215.24</ele>
        <time>2012-05-14T13:48:33Z</time>
      </trkpt>
      <trkpt lat="44.65795" lon="3.0572">
        <ele>1214.76</ele>
        <time>2012-05-14T13:48:49Z</time>
      </trkpt>
      <trkpt lat="44.65811" lon="3.05699">
        <ele>1211.88</ele>
        <time>2012-05-14T13:49:07Z</time>
      </trkpt>
      <trkpt lat="44.65818" lon="3.0569">
        <ele>1210.44</ele>
        <time>2012-05-14T13:49:19Z</time>
      </trkpt>
      <trkpt lat="44.65824" lon="3.05681">
        <ele>1209.48</ele>
        <time>2012-05-14T13:49:28Z</time>
      </trkpt>
      <trkpt lat="44.65837" lon="3.05663">
        <ele>1208.51</ele>
        <time>2012-05-14T13:49:43Z</time>
      </trkpt>
      <trkpt lat="44.65837" lon="3.05663">
        <ele>1208.51</ele>
        <time>2012-05-14T13:50:04Z</time>
      </trkpt>
      <trkpt lat="44.65838" lon="3.0566">
        <ele>1208.51</ele>
        <time>2012-05-14T13:50:25Z</time>
      </trkpt>
      <trkpt lat="44.65846" lon="3.05649">
        <ele>1208.03</ele>
        <time>2012-05-14T13:50:57Z</time>
      </trkpt>
      <trkpt lat="44.65849" lon="3.05644">
        <ele>1208.03</ele>
        <time>2012-05-14T13:51:11Z</time>
      </trkpt>
      <trkpt lat="44.65849" lon="3.05644">
        <ele>1208.03</ele>
        <time>2012-05-14T13:51:42Z</time>
      </trkpt>
      <trkpt lat="44.65853" lon="3.05628">
        <ele>1207.07</ele>
        <time>2012-05-14T13:51:53Z</time>
      </trkpt>
      <trkpt lat="44.65852" lon="3.05599">
        <ele>1205.63</ele>
        <time>2012-05-14T13:52:11Z</time>
      </trkpt>
      <trkpt lat="44.65854" lon="3.05581">
        <ele>1204.67</ele>
        <time>2012-05-14T13:52:25Z</time>
      </trkpt>
      <trkpt lat="44.65856" lon="3.05564">
        <ele>1204.19</ele>
        <time>2012-05-14T13:52:37Z</time>
      </trkpt>
      <trkpt lat="44.65862" lon="3.05536">
        <ele>1204.19</ele>
        <time>2012-05-14T13:52:54Z</time>
      </trkpt>
      <trkpt lat="44.65872" lon="3.05509">
        <ele>1201.79</ele>
        <time>2012-05-14T13:53:12Z</time>
      </trkpt>
      <trkpt lat="44.65884" lon="3.05479">
        <ele>1199.38</ele>
        <time>2012-05-14T13:53:32Z</time>
      </trkpt>
      <trkpt lat="44.65892" lon="3.05455">
        <ele>1198.9</ele>
        <time>2012-05-14T13:53:47Z</time>
      </trkpt>
      <trkpt lat="44.65902" lon="3.05418">
        <ele>1195.54</ele>
        <time>2012-05-14T13:54:09Z</time>
      </trkpt>
      <trkpt lat="44.65913" lon="3.05399">
        <ele>1193.13</ele>
        <time>2012-05-14T13:54:25Z</time>
      </trkpt>
      <trkpt lat="44.65926" lon="3.0538">
        <ele>1191.69</ele>
        <time>2012-05-14T13:54:41Z</time>
      </trkpt>
      <trkpt lat="44.65927" lon="3.05379">
        <ele>1191.21</ele>
        <time>2012-05-14T13:54:58Z</time>
      </trkpt>
      <trkpt lat="44.65935" lon="3.05354">
        <ele>1190.73</ele>
        <time>2012-05-14T13:55:13Z</time>
      </trkpt>
      <trkpt lat="44.65939" lon="3.05342">
        <ele>1191.21</ele>
        <time>2012-05-14T13:55:27Z</time>
      </trkpt>
      <trkpt lat="44.65944" lon="3.05321">
        <ele>1190.25</ele>
        <time>2012-05-14T13:55:44Z</time>
      </trkpt>
      <trkpt lat="44.65944" lon="3.05321">
        <ele>1190.25</ele>
        <time>2012-05-14T13:55:52Z</time>
      </trkpt>
      <trkpt lat="44.65944" lon="3.05297">
        <ele>1188.81</ele>
        <time>2012-05-14T13:56:11Z</time>
      </trkpt>
      <trkpt lat="44.65943" lon="3.05282">
        <ele>1190.25</ele>
        <time>2012-05-14T13:56:25Z</time>
      </trkpt>
      <trkpt lat="44.65933" lon="3.05253">
        <ele>1189.77</ele>
        <time>2012-05-14T13:56:43Z</time>
      </trkpt>
      <trkpt lat="44.65928" lon="3.05242">
        <ele>1187.85</ele>
        <time>2012-05-14T13:56:51Z</time>
      </trkpt>
      <trkpt lat="44.65927" lon="3.05237">
        <ele>1186.88</ele>
        <time>2012-05-14T13:56:55Z</time>
      </trkpt>
      <trkpt lat="44.65923" lon="3.05215">
        <ele>1186.4</ele>
        <time>2012-05-14T13:57:08Z</time>
      </trkpt>
      <trkpt lat="44.65941" lon="3.05196">
        <ele>1184.48</ele>
        <time>2012-05-14T13:57:27Z</time>
      </trkpt>
      <trkpt lat="44.65955" lon="3.05183">
        <ele>1183.04</ele>
        <time>2012-05-14T13:57:43Z</time>
      </trkpt>
      <trkpt lat="44.65965" lon="3.05173">
        <ele>1182.56</ele>
        <time>2012-05-14T13:57:56Z</time>
      </trkpt>
      <trkpt lat="44.65982" lon="3.05156">
        <ele>1181.6</ele>
        <time>2012-05-14T13:58:13Z</time>
      </trkpt>
      <trkpt lat="44.65999" lon="3.05137">
        <ele>1183.52</ele>
        <time>2012-05-14T13:58:30Z</time>
      </trkpt>
      <trkpt lat="44.66014" lon="3.05122">
        <ele>1182.56</ele>
        <time>2012-05-14T13:58:46Z</time>
      </trkpt>
      <trkpt lat="44.66018" lon="3.05116">
        <ele>1183.52</ele>
        <time>2012-05-14T13:59:00Z</time>
      </trkpt>
      <trkpt lat="44.66035" lon="3.05093">
        <ele>1184</ele>
        <time>2012-05-14T13:59:18Z</time>
      </trkpt>
      <trkpt lat="44.66047" lon="3.05078">
        <ele>1183.52</ele>
        <time>2012-05-14T13:59:31Z</time>
      </trkpt>
      <trkpt lat="44.66047" lon="3.05062">
        <ele>1184.96</ele>
        <time>2012-05-14T13:59:45Z</time>
      </trkpt>
      <trkpt lat="44.66045" lon="3.05059">
        <ele>1184.96</ele>
        <time>2012-05-14T13:59:51Z</time>
      </trkpt>
      <trkpt lat="44.66044" lon="3.05057">
        <ele>1184.96</ele>
        <time>2012-05-14T13:59:56Z</time>
      </trkpt>
      <trkpt lat="44.66051" lon="3.05061">
        <ele>1184</ele>
        <time>2012-05-14T14:00:05Z</time>
      </trkpt>
      <trkpt lat="44.66071" lon="3.05036">
        <ele>1182.08</ele>
        <time>2012-05-14T14:00:25Z</time>
      </trkpt>
      <trkpt lat="44.66089" lon="3.05021">
        <ele>1179.67</ele>
        <time>2012-05-14T14:00:42Z</time>
      </trkpt>
      <trkpt lat="44.66109" lon="3.05004">
        <ele>1176.79</ele>
        <time>2012-05-14T14:01:00Z</time>
      </trkpt>
      <trkpt lat="44.66122" lon="3.0499">
        <ele>1173.43</ele>
        <time>2012-05-14T14:01:14Z</time>
      </trkpt>
      <trkpt lat="44.66131" lon="3.04985">
        <ele>1171.98</ele>
        <time>2012-05-14T14:01:22Z</time>
      </trkpt>
      <trkpt lat="44.66139" lon="3.04974">
        <ele>1172.95</ele>
        <time>2012-05-14T14:01:34Z</time>
      </trkpt>
      <trkpt lat="44.66149" lon="3.04958">
        <ele>1173.43</ele>
        <time>2012-05-14T14:01:45Z</time>
      </trkpt>
      <trkpt lat="44.66153" lon="3.04952">
        <ele>1172.95</ele>
        <time>2012-05-14T14:01:52Z</time>
      </trkpt>
      <trkpt lat="44.66154" lon="3.04939">
        <ele>1172.47</ele>
        <time>2012-05-14T14:02:00Z</time>
      </trkpt>
      <trkpt lat="44.66152" lon="3.04934">
        <ele>1172.47</ele>
        <time>2012-05-14T14:02:14Z</time>
      </trkpt>
      <trkpt lat="44.66152" lon="3.04934">
        <ele>1172.47</ele>
        <time>2012-05-14T14:02:29Z</time>
      </trkpt>
      <trkpt lat="44.66157" lon="3.04931">
        <ele>1172.47</ele>
        <time>2012-05-14T14:02:34Z</time>
      </trkpt>
      <trkpt lat="44.6616" lon="3.04902">
        <ele>1172.47</ele>
        <time>2012-05-14T14:02:51Z</time>
      </trkpt>
      <trkpt lat="44.6616" lon="3.04875">
        <ele>1170.54</ele>
        <time>2012-05-14T14:03:06Z</time>
      </trkpt>
      <trkpt lat="44.66159" lon="3.04855">
        <ele>1170.06</ele>
        <time>2012-05-14T14:03:21Z</time>
      </trkpt>
      <trkpt lat="44.66159" lon="3.04856">
        <ele>1169.58</ele>
        <time>2012-05-14T14:03:39Z</time>
      </trkpt>
      <trkpt lat="44.66159" lon="3.04854">
        <ele>1169.58</ele>
        <time>2012-05-14T14:03:51Z</time>
      </trkpt>
      <trkpt lat="44.66162" lon="3.04851">
        <ele>1168.14</ele>
        <time>2012-05-14T14:04:01Z</time>
      </trkpt>
      <trkpt lat="44.66164" lon="3.04849">
        <ele>1168.14</ele>
        <time>2012-05-14T14:04:03Z</time>
      </trkpt>
      <trkpt lat="44.66164" lon="3.04843">
        <ele>1168.62</ele>
        <time>2012-05-14T14:04:08Z</time>
      </trkpt>
      <trkpt lat="44.66163" lon="3.04832">
        <ele>1169.58</ele>
        <time>2012-05-14T14:04:19Z</time>
      </trkpt>
      <trkpt lat="44.66166" lon="3.04844">
        <ele>1168.14</ele>
        <time>2012-05-14T14:04:28Z</time>
      </trkpt>
      <trkpt lat="44.66169" lon="3.04845">
        <ele>1167.66</ele>
        <time>2012-05-14T14:04:32Z</time>
      </trkpt>
      <trkpt lat="44.66173" lon="3.04841">
        <ele>1167.66</ele>
        <time>2012-05-14T14:04:36Z</time>
      </trkpt>
      <trkpt lat="44.66183" lon="3.04812">
        <ele>1168.14</ele>
        <time>2012-05-14T14:04:54Z</time>
      </trkpt>
      <trkpt lat="44.66185" lon="3.04795">
        <ele>1167.18</ele>
        <time>2012-05-14T14:05:04Z</time>
      </trkpt>
      <trkpt lat="44.66185" lon="3.04785">
        <ele>1166.22</ele>
        <time>2012-05-14T14:05:18Z</time>
      </trkpt>
      <trkpt lat="44.66186" lon="3.04779">
        <ele>1165.74</ele>
        <time>2012-05-14T14:05:35Z</time>
      </trkpt>
      <trkpt lat="44.66187" lon="3.04772">
        <ele>1165.74</ele>
        <time>2012-05-14T14:05:39Z</time>
      </trkpt>
      <trkpt lat="44.66193" lon="3.0474">
        <ele>1163.81</ele>
        <time>2012-05-14T14:05:58Z</time>
      </trkpt>
      <trkpt lat="44.66195" lon="3.04726">
        <ele>1164.29</ele>
        <time>2012-05-14T14:06:13Z</time>
      </trkpt>
      <trkpt lat="44.66193" lon="3.04721">
        <ele>1164.29</ele>
        <time>2012-05-14T14:06:20Z</time>
      </trkpt>
      <trkpt lat="44.66195" lon="3.04714">
        <ele>1164.77</ele>
        <time>2012-05-14T14:06:25Z</time>
      </trkpt>
      <trkpt lat="44.66199" lon="3.04694">
        <ele>1165.26</ele>
        <time>2012-05-14T14:06:37Z</time>
      </trkpt>
      <trkpt lat="44.6621" lon="3.04678">
        <ele>1165.74</ele>
        <time>2012-05-14T14:06:52Z</time>
      </trkpt>
      <trkpt lat="44.66207" lon="3.04659">
        <ele>1167.66</ele>
        <time>2012-05-14T14:07:09Z</time>
      </trkpt>
      <trkpt lat="44.66207" lon="3.04659">
        <ele>1167.66</ele>
        <time>2012-05-14T14:07:31Z</time>
      </trkpt>
      <trkpt lat="44.66208" lon="3.04658">
        <ele>1168.14</ele>
        <time>2012-05-14T14:07:54Z</time>
      </trkpt>
      <trkpt lat="44.66208" lon="3.04658">
        <ele>1168.14</ele>
        <time>2012-05-14T14:08:23Z</time>
      </trkpt>
      <trkpt lat="44.66208" lon="3.04655">
        <ele>1168.62</ele>
        <time>2012-05-14T14:08:26Z</time>
      </trkpt>
      <trkpt lat="44.66216" lon="3.04643">
        <ele>1169.58</ele>
        <time>2012-05-14T14:08:41Z</time>
      </trkpt>
      <trkpt lat="44.66216" lon="3.04642">
        <ele>1169.58</ele>
        <time>2012-05-14T14:09:00Z</time>
      </trkpt>
      <trkpt lat="44.66216" lon="3.04642">
        <ele>1169.58</ele>
        <time>2012-05-14T14:09:25Z</time>
      </trkpt>
      <trkpt lat="44.66216" lon="3.04642">
        <ele>1169.58</ele>
        <time>2012-05-14T14:09:46Z</time>
      </trkpt>
      <trkpt lat="44.66216" lon="3.04642">
        <ele>1170.06</ele>
        <time>2012-05-14T14:10:09Z</time>
      </trkpt>
      <trkpt lat="44.66216" lon="3.04642">
        <ele>1170.06</ele>
        <time>2012-05-14T14:10:33Z</time>
      </trkpt>
      <trkpt lat="44.66216" lon="3.04641">
        <ele>1171.02</ele>
        <time>2012-05-14T14:10:55Z</time>
      </trkpt>
      <trkpt lat="44.66216" lon="3.04641">
        <ele>1171.02</ele>
        <time>2012-05-14T14:11:16Z</time>
      </trkpt>
      <trkpt lat="44.66216" lon="3.04641">
        <ele>1171.02</ele>
        <time>2012-05-14T14:11:42Z</time>
      </trkpt>
      <trkpt lat="44.66216" lon="3.04641">
        <ele>1171.02</ele>
        <time>2012-05-14T14:12:01Z</time>
      </trkpt>
      <trkpt lat="44.66216" lon="3.04641">
        <ele>1170.54</ele>
        <time>2012-05-14T14:12:29Z</time>
      </trkpt>
      <trkpt lat="44.66216" lon="3.04641">
        <ele>1170.54</ele>
        <time>2012-05-14T14:13:03Z</time>
      </trkpt>
      <trkpt lat="44.66216" lon="3.04641">
        <ele>1170.54</ele>
        <time>2012-05-14T14:13:30Z</time>
      </trkpt>
      <trkpt lat="44.66217" lon="3.04641">
        <ele>1170.06</ele>
        <time>2012-05-14T14:13:44Z</time>
      </trkpt>
      <trkpt lat="44.66217" lon="3.04634">
        <ele>1169.58</ele>
        <time>2012-05-14T14:13:56Z</time>
      </trkpt>
      <trkpt lat="44.66218" lon="3.04632">
        <ele>1169.58</ele>
        <time>2012-05-14T14:13:58Z</time>
      </trkpt>
      <trkpt lat="44.66217" lon="3.04626">
        <ele>1169.58</ele>
        <time>2012-05-14T14:14:02Z</time>
      </trkpt>
      <trkpt lat="44.66219" lon="3.04609">
        <ele>1169.58</ele>
        <time>2012-05-14T14:14:18Z</time>
      </trkpt>
      <trkpt lat="44.66219" lon="3.04609">
        <ele>1169.58</ele>
        <time>2012-05-14T14:14:34Z</time>
      </trkpt>
      <trkpt lat="44.6622" lon="3.04606">
        <ele>1169.58</ele>
        <time>2012-05-14T14:14:46Z</time>
      </trkpt>
      <trkpt lat="44.66227" lon="3.04601">
        <ele>1171.5</ele>
        <time>2012-05-14T14:14:59Z</time>
      </trkpt>
      <trkpt lat="44.66228" lon="3.04601">
        <ele>1171.98</ele>
        <time>2012-05-14T14:15:02Z</time>
      </trkpt>
      <trkpt lat="44.66232" lon="3.04604">
        <ele>1172.47</ele>
        <time>2012-05-14T14:15:05Z</time>
      </trkpt>
      <trkpt lat="44.66239" lon="3.04617">
        <ele>1173.91</ele>
        <time>2012-05-14T14:15:18Z</time>
      </trkpt>
      <trkpt lat="44.66246" lon="3.04623">
        <ele>1176.31</ele>
        <time>2012-05-14T14:15:31Z</time>
      </trkpt>
      <trkpt lat="44.6625" lon="3.04624">
        <ele>1177.27</ele>
        <time>2012-05-14T14:15:35Z</time>
      </trkpt>
      <trkpt lat="44.66253" lon="3.04617">
        <ele>1177.75</ele>
        <time>2012-05-14T14:15:48Z</time>
      </trkpt>
      <trkpt lat="44.66253" lon="3.04615">
        <ele>1177.75</ele>
        <time>2012-05-14T14:16:06Z</time>
      </trkpt>
      <trkpt lat="44.6625" lon="3.04612">
        <ele>1177.75</ele>
        <time>2012-05-14T14:16:26Z</time>
      </trkpt>
      <trkpt lat="44.66239" lon="3.04595">
        <ele>1178.23</ele>
        <time>2012-05-14T14:17:15Z</time>
      </trkpt>
      <trkpt lat="44.66246" lon="3.04607">
        <ele>1176.79</ele>
        <time>2012-05-14T14:17:41Z</time>
      </trkpt>
      <trkpt lat="44.66251" lon="3.04603">
        <ele>1182.56</ele>
        <time>2012-05-14T14:18:04Z</time>
      </trkpt>
      <trkpt lat="44.66254" lon="3.04607">
        <ele>1183.04</ele>
        <time>2012-05-14T14:18:10Z</time>
      </trkpt>
      <trkpt lat="44.66261" lon="3.04593">
        <ele>1185.92</ele>
        <time>2012-05-14T14:18:32Z</time>
      </trkpt>
      <trkpt lat="44.66259" lon="3.04589">
        <ele>1186.4</ele>
        <time>2012-05-14T14:18:54Z</time>
      </trkpt>
      <trkpt lat="44.66261" lon="3.04589">
        <ele>1186.4</ele>
        <time>2012-05-14T14:18:56Z</time>
      </trkpt>
      <trkpt lat="44.66264" lon="3.0459">
        <ele>1186.88</ele>
        <time>2012-05-14T14:18:59Z</time>
      </trkpt>
      <trkpt lat="44.66277" lon="3.04606">
        <ele>1189.77</ele>
        <time>2012-05-14T14:19:20Z</time>
      </trkpt>
      <trkpt lat="44.66264" lon="3.04603">
        <ele>1189.29</ele>
        <time>2012-05-14T14:19:41Z</time>
      </trkpt>
      <trkpt lat="44.66252" lon="3.04603">
        <ele>1189.29</ele>
        <time>2012-05-14T14:20:05Z</time>
      </trkpt>
      <trkpt lat="44.66246" lon="3.04608">
        <ele>1189.77</ele>
        <time>2012-05-14T14:20:28Z</time>
      </trkpt>
      <trkpt lat="44.66249" lon="3.0461">
        <ele>1187.85</ele>
        <time>2012-05-14T14:20:46Z</time>
      </trkpt>
      <trkpt lat="44.66249" lon="3.0461">
        <ele>1188.33</ele>
        <time>2012-05-14T14:21:23Z</time>
      </trkpt>
      <trkpt lat="44.66249" lon="3.0461">
        <ele>1189.29</ele>
        <time>2012-05-14T14:21:59Z</time>
      </trkpt>
      <trkpt lat="44.66249" lon="3.0461">
        <ele>1189.77</ele>
        <time>2012-05-14T14:22:38Z</time>
      </trkpt>
      <trkpt lat="44.66249" lon="3.0461">
        <ele>1189.77</ele>
        <time>2012-05-14T14:23:11Z</time>
      </trkpt>
      <trkpt lat="44.66249" lon="3.04611">
        <ele>1190.25</ele>
        <time>2012-05-14T14:23:46Z</time>
      </trkpt>
      <trkpt lat="44.66249" lon="3.04611">
        <ele>1190.25</ele>
        <time>2012-05-14T14:24:22Z</time>
      </trkpt>
      <trkpt lat="44.66248" lon="3.04611">
        <ele>1190.25</ele>
        <time>2012-05-14T14:24:57Z</time>
      </trkpt>
      <trkpt lat="44.66249" lon="3.04611">
        <ele>1190.73</ele>
        <time>2012-05-14T14:25:35Z</time>
      </trkpt>
      <trkpt lat="44.66248" lon="3.04611">
        <ele>1190.25</ele>
        <time>2012-05-14T14:26:12Z</time>
      </trkpt>
      <trkpt lat="44.66248" lon="3.04611">
        <ele>1190.73</ele>
        <time>2012-05-14T14:26:41Z</time>
      </trkpt>
      <trkpt lat="44.66248" lon="3.04611">
        <ele>1190.73</ele>
        <time>2012-05-14T14:27:18Z</time>
      </trkpt>
      <trkpt lat="44.66248" lon="3.04611">
        <ele>1190.25</ele>
        <time>2012-05-14T14:28:03Z</time>
      </trkpt>
      <trkpt lat="44.66248" lon="3.04611">
        <ele>1190.25</ele>
        <time>2012-05-14T14:28:49Z</time>
      </trkpt>
      <trkpt lat="44.66247" lon="3.04611">
        <ele>1189.77</ele>
        <time>2012-05-14T14:29:37Z</time>
      </trkpt>
      <trkpt lat="44.66247" lon="3.04611">
        <ele>1188.81</ele>
        <time>2012-05-14T14:30:22Z</time>
      </trkpt>
      <trkpt lat="44.66247" lon="3.04611">
        <ele>1188.81</ele>
        <time>2012-05-14T14:31:02Z</time>
      </trkpt>
      <trkpt lat="44.66247" lon="3.0461">
        <ele>1188.33</ele>
        <time>2012-05-14T14:31:33Z</time>
      </trkpt>
      <trkpt lat="44.66247" lon="3.0461">
        <ele>1187.85</ele>
        <time>2012-05-14T14:31:58Z</time>
      </trkpt>
      <trkpt lat="44.66247" lon="3.0461">
        <ele>1187.85</ele>
        <time>2012-05-14T14:32:25Z</time>
      </trkpt>
      <trkpt lat="44.66247" lon="3.0461">
        <ele>1187.37</ele>
        <time>2012-05-14T14:32:55Z</time>
      </trkpt>
      <trkpt lat="44.66247" lon="3.0461">
        <ele>1186.88</ele>
        <time>2012-05-14T14:33:22Z</time>
      </trkpt>
      <trkpt lat="44.66247" lon="3.0461">
        <ele>1186.4</ele>
        <time>2012-05-14T14:33:55Z</time>
      </trkpt>
      <trkpt lat="44.66247" lon="3.0461">
        <ele>1186.4</ele>
        <time>2012-05-14T14:34:23Z</time>
      </trkpt>
      <trkpt lat="44.66246" lon="3.0461">
        <ele>1186.4</ele>
        <time>2012-05-14T14:35:06Z</time>
      </trkpt>
      <trkpt lat="44.66246" lon="3.0461">
        <ele>1186.88</ele>
        <time>2012-05-14T14:35:53Z</time>
      </trkpt>
      <trkpt lat="44.66246" lon="3.0461">
        <ele>1186.88</ele>
        <time>2012-05-14T14:36:24Z</time>
      </trkpt>
      <trkpt lat="44.66246" lon="3.04611">
        <ele>1186.88</ele>
        <time>2012-05-14T14:36:55Z</time>
      </trkpt>
      <trkpt lat="44.66246" lon="3.04611">
        <ele>1186.4</ele>
        <time>2012-05-14T14:37:25Z</time>
      </trkpt>
      <trkpt lat="44.66246" lon="3.04611">
        <ele>1186.4</ele>
        <time>2012-05-14T14:37:57Z</time>
      </trkpt>
      <trkpt lat="44.66246" lon="3.04611">
        <ele>1186.4</ele>
        <time>2012-05-14T14:38:28Z</time>
      </trkpt>
      <trkpt lat="44.66246" lon="3.04611">
        <ele>1186.4</ele>
        <time>2012-05-14T14:39:00Z</time>
      </trkpt>
      <trkpt lat="44.66246" lon="3.04611">
        <ele>1186.4</ele>
        <time>2012-05-14T14:39:30Z</time>
      </trkpt>
      <trkpt lat="44.66246" lon="3.04611">
        <ele>1186.4</ele>
        <time>2012-05-14T14:40:03Z</time>
      </trkpt>
      <trkpt lat="44.66246" lon="3.04611">
        <ele>1186.4</ele>
        <time>2012-05-14T14:40:43Z</time>
      </trkpt>
      <trkpt lat="44.66246" lon="3.04611">
        <ele>1186.4</ele>
        <time>2012-05-14T14:41:21Z</time>
      </trkpt>
      <trkpt lat="44.66246" lon="3.04611">
        <ele>1186.4</ele>
        <time>2012-05-14T14:41:56Z</time>
      </trkpt>
      <trkpt lat="44.66246" lon="3.04611">
        <ele>1186.4</ele>
        <time>2012-05-14T14:42:31Z</time>
      </trkpt>
      <trkpt lat="44.66246" lon="3.04611">
        <ele>1186.4</ele>
        <time>2012-05-14T14:43:06Z</time>
      </trkpt>
      <trkpt lat="44.66246" lon="3.04611">
        <ele>1186.4</ele>
        <time>2012-05-14T14:43:46Z</time>
      </trkpt>
      <trkpt lat="44.66246" lon="3.04611">
        <ele>1186.4</ele>
        <time>2012-05-14T14:44:30Z</time>
      </trkpt>
      <trkpt lat="44.66246" lon="3.04611">
        <ele>1186.4</ele>
        <time>2012-05-14T14:45:05Z</time>
      </trkpt>
      <trkpt lat="44.66246" lon="3.04611">
        <ele>1186.4</ele>
        <time>2012-05-14T14:45:40Z</time>
      </trkpt>
      <trkpt lat="44.66246" lon="3.0461">
        <ele>1186.4</ele>
        <time>2012-05-14T14:46:12Z</time>
      </trkpt>
      <trkpt lat="44.66246" lon="3.0461">
        <ele>1186.4</ele>
        <time>2012-05-14T14:46:42Z</time>
      </trkpt>
      <trkpt lat="44.66246" lon="3.0461">
        <ele>1186.4</ele>
        <time>2012-05-14T14:47:36Z</time>
      </trkpt>
      <trkpt lat="44.66246" lon="3.0461">
        <ele>1186.4</ele>
        <time>2012-05-14T14:48:02Z</time>
      </trkpt>
      <trkpt lat="44.66246" lon="3.0461">
        <ele>1186.4</ele>
        <time>2012-05-14T14:48:28Z</time>
      </trkpt>
      <trkpt lat="44.66246" lon="3.04611">
        <ele>1186.4</ele>
        <time>2012-05-14T14:48:53Z</time>
      </trkpt>
      <trkpt lat="44.66246" lon="3.0461">
        <ele>1186.4</ele>
        <time>2012-05-14T14:49:21Z</time>
      </trkpt>
      <trkpt lat="44.66246" lon="3.0461">
        <ele>1186.4</ele>
        <time>2012-05-14T14:49:51Z</time>
      </trkpt>
      <trkpt lat="44.66246" lon="3.0461">
        <ele>1186.4</ele>
        <time>2012-05-14T14:50:20Z</time>
      </trkpt>
      <trkpt lat="44.66246" lon="3.0461">
        <ele>1186.4</ele>
        <time>2012-05-14T14:50:54Z</time>
      </trkpt>
      <trkpt lat="44.66246" lon="3.0461">
        <ele>1186.4</ele>
        <time>2012-05-14T14:51:36Z</time>
      </trkpt>
      <trkpt lat="44.66246" lon="3.0461">
        <ele>1186.4</ele>
        <time>2012-05-14T14:52:03Z</time>
      </trkpt>
      <trkpt lat="44.66246" lon="3.0461">
        <ele>1186.4</ele>
        <time>2012-05-14T14:52:27Z</time>
      </trkpt>
      <trkpt lat="44.66246" lon="3.0461">
        <ele>1186.4</ele>
        <time>2012-05-14T14:52:57Z</time>
      </trkpt>
      <trkpt lat="44.66247" lon="3.04609">
        <ele>1186.4</ele>
        <time>2012-05-14T14:53:27Z</time>
      </trkpt>
      <trkpt lat="44.66247" lon="3.0461">
        <ele>1186.88</ele>
        <time>2012-05-14T14:53:59Z</time>
      </trkpt>
      <trkpt lat="44.66247" lon="3.0461">
        <ele>1187.37</ele>
        <time>2012-05-14T14:54:32Z</time>
      </trkpt>
      <trkpt lat="44.66247" lon="3.0461">
        <ele>1186.88</ele>
        <time>2012-05-14T14:55:10Z</time>
      </trkpt>
      <trkpt lat="44.66247" lon="3.0461">
        <ele>1186.88</ele>
        <time>2012-05-14T14:55:38Z</time>
      </trkpt>
      <trkpt lat="44.66247" lon="3.0461">
        <ele>1186.88</ele>
        <time>2012-05-14T14:56:09Z</time>
      </trkpt>
      <trkpt lat="44.66243" lon="3.04613">
        <ele>1185.44</ele>
        <time>2012-05-14T14:56:38Z</time>
      </trkpt>
      <trkpt lat="44.66243" lon="3.04613">
        <ele>1185.44</ele>
        <time>2012-05-14T14:57:06Z</time>
      </trkpt>
      <trkpt lat="44.66243" lon="3.04613">
        <ele>1185.44</ele>
        <time>2012-05-14T14:57:33Z</time>
      </trkpt>
      <trkpt lat="44.66243" lon="3.04612">
        <ele>1185.44</ele>
        <time>2012-05-14T14:58:06Z</time>
      </trkpt>
      <trkpt lat="44.66253" lon="3.04606">
        <ele>1184.96</ele>
        <time>2012-05-14T14:58:31Z</time>
      </trkpt>
      <trkpt lat="44.66253" lon="3.04605">
        <ele>1184.96</ele>
        <time>2012-05-14T14:59:06Z</time>
      </trkpt>
      <trkpt lat="44.66253" lon="3.04605">
        <ele>1184.96</ele>
        <time>2012-05-14T14:59:41Z</time>
      </trkpt>
      <trkpt lat="44.66245" lon="3.0461">
        <ele>1185.92</ele>
        <time>2012-05-14T15:00:08Z</time>
      </trkpt>
      <trkpt lat="44.66246" lon="3.04609">
        <ele>1185.92</ele>
        <time>2012-05-14T15:00:36Z</time>
      </trkpt>
      <trkpt lat="44.66245" lon="3.0461">
        <ele>1185.92</ele>
        <time>2012-05-14T15:01:04Z</time>
      </trkpt>
      <trkpt lat="44.66245" lon="3.0461">
        <ele>1185.92</ele>
        <time>2012-05-14T15:01:29Z</time>
      </trkpt>
      <trkpt lat="44.66247" lon="3.04607">
        <ele>1185.92</ele>
        <time>2012-05-14T15:01:54Z</time>
      </trkpt>
      <trkpt lat="44.66246" lon="3.04607">
        <ele>1185.92</ele>
        <time>2012-05-14T15:02:27Z</time>
      </trkpt>
      <trkpt lat="44.66247" lon="3.04607">
        <ele>1185.92</ele>
        <time>2012-05-14T15:02:59Z</time>
      </trkpt>
      <trkpt lat="44.66247" lon="3.04607">
        <ele>1185.92</ele>
        <time>2012-05-14T15:03:31Z</time>
      </trkpt>
      <trkpt lat="44.66247" lon="3.04604">
        <ele>1186.88</ele>
        <time>2012-05-14T15:04:03Z</time>
      </trkpt>
      <trkpt lat="44.66247" lon="3.04605">
        <ele>1187.85</ele>
        <time>2012-05-14T15:04:32Z</time>
      </trkpt>
      <trkpt lat="44.66246" lon="3.0461">
        <ele>1188.81</ele>
        <time>2012-05-14T15:05:00Z</time>
      </trkpt>
      <trkpt lat="44.66246" lon="3.0461">
        <ele>1188.81</ele>
        <time>2012-05-14T15:05:25Z</time>
      </trkpt>
      <trkpt lat="44.66246" lon="3.04611">
        <ele>1188.81</ele>
        <time>2012-05-14T15:05:52Z</time>
      </trkpt>
      <trkpt lat="44.66246" lon="3.0461">
        <ele>1188.81</ele>
        <time>2012-05-14T15:06:17Z</time>
      </trkpt>
      <trkpt lat="44.66246" lon="3.0461">
        <ele>1188.81</ele>
        <time>2012-05-14T15:06:46Z</time>
      </trkpt>
      <trkpt lat="44.66242" lon="3.04613">
        <ele>1188.33</ele>
        <time>2012-05-14T15:07:11Z</time>
      </trkpt>
      <trkpt lat="44.66245" lon="3.04621">
        <ele>1183.04</ele>
        <time>2012-05-14T15:07:38Z</time>
      </trkpt>
    </trkseg>
  </trk>
</gpx>